Wetterdaten: Mittwoch, 24.02.2016
Datum Zeit Temp. A. Feuchte A. Luftdruck Regen Wind Richtung Richtung Sonnenschein ET UV Solar Taupunkt Windchill Windben Empfang
24.02.2016 00:00 2,7 C 89 % 1016,5 hPa 0,0 l/m 16,8 km/h (3 Bft) W 259 0 min 0,000 mm 0,0 UV-I 0 W/m 1,1 C -4,7 C 24,1 km/h (4 Bft) 100,00 %
24.02.2016 00:02 2,6 C 89 % 1016,5 hPa 0,0 l/m 22,2 km/h (4 Bft) W-SW 252 0 min 0,000 mm 0,0 UV-I 0 W/m 1,0 C -7,2 C 30,6 km/h (5 Bft) 100,00 %
24.02.2016 00:03 2,7 C 89 % 1016,5 hPa 0,0 l/m 20,5 km/h (4 Bft) W 281 0 min 0,000 mm 0,0 UV-I 0 W/m 1,1 C -6,4 C 29,0 km/h (5 Bft) 96,67 %
24.02.2016 00:04 2,7 C 88 % 1016,6 hPa 0,0 l/m 16,7 km/h (3 Bft) W-SW 253 0 min 0,000 mm 0,0 UV-I 0 W/m 0,9 C -4,6 C 20,9 km/h (4 Bft) 96,15 %
24.02.2016 00:05 2,7 C 89 % 1016,5 hPa 0,0 l/m 13,3 km/h (3 Bft) N 5 0 min 0,000 mm 0,0 UV-I 0 W/m 1,1 C -2,7 C 17,7 km/h (3 Bft) 100,00 %
24.02.2016 00:06 2,7 C 89 % 1016,6 hPa 0,0 l/m 21,7 km/h (4 Bft) W-SW 256 0 min 0,000 mm 0,0 UV-I 0 W/m 1,1 C -6,8 C 29,0 km/h (5 Bft) 100,00 %
24.02.2016 00:07 2,7 C 88 % 1016,5 hPa 0,0 l/m 17,4 km/h (3 Bft) W 264 0 min 0,000 mm 0,0 UV-I 0 W/m 0,9 C -5,0 C 22,5 km/h (4 Bft) 100,00 %
24.02.2016 00:08 2,7 C 88 % 1016,5 hPa 0,0 l/m 13,9 km/h (3 Bft) W-SW 257 0 min 0,000 mm 0,0 UV-I 0 W/m 0,9 C -3,1 C 19,3 km/h (3 Bft) 100,00 %
24.02.2016 00:09 2,7 C 88 % 1016,5 hPa 0,0 l/m 15,5 km/h (3 Bft) W-SW 251 0 min 0,000 mm 0,0 UV-I 0 W/m 0,9 C -4,0 C 19,3 km/h (3 Bft) 100,00 %
24.02.2016 00:10 2,7 C 89 % 1016,6 hPa 0,0 l/m 14,5 km/h (3 Bft) W 261 0 min 0,000 mm 0,0 UV-I 0 W/m 1,1 C -3,4 C 19,3 km/h (3 Bft) 100,00 %
24.02.2016 00:11 2,7 C 89 % 1016,6 hPa 0,0 l/m 15,8 km/h (3 Bft) W 265 0 min 0,000 mm 0,0 UV-I 0 W/m 1,1 C -4,1 C 20,9 km/h (4 Bft) 95,83 %
24.02.2016 00:12 2,7 C 88 % 1016,6 hPa 0,0 l/m 19,2 km/h (3 Bft) W 275 0 min 0,000 mm 0,0 UV-I 0 W/m 0,9 C -5,8 C 27,4 km/h (4 Bft) 100,00 %
24.02.2016 00:13 2,7 C 88 % 1016,6 hPa 0,0 l/m 17,9 km/h (3 Bft) W-SW 255 0 min 0,000 mm 0,0 UV-I 0 W/m 0,9 C -5,2 C 20,9 km/h (4 Bft) 96,30 %
24.02.2016 00:14 2,7 C 88 % 1016,6 hPa 0,0 l/m 11,6 km/h (2 Bft) W-SW 246 0 min 0,000 mm 0,0 UV-I 0 W/m 0,9 C -1,6 C 19,3 km/h (3 Bft) 100,00 %
24.02.2016 00:15 2,7 C 88 % 1016,6 hPa 0,0 l/m 20,8 km/h (4 Bft) W 272 0 min 0,000 mm 0,0 UV-I 0 W/m 0,9 C -6,5 C 33,8 km/h (5 Bft) 100,00 %
24.02.2016 00:16 2,7 C 88 % 1016,6 hPa 0,0 l/m 23,7 km/h (4 Bft) W-SW 258 0 min 0,000 mm 0,0 UV-I 0 W/m 0,9 C -7,6 C 32,2 km/h (5 Bft) 100,00 %
24.02.2016 00:17 2,7 C 88 % 1016,6 hPa 0,0 l/m 24,1 km/h (4 Bft) W-SW 242 0 min 0,000 mm 0,0 UV-I 0 W/m 0,9 C -7,7 C 32,2 km/h (5 Bft) 100,00 %
24.02.2016 00:18 2,7 C 88 % 1016,6 hPa 0,0 l/m 16,1 km/h (3 Bft) SW 214 0 min 0,000 mm 0,0 UV-I 0 W/m 0,9 C -4,3 C 24,1 km/h (4 Bft) 96,15 %
24.02.2016 00:19 2,7 C 88 % 1016,7 hPa 0,0 l/m 14,5 km/h (3 Bft) W-SW 243 0 min 0,000 mm 0,0 UV-I 0 W/m 0,9 C -3,4 C 17,7 km/h (3 Bft) 100,00 %
24.02.2016 00:20 2,7 C 88 % 1016,7 hPa 0,0 l/m 20,5 km/h (4 Bft) W 261 0 min 0,000 mm 0,0 UV-I 0 W/m 0,9 C -6,4 C 29,0 km/h (5 Bft) 100,00 %
24.02.2016 00:21 2,7 C 88 % 1016,7 hPa 0,0 l/m 18,8 km/h (3 Bft) W 262 0 min 0,000 mm 0,0 UV-I 0 W/m 0,9 C -5,6 C 24,1 km/h (4 Bft) 96,55 %
24.02.2016 00:22 2,7 C 88 % 1016,7 hPa 0,0 l/m 14,7 km/h (3 Bft) W-SW 255 0 min 0,000 mm 0,0 UV-I 0 W/m 0,9 C -3,5 C 22,5 km/h (4 Bft) 100,00 %
24.02.2016 00:23 2,7 C 88 % 1016,7 hPa 0,0 l/m 17,2 km/h (3 Bft) W 259 0 min 0,000 mm 0,0 UV-I 0 W/m 0,9 C -4,9 C 24,1 km/h (4 Bft) 92,86 %
24.02.2016 00:24 2,7 C 88 % 1016,7 hPa 0,0 l/m 16,2 km/h (3 Bft) SW 223 0 min 0,000 mm 0,0 UV-I 0 W/m 0,9 C -4,4 C 20,9 km/h (4 Bft) 100,00 %
24.02.2016 00:25 2,7 C 88 % 1016,7 hPa 0,0 l/m 22,8 km/h (4 Bft) W-SW 238 0 min 0,000 mm 0,0 UV-I 0 W/m 0,9 C -7,3 C 30,6 km/h (5 Bft) 100,00 %
24.02.2016 00:26 2,7 C 88 % 1016,7 hPa 0,0 l/m 21,2 km/h (4 Bft) W-SW 256 0 min 0,000 mm 0,0 UV-I 0 W/m 0,9 C -6,6 C 29,0 km/h (5 Bft) 100,00 %
24.02.2016 00:27 2,7 C 88 % 1016,7 hPa 0,0 l/m 15,5 km/h (3 Bft) W-SW 258 0 min 0,000 mm 0,0 UV-I 0 W/m 0,9 C -4,0 C 25,7 km/h (4 Bft) 96,15 %
24.02.2016 00:28 2,6 C 88 % 1016,7 hPa 0,0 l/m 18,8 km/h (3 Bft) W-SW 257 0 min 0,000 mm 0,0 UV-I 0 W/m 0,8 C -5,7 C 27,4 km/h (4 Bft) 96,30 %
24.02.2016 00:29 2,6 C 89 % 1016,7 hPa 0,0 l/m 18,7 km/h (3 Bft) W-SW 255 0 min 0,000 mm 0,0 UV-I 0 W/m 1,0 C -5,7 C 24,1 km/h (4 Bft) 100,00 %
24.02.2016 00:30 2,6 C 89 % 1016,7 hPa 0,0 l/m 18,2 km/h (3 Bft) W 261 0 min 0,000 mm 0,0 UV-I 0 W/m 1,0 C -5,5 C 22,5 km/h (4 Bft) 100,00 %
24.02.2016 00:31 2,6 C 89 % 1016,7 hPa 0,0 l/m 16,6 km/h (3 Bft) W-SW 257 0 min 0,000 mm 0,0 UV-I 0 W/m 1,0 C -4,7 C 20,9 km/h (4 Bft) 100,00 %
24.02.2016 00:32 2,6 C 89 % 1016,7 hPa 0,0 l/m 13,3 km/h (3 Bft) SW 229 0 min 0,000 mm 0,0 UV-I 0 W/m 1,0 C -2,8 C 19,3 km/h (3 Bft) 100,00 %
24.02.2016 00:33 2,6 C 89 % 1016,7 hPa 0,0 l/m 15,1 km/h (3 Bft) W 267 0 min 0,000 mm 0,0 UV-I 0 W/m 1,0 C -3,9 C 19,3 km/h (3 Bft) 100,00 %
24.02.2016 00:34 2,6 C 89 % 1016,7 hPa 0,0 l/m 18,7 km/h (3 Bft) W 267 0 min 0,000 mm 0,0 UV-I 0 W/m 1,0 C -5,7 C 24,1 km/h (4 Bft) 100,00 %
24.02.2016 00:35 2,6 C 89 % 1016,8 hPa 0,0 l/m 21,5 km/h (4 Bft) W-SW 256 0 min 0,000 mm 0,0 UV-I 0 W/m 1,0 C -6,9 C 24,1 km/h (4 Bft) 96,88 %
24.02.2016 00:36 2,6 C 89 % 1016,8 hPa 0,0 l/m 18,3 km/h (3 Bft) W-SW 241 0 min 0,000 mm 0,0 UV-I 0 W/m 1,0 C -5,5 C 24,1 km/h (4 Bft) 100,00 %
24.02.2016 00:37 2,6 C 89 % 1016,8 hPa 0,0 l/m 13,5 km/h (3 Bft) W 259 0 min 0,000 mm 0,0 UV-I 0 W/m 1,0 C -3,0 C 17,7 km/h (3 Bft) 100,00 %
24.02.2016 00:38 2,6 C 89 % 1016,8 hPa 0,0 l/m 14,9 km/h (3 Bft) W 272 0 min 0,000 mm 0,0 UV-I 0 W/m 1,0 C -3,8 C 19,3 km/h (3 Bft) 97,56 %
24.02.2016 00:39 2,6 C 89 % 1016,7 hPa 0,0 l/m 17,3 km/h (3 Bft) W-SW 257 0 min 0,000 mm 0,0 UV-I 0 W/m 1,0 C -5,0 C 24,1 km/h (4 Bft) 98,76 %
24.02.2016 00:40 2,6 C 89 % 1016,8 hPa 0,0 l/m 16,1 km/h (3 Bft) W 264 0 min 0,000 mm 0,0 UV-I 0 W/m 1,0 C -4,4 C 25,7 km/h (4 Bft) 100,00 %
24.02.2016 00:41 2,6 C 89 % 1016,9 hPa 0,0 l/m 12,5 km/h (3 Bft) W 278 0 min 0,000 mm 0,0 UV-I 0 W/m 1,0 C -2,3 C 17,7 km/h (3 Bft) 100,00 %
24.02.2016 00:42 2,6 C 89 % 1016,9 hPa 0,0 l/m 16,0 km/h (3 Bft) W 269 0 min 0,000 mm 0,0 UV-I 0 W/m 1,0 C -4,4 C 20,9 km/h (4 Bft) 97,56 %
24.02.2016 00:43 2,6 C 88 % 1016,8 hPa 0,0 l/m 15,3 km/h (3 Bft) W-NW 291 0 min 0,000 mm 0,0 UV-I 0 W/m 0,8 C -4,0 C 19,3 km/h (3 Bft) 100,00 %
24.02.2016 00:44 2,6 C 88 % 1016,8 hPa 0,0 l/m 10,1 km/h (2 Bft) S-SW 204 0 min 0,000 mm 0,0 UV-I 0 W/m 0,8 C -0,7 C 16,1 km/h (3 Bft) 100,00 %
24.02.2016 00:45 2,6 C 88 % 1016,9 hPa 0,0 l/m 16,4 km/h (3 Bft) W-SW 251 0 min 0,000 mm 0,0 UV-I 0 W/m 0,8 C -4,6 C 20,9 km/h (4 Bft) 100,00 %
24.02.2016 00:46 2,6 C 88 % 1016,9 hPa 0,0 l/m 14,5 km/h (3 Bft) W 268 0 min 0,000 mm 0,0 UV-I 0 W/m 0,8 C -3,5 C 19,3 km/h (3 Bft) 100,00 %
24.02.2016 00:47 2,6 C 88 % 1016,9 hPa 0,0 l/m 14,6 km/h (3 Bft) W 260 0 min 0,000 mm 0,0 UV-I 0 W/m 0,8 C -3,6 C 17,7 km/h (3 Bft) 100,00 %
24.02.2016 00:48 2,6 C 88 % 1016,9 hPa 0,0 l/m 15,0 km/h (3 Bft) W-SW 239 0 min 0,000 mm 0,0 UV-I 0 W/m 0,8 C -3,8 C 19,3 km/h (3 Bft) 96,15 %
24.02.2016 00:49 2,6 C 88 % 1016,9 hPa 0,0 l/m 13,3 km/h (3 Bft) W-NW 294 0 min 0,000 mm 0,0 UV-I 0 W/m 0,8 C -2,8 C 19,3 km/h (3 Bft) 100,00 %
24.02.2016 00:50 2,6 C 88 % 1016,9 hPa 0,0 l/m 11,4 km/h (2 Bft) W-SW 243 0 min 0,000 mm 0,0 UV-I 0 W/m 0,8 C -1,6 C 16,1 km/h (3 Bft) 96,15 %
24.02.2016 00:51 2,6 C 88 % 1016,9 hPa 0,0 l/m 23,5 km/h (4 Bft) W-SW 242 0 min 0,000 mm 0,0 UV-I 0 W/m 0,8 C -7,7 C 33,8 km/h (5 Bft) 96,30 %
24.02.2016 00:52 2,6 C 88 % 1016,9 hPa 0,0 l/m 17,2 km/h (3 Bft) SW 217 0 min 0,000 mm 0,0 UV-I 0 W/m 0,8 C -5,0 C 25,7 km/h (4 Bft) 100,00 %
24.02.2016 00:53 2,7 C 87 % 1016,9 hPa 0,0 l/m 15,5 km/h (3 Bft) W-SW 248 0 min 0,000 mm 0,0 UV-I 0 W/m 0,8 C -4,0 C 20,9 km/h (4 Bft) 96,55 %
24.02.2016 00:54 2,7 C 87 % 1016,9 hPa 0,0 l/m 16,3 km/h (3 Bft) W-SW 249 0 min 0,000 mm 0,0 UV-I 0 W/m 0,8 C -4,4 C 22,5 km/h (4 Bft) 100,00 %
24.02.2016 00:55 2,7 C 87 % 1016,9 hPa 0,0 l/m 15,4 km/h (3 Bft) SW 225 0 min 0,000 mm 0,0 UV-I 0 W/m 0,8 C -3,9 C 20,9 km/h (4 Bft) 95,83 %
24.02.2016 00:56 2,7 C 87 % 1016,9 hPa 0,0 l/m 14,6 km/h (3 Bft) W-SW 247 0 min 0,000 mm 0,0 UV-I 0 W/m 0,8 C -3,5 C 20,9 km/h (4 Bft) 100,00 %
24.02.2016 00:57 2,7 C 87 % 1016,9 hPa 0,0 l/m 12,8 km/h (3 Bft) W-SW 248 0 min 0,000 mm 0,0 UV-I 0 W/m 0,8 C -2,4 C 20,9 km/h (4 Bft) 95,83 %
24.02.2016 00:58 2,7 C 87 % 1016,9 hPa 0,0 l/m 16,8 km/h (3 Bft) W 277 0 min 0,000 mm 0,0 UV-I 0 W/m 0,8 C -4,7 C 20,9 km/h (4 Bft) 100,00 %
24.02.2016 00:59 2,7 C 87 % 1016,9 hPa 0,0 l/m 15,6 km/h (3 Bft) W-SW 244 0 min 0,000 mm 0,0 UV-I 0 W/m 0,8 C -4,0 C 20,9 km/h (4 Bft) 95,65 %
24.02.2016 01:00 2,7 C 87 % 1017,0 hPa 0,0 l/m 14,3 km/h (3 Bft) W-SW 258 0 min 0,000 mm 0,0 UV-I 0 W/m 0,8 C -3,3 C 19,3 km/h (3 Bft) 95,83 %
24.02.2016 01:02 2,7 C 87 % 1016,9 hPa 0,0 l/m 13,7 km/h (3 Bft) SW 233 0 min 0,025 mm 0,0 UV-I 0 W/m 0,8 C -3,0 C 29,0 km/h (5 Bft) 95,74 %
24.02.2016 01:03 2,7 C 87 % 1016,9 hPa 0,0 l/m 16,7 km/h (3 Bft) W-SW 254 0 min 0,000 mm 0,0 UV-I 0 W/m 0,8 C -4,6 C 20,9 km/h (4 Bft) 100,00 %
24.02.2016 01:04 2,7 C 87 % 1016,9 hPa 0,0 l/m 16,3 km/h (3 Bft) W-NW 291 0 min 0,000 mm 0,0 UV-I 0 W/m 0,8 C -4,4 C 25,7 km/h (4 Bft) 91,67 %
24.02.2016 01:05 2,7 C 87 % 1017,0 hPa 0,0 l/m 14,8 km/h (3 Bft) W-SW 247 0 min 0,000 mm 0,0 UV-I 0 W/m 0,8 C -3,6 C 19,3 km/h (3 Bft) 100,00 %
24.02.2016 01:06 2,7 C 87 % 1016,9 hPa 0,0 l/m 13,1 km/h (3 Bft) W-SW 256 0 min 0,000 mm 0,0 UV-I 0 W/m 0,8 C -2,6 C 19,3 km/h (3 Bft) 97,56 %
24.02.2016 01:07 2,7 C 86 % 1017,0 hPa 0,0 l/m 12,2 km/h (2 Bft) W 263 0 min 0,000 mm 0,0 UV-I 0 W/m 0,6 C -2,0 C 16,1 km/h (3 Bft) 100,00 %
24.02.2016 01:08 2,7 C 86 % 1016,9 hPa 0,0 l/m 14,6 km/h (3 Bft) W-SW 254 0 min 0,000 mm 0,0 UV-I 0 W/m 0,6 C -3,5 C 19,3 km/h (3 Bft) 96,67 %
24.02.2016 01:09 2,7 C 86 % 1016,9 hPa 0,0 l/m 17,2 km/h (3 Bft) W 273 0 min 0,000 mm 0,0 UV-I 0 W/m 0,6 C -4,9 C 22,5 km/h (4 Bft) 96,15 %
24.02.2016 01:10 2,7 C 86 % 1016,9 hPa 0,0 l/m 16,2 km/h (3 Bft) W 259 0 min 0,000 mm 0,0 UV-I 0 W/m 0,6 C -4,4 C 20,9 km/h (4 Bft) 95,83 %
24.02.2016 01:11 2,7 C 86 % 1016,9 hPa 0,0 l/m 15,1 km/h (3 Bft) W 273 0 min 0,000 mm 0,0 UV-I 0 W/m 0,6 C -3,8 C 22,5 km/h (4 Bft) 95,65 %
24.02.2016 01:12 2,7 C 86 % 1016,9 hPa 0,0 l/m 11,4 km/h (2 Bft) W 259 0 min 0,000 mm 0,0 UV-I 0 W/m 0,6 C -1,5 C 17,7 km/h (3 Bft) 100,00 %
24.02.2016 01:13 2,7 C 86 % 1016,9 hPa 0,0 l/m 8,4 km/h (2 Bft) SW 224 0 min 0,000 mm 0,0 UV-I 0 W/m 0,6 C 0,8 C 16,1 km/h (3 Bft) 83,33 %
24.02.2016 01:14 2,7 C 86 % 1017,0 hPa 0,0 l/m 13,1 km/h (3 Bft) W-SW 250 0 min 0,000 mm 0,0 UV-I 0 W/m 0,6 C -2,6 C 17,7 km/h (3 Bft) 100,00 %
24.02.2016 01:15 2,7 C 86 % 1016,9 hPa 0,0 l/m 8,9 km/h (2 Bft) W 267 0 min 0,000 mm 0,0 UV-I 0 W/m 0,6 C 0,4 C 12,9 km/h (3 Bft) 96,55 %
24.02.2016 01:16 2,7 C 86 % 1016,9 hPa 0,0 l/m 10,3 km/h (2 Bft) W-NW 284 0 min 0,000 mm 0,0 UV-I 0 W/m 0,6 C -0,7 C 16,1 km/h (3 Bft) 92,59 %
24.02.2016 01:17 2,7 C 86 % 1016,9 hPa 0,0 l/m 11,0 km/h (2 Bft) W-SW 257 0 min 0,000 mm 0,0 UV-I 0 W/m 0,6 C -1,2 C 14,5 km/h (3 Bft) 100,00 %
24.02.2016 01:18 2,7 C 86 % 1016,9 hPa 0,0 l/m 12,1 km/h (2 Bft) W-SW 252 0 min 0,000 mm 0,0 UV-I 0 W/m 0,6 C -2,0 C 14,5 km/h (3 Bft) 96,15 %
24.02.2016 01:19 2,7 C 86 % 1016,9 hPa 0,0 l/m 14,8 km/h (3 Bft) NW 322 0 min 0,000 mm 0,0 UV-I 0 W/m 0,6 C -3,6 C 17,7 km/h (3 Bft) 100,00 %
24.02.2016 01:20 2,7 C 86 % 1016,9 hPa 0,0 l/m 13,2 km/h (3 Bft) W 259 0 min 0,000 mm 0,0 UV-I 0 W/m 0,6 C -2,7 C 17,7 km/h (3 Bft) 96,15 %
24.02.2016 01:21 2,7 C 86 % 1016,9 hPa 0,0 l/m 15,6 km/h (3 Bft) W-SW 253 0 min 0,000 mm 0,0 UV-I 0 W/m 0,6 C -4,0 C 20,9 km/h (4 Bft) 100,00 %
24.02.2016 01:22 2,7 C 86 % 1016,9 hPa 0,0 l/m 9,0 km/h (2 Bft) W 279 0 min 0,000 mm 0,0 UV-I 0 W/m 0,6 C 0,3 C 14,5 km/h (3 Bft) 95,65 %
24.02.2016 01:23 2,7 C 86 % 1016,9 hPa 0,0 l/m 9,4 km/h (2 Bft) W-SW 242 0 min 0,000 mm 0,0 UV-I 0 W/m 0,6 C 0,0 C 12,9 km/h (3 Bft) 100,00 %
24.02.2016 01:24 2,7 C 86 % 1016,9 hPa 0,0 l/m 10,3 km/h (2 Bft) W-NW 298 0 min 0,000 mm 0,0 UV-I 0 W/m 0,6 C -0,7 C 16,1 km/h (3 Bft) 95,65 %
24.02.2016 01:25 2,7 C 86 % 1016,8 hPa 0,0 l/m 14,1 km/h (3 Bft) W-SW 238 0 min 0,000 mm 0,0 UV-I 0 W/m 0,6 C -3,2 C 22,5 km/h (4 Bft) 100,00 %
24.02.2016 01:26 2,7 C 86 % 1016,8 hPa 0,0 l/m 11,2 km/h (2 Bft) W-SW 244 0 min 0,000 mm 0,0 UV-I 0 W/m 0,6 C -1,3 C 16,1 km/h (3 Bft) 100,00 %
24.02.2016 01:27 2,7 C 86 % 1016,8 hPa 0,0 l/m 13,3 km/h (3 Bft) W 271 0 min 0,000 mm 0,0 UV-I 0 W/m 0,6 C -2,7 C 20,9 km/h (4 Bft) 100,00 %
24.02.2016 01:28 2,7 C 86 % 1016,8 hPa 0,0 l/m 11,6 km/h (2 Bft) W 264 0 min 0,000 mm 0,0 UV-I 0 W/m 0,6 C -1,6 C 16,1 km/h (3 Bft) 100,00 %
24.02.2016 01:29 2,7 C 86 % 1016,8 hPa 0,0 l/m 10,2 km/h (2 Bft) W 274 0 min 0,000 mm 0,0 UV-I 0 W/m 0,6 C -0,6 C 14,5 km/h (3 Bft) 100,00 %
24.02.2016 01:30 2,7 C 86 % 1016,8 hPa 0,0 l/m 6,8 km/h (2 Bft) W-SW 254 0 min 0,000 mm 0,0 UV-I 0 W/m 0,6 C 2,3 C 11,3 km/h (2 Bft) 100,00 %
24.02.2016 01:31 2,7 C 86 % 1016,9 hPa 0,0 l/m 9,2 km/h (2 Bft) W 272 0 min 0,000 mm 0,0 UV-I 0 W/m 0,6 C 0,2 C 12,9 km/h (3 Bft) 100,00 %
24.02.2016 01:32 2,7 C 86 % 1016,9 hPa 0,0 l/m 7,6 km/h (2 Bft) W-SW 250 0 min 0,000 mm 0,0 UV-I 0 W/m 0,6 C 1,6 C 12,9 km/h (3 Bft) 100,00 %
24.02.2016 01:33 2,7 C 86 % 1016,9 hPa 0,0 l/m 9,4 km/h (2 Bft) W 263 0 min 0,000 mm 0,0 UV-I 0 W/m 0,6 C 0,0 C 16,1 km/h (3 Bft) 95,83 %
24.02.2016 01:34 2,6 C 86 % 1016,9 hPa 0,0 l/m 12,6 km/h (3 Bft) W 269 0 min 0,000 mm 0,0 UV-I 0 W/m 0,5 C -2,4 C 17,7 km/h (3 Bft) 100,00 %
24.02.2016 01:35 2,6 C 86 % 1016,9 hPa 0,0 l/m 10,7 km/h (2 Bft) W-NW 282 0 min 0,000 mm 0,0 UV-I 0 W/m 0,5 C -1,1 C 16,1 km/h (3 Bft) 100,00 %
24.02.2016 01:36 2,6 C 85 % 1016,9 hPa 0,0 l/m 10,3 km/h (2 Bft) W-NW 296 0 min 0,000 mm 0,0 UV-I 0 W/m 0,3 C -0,8 C 17,7 km/h (3 Bft) 100,00 %
24.02.2016 01:37 2,6 C 85 % 1016,9 hPa 0,0 l/m 18,3 km/h (3 Bft) W-SW 251 0 min 0,000 mm 0,0 UV-I 0 W/m 0,3 C -5,5 C 22,5 km/h (4 Bft) 100,00 %
24.02.2016 01:38 2,6 C 85 % 1016,9 hPa 0,0 l/m 15,0 km/h (3 Bft) W 261 0 min 0,000 mm 0,0 UV-I 0 W/m 0,3 C -3,8 C 19,3 km/h (3 Bft) 100,00 %
24.02.2016 01:39 2,6 C 85 % 1016,9 hPa 0,0 l/m 10,2 km/h (2 Bft) W-SW 258 0 min 0,000 mm 0,0 UV-I 0 W/m 0,3 C -0,7 C 14,5 km/h (3 Bft) 95,65 %
24.02.2016 01:40 2,7 C 85 % 1016,9 hPa 0,0 l/m 8,4 km/h (2 Bft) W-SW 246 0 min 0,000 mm 0,0 UV-I 0 W/m 0,4 C 0,8 C 11,3 km/h (2 Bft) 100,00 %
24.02.2016 01:41 2,7 C 86 % 1016,9 hPa 0,0 l/m 9,4 km/h (2 Bft) W 281 0 min 0,000 mm 0,0 UV-I 0 W/m 0,6 C 0,0 C 16,1 km/h (3 Bft) 100,00 %
24.02.2016 01:42 2,6 C 85 % 1016,9 hPa 0,0 l/m 9,3 km/h (2 Bft) W-SW 254 0 min 0,000 mm 0,0 UV-I 0 W/m 0,3 C -0,0 C 12,9 km/h (3 Bft) 100,00 %
24.02.2016 01:43 2,6 C 85 % 1017,0 hPa 0,0 l/m 6,9 km/h (2 Bft) W 265 0 min 0,000 mm 0,0 UV-I 0 W/m 0,3 C 2,1 C 11,3 km/h (2 Bft) 100,00 %
24.02.2016 01:44 2,6 C 85 % 1017,0 hPa 0,0 l/m 8,0 km/h (2 Bft) W 266 0 min 0,000 mm 0,0 UV-I 0 W/m 0,3 C 1,1 C 11,3 km/h (2 Bft) 96,30 %
24.02.2016 01:45 2,6 C 85 % 1016,9 hPa 0,0 l/m 5,6 km/h (1 Bft) W 260 0 min 0,000 mm 0,0 UV-I 0 W/m 0,3 C 2,6 C 12,9 km/h (3 Bft) 91,30 %
24.02.2016 01:46 2,6 C 85 % 1017,0 hPa 0,0 l/m 8,4 km/h (2 Bft) W-SW 250 0 min 0,000 mm 0,0 UV-I 0 W/m 0,3 C 0,7 C 12,9 km/h (3 Bft) 100,00 %
24.02.2016 01:47 2,6 C 86 % 1016,9 hPa 0,0 l/m 7,2 km/h (2 Bft) W-SW 244 0 min 0,000 mm 0,0 UV-I 0 W/m 0,5 C 1,8 C 9,7 km/h (2 Bft) 100,00 %
24.02.2016 01:48 2,6 C 86 % 1016,9 hPa 0,0 l/m 6,4 km/h (2 Bft) W 262 0 min 0,000 mm 0,0 UV-I 0 W/m 0,5 C 2,6 C 8,0 km/h (2 Bft) 100,00 %
24.02.2016 01:49 2,6 C 86 % 1017,0 hPa 0,0 l/m 6,9 km/h (2 Bft) W-SW 255 0 min 0,000 mm 0,0 UV-I 0 W/m 0,5 C 2,1 C 11,3 km/h (2 Bft) 100,00 %
24.02.2016 01:50 2,6 C 85 % 1016,9 hPa 0,0 l/m 14,1 km/h (3 Bft) W-SW 258 0 min 0,000 mm 0,0 UV-I 0 W/m 0,3 C -3,3 C 24,1 km/h (4 Bft) 100,00 %
24.02.2016 01:51 2,6 C 85 % 1017,0 hPa 0,0 l/m 10,3 km/h (2 Bft) W-NW 292 0 min 0,000 mm 0,0 UV-I 0 W/m 0,3 C -0,8 C 14,5 km/h (3 Bft) 100,00 %
24.02.2016 01:52 2,6 C 85 % 1016,9 hPa 0,0 l/m 9,2 km/h (2 Bft) W-SW 253 0 min 0,000 mm 0,0 UV-I 0 W/m 0,3 C 0,1 C 12,9 km/h (3 Bft) 100,00 %
24.02.2016 01:53 2,6 C 85 % 1017,0 hPa 0,0 l/m 7,4 km/h (2 Bft) W-SW 245 0 min 0,000 mm 0,0 UV-I 0 W/m 0,3 C 1,6 C 11,3 km/h (2 Bft) 100,00 %
24.02.2016 01:54 2,6 C 85 % 1017,0 hPa 0,0 l/m 12,0 km/h (2 Bft) W 269 0 min 0,000 mm 0,0 UV-I 0 W/m 0,3 C -2,0 C 17,7 km/h (3 Bft) 100,00 %
24.02.2016 01:55 2,6 C 85 % 1016,9 hPa 0,0 l/m 10,6 km/h (2 Bft) W-SW 257 0 min 0,000 mm 0,0 UV-I 0 W/m 0,3 C -1,0 C 14,5 km/h (3 Bft) 100,00 %
24.02.2016 01:56 2,6 C 85 % 1017,0 hPa 0,0 l/m 11,2 km/h (2 Bft) W-SW 251 0 min 0,000 mm 0,0 UV-I 0 W/m 0,3 C -1,5 C 14,5 km/h (3 Bft) 95,83 %
24.02.2016 01:57 2,6 C 85 % 1016,9 hPa 0,0 l/m 7,8 km/h (2 Bft) W 262 0 min 0,000 mm 0,0 UV-I 0 W/m 0,3 C 1,3 C 11,3 km/h (2 Bft) 100,00 %
24.02.2016 01:58 2,6 C 85 % 1017,0 hPa 0,0 l/m 7,2 km/h (2 Bft) W-SW 248 0 min 0,000 mm 0,0 UV-I 0 W/m 0,3 C 1,8 C 11,3 km/h (2 Bft) 100,00 %
24.02.2016 01:59 2,6 C 85 % 1016,9 hPa 0,0 l/m 12,5 km/h (3 Bft) W 275 0 min 0,000 mm 0,0 UV-I 0 W/m 0,3 C -2,3 C 19,3 km/h (3 Bft) 100,00 %
24.02.2016 02:00 2,6 C 85 % 1016,9 hPa 0,0 l/m 13,1 km/h (3 Bft) W 269 0 min 0,000 mm 0,0 UV-I 0 W/m 0,3 C -2,7 C 19,3 km/h (3 Bft) 95,65 %
24.02.2016 02:01 2,6 C 85 % 1016,9 hPa 0,0 l/m 11,1 km/h (2 Bft) W 262 0 min 0,026 mm 0,0 UV-I 0 W/m 0,3 C -1,4 C 17,7 km/h (3 Bft) 100,00 %
24.02.2016 02:02 2,6 C 85 % 1016,9 hPa 0,0 l/m 14,4 km/h (3 Bft) W-SW 246 0 min 0,000 mm 0,0 UV-I 0 W/m 0,3 C -3,5 C 20,9 km/h (4 Bft) 100,00 %
24.02.2016 02:03 2,6 C 85 % 1016,9 hPa 0,0 l/m 13,1 km/h (3 Bft) W 271 0 min 0,000 mm 0,0 UV-I 0 W/m 0,3 C -2,7 C 16,1 km/h (3 Bft) 96,67 %
24.02.2016 02:04 2,6 C 85 % 1016,9 hPa 0,0 l/m 15,2 km/h (3 Bft) W-SW 244 0 min 0,000 mm 0,0 UV-I 0 W/m 0,3 C -3,9 C 22,5 km/h (4 Bft) 100,00 %
24.02.2016 02:05 2,6 C 85 % 1016,9 hPa 0,0 l/m 16,3 km/h (3 Bft) W 267 0 min 0,000 mm 0,0 UV-I 0 W/m 0,3 C -4,5 C 20,9 km/h (4 Bft) 100,00 %
24.02.2016 02:06 2,6 C 85 % 1016,9 hPa 0,0 l/m 11,7 km/h (2 Bft) W-SW 248 0 min 0,000 mm 0,0 UV-I 0 W/m 0,3 C -1,8 C 17,7 km/h (3 Bft) 100,00 %
24.02.2016 02:07 2,6 C 84 % 1016,9 hPa 0,0 l/m 9,3 km/h (2 Bft) W 279 0 min 0,000 mm 0,0 UV-I 0 W/m 0,2 C -0,0 C 12,9 km/h (3 Bft) 100,00 %
24.02.2016 02:08 2,6 C 84 % 1016,9 hPa 0,0 l/m 14,3 km/h (3 Bft) W-SW 250 0 min 0,000 mm 0,0 UV-I 0 W/m 0,2 C -3,4 C 19,3 km/h (3 Bft) 100,00 %
24.02.2016 02:09 2,6 C 85 % 1016,9 hPa 0,0 l/m 14,3 km/h (3 Bft) W 262 0 min 0,000 mm 0,0 UV-I 0 W/m 0,3 C -3,4 C 20,9 km/h (4 Bft) 100,00 %
24.02.2016 02:10 2,6 C 85 % 1016,9 hPa 0,0 l/m 13,1 km/h (3 Bft) W-SW 239 0 min 0,000 mm 0,0 UV-I 0 W/m 0,3 C -2,7 C 19,3 km/h (3 Bft) 95,65 %
24.02.2016 02:11 2,6 C 85 % 1016,9 hPa 0,0 l/m 12,8 km/h (3 Bft) W-NW 296 0 min 0,000 mm 0,0 UV-I 0 W/m 0,3 C -2,5 C 19,3 km/h (3 Bft) 95,83 %
24.02.2016 02:12 2,6 C 85 % 1016,9 hPa 0,0 l/m 11,7 km/h (2 Bft) W 271 0 min 0,000 mm 0,0 UV-I 0 W/m 0,3 C -1,8 C 16,1 km/h (3 Bft) 100,00 %
24.02.2016 02:13 2,6 C 85 % 1016,9 hPa 0,0 l/m 8,9 km/h (2 Bft) W-SW 257 0 min 0,000 mm 0,0 UV-I 0 W/m 0,3 C 0,3 C 12,9 km/h (3 Bft) 100,00 %
24.02.2016 02:14 2,6 C 85 % 1016,9 hPa 0,0 l/m 12,6 km/h (3 Bft) W 277 0 min 0,000 mm 0,0 UV-I 0 W/m 0,3 C -2,4 C 14,5 km/h (3 Bft) 100,00 %
24.02.2016 02:15 2,6 C 85 % 1016,9 hPa 0,0 l/m 10,5 km/h (2 Bft) W-SW 244 0 min 0,000 mm 0,0 UV-I 0 W/m 0,3 C -1,0 C 14,5 km/h (3 Bft) 100,00 %
24.02.2016 02:16 2,6 C 85 % 1016,9 hPa 0,0 l/m 12,0 km/h (2 Bft) W-SW 253 0 min 0,000 mm 0,0 UV-I 0 W/m 0,3 C -2,0 C 17,7 km/h (3 Bft) 92,59 %
24.02.2016 02:17 2,6 C 85 % 1016,9 hPa 0,0 l/m 10,0 km/h (2 Bft) W 274 0 min 0,000 mm 0,0 UV-I 0 W/m 0,3 C -0,6 C 12,9 km/h (3 Bft) 100,00 %
24.02.2016 02:18 2,6 C 85 % 1016,9 hPa 0,0 l/m 9,2 km/h (2 Bft) W-SW 244 0 min 0,000 mm 0,0 UV-I 0 W/m 0,3 C 0,1 C 11,3 km/h (2 Bft) 96,15 %
24.02.2016 02:19 2,6 C 86 % 1016,9 hPa 0,0 l/m 13,2 km/h (3 Bft) W-SW 256 0 min 0,000 mm 0,0 UV-I 0 W/m 0,5 C -2,8 C 16,1 km/h (3 Bft) 100,00 %
24.02.2016 02:20 2,6 C 86 % 1016,9 hPa 0,0 l/m 10,9 km/h (2 Bft) W-SW 244 0 min 0,000 mm 0,0 UV-I 0 W/m 0,5 C -1,2 C 12,9 km/h (3 Bft) 100,00 %
24.02.2016 02:21 2,5 C 86 % 1017,0 hPa 0,0 l/m 12,4 km/h (3 Bft) SW 235 0 min 0,000 mm 0,0 UV-I 0 W/m 0,4 C -2,4 C 17,7 km/h (3 Bft) 100,00 %
24.02.2016 02:22 2,5 C 86 % 1016,9 hPa 0,0 l/m 17,2 km/h (3 Bft) W-SW 257 0 min 0,000 mm 0,0 UV-I 0 W/m 0,4 C -5,1 C 24,1 km/h (4 Bft) 100,00 %
24.02.2016 02:23 2,4 C 86 % 1017,0 hPa 0,0 l/m 17,8 km/h (3 Bft) W-SW 246 0 min 0,000 mm 0,0 UV-I 0 W/m 0,3 C -5,5 C 22,5 km/h (4 Bft) 100,00 %
24.02.2016 02:24 2,4 C 87 % 1017,0 hPa 0,0 l/m 18,1 km/h (3 Bft) W 261 0 min 0,000 mm 0,0 UV-I 0 W/m 0,5 C -5,7 C 27,4 km/h (4 Bft) 100,00 %
24.02.2016 02:25 2,3 C 87 % 1016,9 hPa 0,0 l/m 16,7 km/h (3 Bft) W-SW 242 0 min 0,000 mm 0,0 UV-I 0 W/m 0,4 C -5,1 C 25,7 km/h (4 Bft) 100,00 %
24.02.2016 02:26 2,2 C 87 % 1017,0 hPa 0,0 l/m 18,9 km/h (3 Bft) SW 236 0 min 0,000 mm 0,0 UV-I 0 W/m 0,3 C -6,3 C 25,7 km/h (4 Bft) 100,00 %
24.02.2016 02:27 2,2 C 88 % 1017,0 hPa 0,0 l/m 15,6 km/h (3 Bft) W-SW 257 0 min 0,000 mm 0,0 UV-I 0 W/m 0,4 C -4,6 C 25,7 km/h (4 Bft) 100,00 %
24.02.2016 02:28 2,1 C 88 % 1017,0 hPa 0,0 l/m 19,4 km/h (3 Bft) W-SW 238 0 min 0,000 mm 0,0 UV-I 0 W/m 0,3 C -6,7 C 24,1 km/h (4 Bft) 100,00 %
24.02.2016 02:29 2,0 C 88 % 1017,0 hPa 0,0 l/m 16,3 km/h (3 Bft) S-SW 211 0 min 0,000 mm 0,0 UV-I 0 W/m 0,2 C -5,3 C 22,5 km/h (4 Bft) 100,00 %
24.02.2016 02:30 1,9 C 89 % 1017,0 hPa 0,0 l/m 20,6 km/h (4 Bft) SW 219 0 min 0,000 mm 0,0 UV-I 0 W/m 0,3 C -7,4 C 25,7 km/h (4 Bft) 100,00 %
24.02.2016 02:31 1,8 C 89 % 1017,0 hPa 0,0 l/m 19,6 km/h (3 Bft) SW 235 0 min 0,000 mm 0,0 UV-I 0 W/m 0,2 C -7,1 C 27,4 km/h (4 Bft) 100,00 %
24.02.2016 02:32 1,8 C 89 % 1017,0 hPa 0,0 l/m 21,2 km/h (4 Bft) SW 227 0 min 0,000 mm 0,0 UV-I 0 W/m 0,2 C -7,8 C 29,0 km/h (5 Bft) 100,00 %
24.02.2016 02:33 1,7 C 90 % 1017,0 hPa 0,0 l/m 18,1 km/h (3 Bft) W-SW 250 0 min 0,000 mm 0,0 UV-I 0 W/m 0,2 C -6,6 C 22,5 km/h (4 Bft) 100,00 %
24.02.2016 02:34 1,6 C 90 % 1017,1 hPa 0,0 l/m 21,9 km/h (4 Bft) SW 225 0 min 0,000 mm 0,0 UV-I 0 W/m 0,1 C -8,4 C 29,0 km/h (5 Bft) 100,00 %
24.02.2016 02:35 1,6 C 90 % 1017,0 hPa 0,0 l/m 17,2 km/h (3 Bft) W 263 0 min 0,000 mm 0,0 UV-I 0 W/m 0,1 C -6,2 C 20,9 km/h (4 Bft) 100,00 %
24.02.2016 02:36 1,4 C 90 % 1017,1 hPa 0,0 l/m 15,2 km/h (3 Bft) W-SW 257 0 min 0,000 mm 0,0 UV-I 0 W/m -0,1 C -5,4 C 20,9 km/h (4 Bft) 100,00 %
24.02.2016 02:37 1,4 C 91 % 1017,0 hPa 0,0 l/m 21,8 km/h (4 Bft) W-SW 250 0 min 0,000 mm 0,0 UV-I 0 W/m 0,1 C -8,6 C 29,0 km/h (5 Bft) 100,00 %
24.02.2016 02:38 1,3 C 91 % 1017,0 hPa 0,0 l/m 18,4 km/h (3 Bft) W-SW 246 0 min 0,000 mm 0,0 UV-I 0 W/m -0,0 C -7,2 C 24,1 km/h (4 Bft) 100,00 %
24.02.2016 02:39 1,3 C 91 % 1017,0 hPa 0,0 l/m 21,6 km/h (4 Bft) W 267 0 min 0,000 mm 0,0 UV-I 0 W/m -0,0 C -8,6 C 25,7 km/h (4 Bft) 100,00 %
24.02.2016 02:40 1,3 C 91 % 1017,0 hPa 0,0 l/m 16,3 km/h (3 Bft) W-SW 239 0 min 0,000 mm 0,0 UV-I 0 W/m -0,0 C -6,1 C 20,9 km/h (4 Bft) 96,55 %
24.02.2016 02:41 1,2 C 91 % 1016,9 hPa 0,0 l/m 16,3 km/h (3 Bft) S-SW 211 0 min 0,000 mm 0,0 UV-I 0 W/m -0,1 C -6,3 C 24,1 km/h (4 Bft) 100,00 %
24.02.2016 02:42 1,2 C 92 % 1017,0 hPa 0,0 l/m 15,1 km/h (3 Bft) W-SW 254 0 min 0,000 mm 0,0 UV-I 0 W/m 0,0 C -5,6 C 19,3 km/h (3 Bft) 98,65 %
24.02.2016 02:43 1,2 C 92 % 1017,0 hPa 0,0 l/m 16,6 km/h (3 Bft) W-SW 246 0 min 0,000 mm 0,0 UV-I 0 W/m 0,0 C -6,4 C 22,5 km/h (4 Bft) 97,73 %
24.02.2016 02:44 1,2 C 92 % 1017,0 hPa 0,0 l/m 18,2 km/h (3 Bft) W 269 0 min 0,000 mm 0,0 UV-I 0 W/m 0,0 C -7,2 C 24,1 km/h (4 Bft) 100,00 %
24.02.2016 02:45 1,2 C 92 % 1017,0 hPa 0,0 l/m 16,3 km/h (3 Bft) W-SW 242 0 min 0,000 mm 0,0 UV-I 0 W/m 0,0 C -6,3 C 24,1 km/h (4 Bft) 100,00 %
24.02.2016 02:46 1,2 C 92 % 1016,9 hPa 0,0 l/m 17,2 km/h (3 Bft) SW 230 0 min 0,000 mm 0,0 UV-I 0 W/m 0,0 C -6,7 C 22,5 km/h (4 Bft) 100,00 %
24.02.2016 02:47 1,2 C 92 % 1017,0 hPa 0,0 l/m 19,4 km/h (3 Bft) W-SW 240 0 min 0,000 mm 0,0 UV-I 0 W/m 0,0 C -7,8 C 24,1 km/h (4 Bft) 100,00 %
24.02.2016 02:48 1,2 C 92 % 1016,9 hPa 0,0 l/m 15,1 km/h (3 Bft) SW 232 0 min 0,000 mm 0,0 UV-I 0 W/m 0,0 C -5,6 C 19,3 km/h (3 Bft) 100,00 %
24.02.2016 02:49 1,2 C 93 % 1017,0 hPa 0,2 l/m 18,9 km/h (3 Bft) W-SW 248 0 min 0,000 mm 0,0 UV-I 0 W/m 0,2 C -7,6 C 22,5 km/h (4 Bft) 100,00 %
24.02.2016 02:50 1,2 C 93 % 1017,0 hPa 0,0 l/m 15,9 km/h (3 Bft) S-SW 210 0 min 0,000 mm 0,0 UV-I 0 W/m 0,2 C -6,0 C 19,3 km/h (3 Bft) 100,00 %
24.02.2016 02:51 1,2 C 93 % 1016,9 hPa 0,0 l/m 15,4 km/h (3 Bft) SW 236 0 min 0,000 mm 0,0 UV-I 0 W/m 0,2 C -5,8 C 20,9 km/h (4 Bft) 100,00 %
24.02.2016 02:52 1,2 C 93 % 1016,9 hPa 0,0 l/m 15,7 km/h (3 Bft) W-SW 240 0 min 0,000 mm 0,0 UV-I 0 W/m 0,2 C -5,9 C 20,9 km/h (4 Bft) 100,00 %
24.02.2016 02:53 1,1 C 93 % 1016,9 hPa 0,0 l/m 12,2 km/h (2 Bft) W 269 0 min 0,000 mm 0,0 UV-I 0 W/m 0,1 C -3,9 C 17,7 km/h (3 Bft) 96,30 %
24.02.2016 02:54 1,1 C 93 % 1016,9 hPa 0,0 l/m 12,3 km/h (3 Bft) SW 228 0 min 0,000 mm 0,0 UV-I 0 W/m 0,1 C -3,9 C 17,7 km/h (3 Bft) 93,33 %
24.02.2016 02:55 1,1 C 93 % 1016,9 hPa 0,0 l/m 14,1 km/h (3 Bft) S-SW 213 0 min 0,000 mm 0,0 UV-I 0 W/m 0,1 C -5,1 C 17,7 km/h (3 Bft) 92,31 %
24.02.2016 02:56 1,1 C 93 % 1016,9 hPa 0,0 l/m 15,2 km/h (3 Bft) W-SW 240 0 min 0,000 mm 0,0 UV-I 0 W/m 0,1 C -5,8 C 17,7 km/h (3 Bft) 100,00 %
24.02.2016 02:57 1,1 C 93 % 1016,9 hPa 0,0 l/m 16,8 km/h (3 Bft) SW 221 0 min 0,000 mm 0,0 UV-I 0 W/m 0,1 C -6,6 C 24,1 km/h (4 Bft) 95,83 %
24.02.2016 02:58 1,1 C 93 % 1016,8 hPa 0,0 l/m 13,5 km/h (3 Bft) SW 220 0 min 0,000 mm 0,0 UV-I 0 W/m 0,1 C -4,7 C 19,3 km/h (3 Bft) 100,00 %
24.02.2016 02:59 1,1 C 93 % 1016,8 hPa 0,0 l/m 13,8 km/h (3 Bft) W-SW 243 0 min 0,000 mm 0,0 UV-I 0 W/m 0,1 C -4,9 C 17,7 km/h (3 Bft) 90,91 %
24.02.2016 03:00 1,1 C 93 % 1016,8 hPa 0,0 l/m 13,7 km/h (3 Bft) SW 235 0 min 0,000 mm 0,0 UV-I 0 W/m 0,1 C -4,9 C 17,7 km/h (3 Bft) 96,30 %
24.02.2016 03:01 1,1 C 93 % 1016,8 hPa 0,0 l/m 12,2 km/h (2 Bft) W 262 0 min 0,025 mm 0,0 UV-I 0 W/m 0,1 C -3,9 C 16,1 km/h (3 Bft) 91,30 %
24.02.2016 03:02 1,1 C 93 % 1016,8 hPa 0,0 l/m 13,3 km/h (3 Bft) W-SW 238 0 min 0,000 mm 0,0 UV-I 0 W/m 0,1 C -4,6 C 19,3 km/h (3 Bft) 96,30 %
24.02.2016 03:03 1,1 C 93 % 1016,8 hPa 0,0 l/m 11,7 km/h (2 Bft) SW 232 0 min 0,000 mm 0,0 UV-I 0 W/m 0,1 C -3,5 C 19,3 km/h (3 Bft) 100,00 %
24.02.2016 03:04 1,1 C 93 % 1016,8 hPa 0,0 l/m 11,1 km/h (2 Bft) SW 225 0 min 0,000 mm 0,0 UV-I 0 W/m 0,1 C -3,1 C 16,1 km/h (3 Bft) 96,30 %
24.02.2016 03:05 1,1 C 93 % 1016,8 hPa 0,0 l/m 12,9 km/h (3 Bft) W-SW 257 0 min 0,000 mm 0,0 UV-I 0 W/m 0,1 C -4,3 C 19,3 km/h (3 Bft) 100,00 %
24.02.2016 03:06 1,1 C 93 % 1016,8 hPa 0,0 l/m 14,0 km/h (3 Bft) W-SW 240 0 min 0,000 mm 0,0 UV-I 0 W/m 0,1 C -5,0 C 19,3 km/h (3 Bft) 97,62 %
24.02.2016 03:07 1,1 C 93 % 1016,8 hPa 0,0 l/m 14,6 km/h (3 Bft) SW 225 0 min 0,000 mm 0,0 UV-I 0 W/m 0,1 C -5,4 C 19,3 km/h (3 Bft) 100,00 %
24.02.2016 03:08 1,1 C 93 % 1016,8 hPa 0,0 l/m 11,3 km/h (2 Bft) SW 220 0 min 0,000 mm 0,0 UV-I 0 W/m 0,1 C -3,2 C 16,1 km/h (3 Bft) 95,83 %
24.02.2016 03:09 1,1 C 93 % 1016,8 hPa 0,0 l/m 8,0 km/h (2 Bft) SW 233 0 min 0,000 mm 0,0 UV-I 0 W/m 0,1 C -0,5 C 9,7 km/h (2 Bft) 100,00 %
24.02.2016 03:10 1,1 C 93 % 1016,8 hPa 0,0 l/m 10,9 km/h (2 Bft) W-SW 252 0 min 0,000 mm 0,0 UV-I 0 W/m 0,1 C -2,9 C 14,5 km/h (3 Bft) 97,14 %
24.02.2016 03:11 1,1 C 93 % 1016,8 hPa 0,0 l/m 12,4 km/h (3 Bft) SW 234 0 min 0,000 mm 0,0 UV-I 0 W/m 0,1 C -4,0 C 16,1 km/h (3 Bft) 95,65 %
24.02.2016 03:12 1,1 C 93 % 1016,8 hPa 0,0 l/m 10,7 km/h (2 Bft) W-SW 247 0 min 0,000 mm 0,0 UV-I 0 W/m 0,1 C -2,8 C 17,7 km/h (3 Bft) 96,30 %
24.02.2016 03:13 1,1 C 93 % 1016,8 hPa 0,0 l/m 12,6 km/h (3 Bft) SW 232 0 min 0,000 mm 0,0 UV-I 0 W/m 0,1 C -4,1 C 16,1 km/h (3 Bft) 96,15 %
24.02.2016 03:14 1,1 C 93 % 1016,8 hPa 0,0 l/m 10,8 km/h (2 Bft) W-SW 253 0 min 0,000 mm 0,0 UV-I 0 W/m 0,1 C -2,9 C 16,1 km/h (3 Bft) 100,00 %
24.02.2016 03:15 1,1 C 93 % 1016,8 hPa 0,0 l/m 10,9 km/h (2 Bft) W 261 0 min 0,000 mm 0,0 UV-I 0 W/m 0,1 C -2,9 C 16,1 km/h (3 Bft) 96,55 %
24.02.2016 03:16 1,1 C 93 % 1016,8 hPa 0,0 l/m 8,1 km/h (2 Bft) W-SW 246 0 min 0,000 mm 0,0 UV-I 0 W/m 0,1 C -0,6 C 12,9 km/h (3 Bft) 96,30 %
24.02.2016 03:17 1,1 C 93 % 1016,8 hPa 0,0 l/m 9,6 km/h (2 Bft) W-SW 253 0 min 0,000 mm 0,0 UV-I 0 W/m 0,1 C -1,9 C 12,9 km/h (3 Bft) 100,00 %
24.02.2016 03:18 1,1 C 93 % 1016,8 hPa 0,0 l/m 8,3 km/h (2 Bft) W-SW 258 0 min 0,000 mm 0,0 UV-I 0 W/m 0,1 C -0,8 C 12,9 km/h (3 Bft) 100,00 %
24.02.2016 03:19 1,1 C 93 % 1016,8 hPa 0,0 l/m 8,0 km/h (2 Bft) W 269 0 min 0,000 mm 0,0 UV-I 0 W/m 0,1 C -0,5 C 12,9 km/h (3 Bft) 96,30 %
24.02.2016 03:20 1,1 C 93 % 1016,8 hPa 0,0 l/m 7,9 km/h (2 Bft) W 264 0 min 0,000 mm 0,0 UV-I 0 W/m 0,1 C -0,4 C 11,3 km/h (2 Bft) 92,31 %
24.02.2016 03:21 1,1 C 93 % 1016,8 hPa 0,0 l/m 7,9 km/h (2 Bft) W-SW 256 0 min 0,000 mm 0,0 UV-I 0 W/m 0,1 C -0,4 C 11,3 km/h (2 Bft) 100,00 %
24.02.2016 03:22 1,1 C 93 % 1016,8 hPa 0,0 l/m 13,6 km/h (3 Bft) W-NW 302 0 min 0,000 mm 0,0 UV-I 0 W/m 0,1 C -4,8 C 20,9 km/h (4 Bft) 92,86 %
24.02.2016 03:23 1,1 C 93 % 1016,8 hPa 0,0 l/m 10,3 km/h (2 Bft) W 261 0 min 0,000 mm 0,0 UV-I 0 W/m 0,1 C -2,5 C 14,5 km/h (3 Bft) 100,00 %
24.02.2016 03:24 1,1 C 93 % 1016,8 hPa 0,0 l/m 10,7 km/h (2 Bft) W-SW 256 0 min 0,000 mm 0,0 UV-I 0 W/m 0,1 C -2,8 C 16,1 km/h (3 Bft) 97,37 %
24.02.2016 03:25 1,2 C 93 % 1016,8 hPa 0,0 l/m 8,5 km/h (2 Bft) W 273 0 min 0,000 mm 0,0 UV-I 0 W/m 0,2 C -0,8 C 14,5 km/h (3 Bft) 100,00 %
24.02.2016 03:26 1,1 C 93 % 1016,8 hPa 0,0 l/m 9,7 km/h (2 Bft) W 265 0 min 0,000 mm 0,0 UV-I 0 W/m 0,1 C -2,0 C 14,5 km/h (3 Bft) 96,15 %
24.02.2016 03:27 1,1 C 93 % 1016,8 hPa 0,0 l/m 11,5 km/h (2 Bft) W 267 0 min 0,000 mm 0,0 UV-I 0 W/m 0,1 C -3,4 C 14,5 km/h (3 Bft) 100,00 %
24.02.2016 03:28 1,2 C 93 % 1016,8 hPa 0,0 l/m 11,4 km/h (2 Bft) W-SW 253 0 min 0,000 mm 0,0 UV-I 0 W/m 0,2 C -3,2 C 16,1 km/h (3 Bft) 100,00 %
24.02.2016 03:29 1,2 C 93 % 1016,8 hPa 0,0 l/m 10,2 km/h (2 Bft) W-SW 256 0 min 0,000 mm 0,0 UV-I 0 W/m 0,2 C -2,3 C 12,9 km/h (3 Bft) 96,30 %
24.02.2016 03:30 1,2 C 93 % 1016,8 hPa 0,0 l/m 9,5 km/h (2 Bft) W 266 0 min 0,000 mm 0,0 UV-I 0 W/m 0,2 C -1,7 C 14,5 km/h (3 Bft) 100,00 %
24.02.2016 03:31 1,2 C 93 % 1016,8 hPa 0,0 l/m 8,0 km/h (2 Bft) W-SW 245 0 min 0,000 mm 0,0 UV-I 0 W/m 0,2 C -0,4 C 12,9 km/h (3 Bft) 100,00 %
24.02.2016 03:32 1,2 C 93 % 1016,8 hPa 0,0 l/m 8,0 km/h (2 Bft) W 268 0 min 0,000 mm 0,0 UV-I 0 W/m 0,2 C -0,4 C 14,5 km/h (3 Bft) 100,00 %
24.02.2016 03:33 1,2 C 93 % 1016,8 hPa 0,0 l/m 10,8 km/h (2 Bft) W 266 0 min 0,000 mm 0,0 UV-I 0 W/m 0,2 C -2,7 C 14,5 km/h (3 Bft) 96,67 %
24.02.2016 03:34 1,2 C 93 % 1016,8 hPa 0,0 l/m 7,7 km/h (2 Bft) W 259 0 min 0,000 mm 0,0 UV-I 0 W/m 0,2 C -0,1 C 11,3 km/h (2 Bft) 100,00 %
24.02.2016 03:35 1,2 C 93 % 1016,8 hPa 0,0 l/m 9,1 km/h (2 Bft) W-SW 258 0 min 0,000 mm 0,0 UV-I 0 W/m 0,2 C -1,4 C 16,1 km/h (3 Bft) 96,15 %
24.02.2016 03:36 1,2 C 93 % 1016,8 hPa 0,0 l/m 9,9 km/h (2 Bft) W 270 0 min 0,000 mm 0,0 UV-I 0 W/m 0,2 C -2,0 C 14,5 km/h (3 Bft) 96,30 %
24.02.2016 03:37 1,2 C 93 % 1016,8 hPa 0,0 l/m 6,6 km/h (2 Bft) W 263 0 min 0,000 mm 0,0 UV-I 0 W/m 0,2 C 1,0 C 11,3 km/h (2 Bft) 100,00 %
24.02.2016 03:38 1,2 C 93 % 1016,8 hPa 0,0 l/m 5,9 km/h (2 Bft) W 267 0 min 0,000 mm 0,0 UV-I 0 W/m 0,2 C 1,2 C 8,0 km/h (2 Bft) 95,83 %
24.02.2016 03:39 1,2 C 92 % 1016,8 hPa 0,0 l/m 9,5 km/h (2 Bft) W-NW 284 0 min 0,000 mm 0,0 UV-I 0 W/m 0,0 C -1,7 C 12,9 km/h (3 Bft) 100,00 %
24.02.2016 03:40 1,2 C 93 % 1016,8 hPa 0,0 l/m 11,3 km/h (2 Bft) W 267 0 min 0,000 mm 0,0 UV-I 0 W/m 0,2 C -3,1 C 16,1 km/h (3 Bft) 100,00 %
24.02.2016 03:41 1,2 C 93 % 1016,8 hPa 0,0 l/m 5,3 km/h (1 Bft) W 264 0 min 0,000 mm 0,0 UV-I 0 W/m 0,2 C 1,2 C 9,7 km/h (2 Bft) 100,00 %
24.02.2016 03:42 1,2 C 93 % 1016,8 hPa 0,0 l/m 7,4 km/h (2 Bft) W 264 0 min 0,000 mm 0,0 UV-I 0 W/m 0,2 C 0,2 C 11,3 km/h (2 Bft) 100,00 %
24.02.2016 03:43 1,2 C 92 % 1016,7 hPa 0,0 l/m 8,4 km/h (2 Bft) W-SW 257 0 min 0,000 mm 0,0 UV-I 0 W/m 0,0 C -0,8 C 11,3 km/h (2 Bft) 100,00 %
24.02.2016 03:44 1,2 C 92 % 1016,8 hPa 0,0 l/m 4,9 km/h (1 Bft) W-NW 285 0 min 0,000 mm 0,0 UV-I 0 W/m 0,0 C 1,2 C 6,4 km/h (2 Bft) 100,00 %
24.02.2016 03:45 1,2 C 92 % 1016,8 hPa 0,0 l/m 8,6 km/h (2 Bft) W-NW 282 0 min 0,000 mm 0,0 UV-I 0 W/m 0,0 C -0,9 C 14,5 km/h (3 Bft) 100,00 %
24.02.2016 03:46 1,2 C 92 % 1016,7 hPa 0,0 l/m 7,5 km/h (2 Bft) W 279 0 min 0,000 mm 0,0 UV-I 0 W/m 0,0 C 0,1 C 14,5 km/h (3 Bft) 100,00 %
24.02.2016 03:47 1,2 C 92 % 1016,8 hPa 0,0 l/m 9,2 km/h (2 Bft) W 279 0 min 0,000 mm 0,0 UV-I 0 W/m 0,0 C -1,5 C 16,1 km/h (3 Bft) 100,00 %
24.02.2016 03:48 1,2 C 92 % 1016,7 hPa 0,0 l/m 8,2 km/h (2 Bft) W 271 0 min 0,000 mm 0,0 UV-I 0 W/m 0,0 C -0,6 C 16,1 km/h (3 Bft) 100,00 %
24.02.2016 03:49 1,2 C 92 % 1016,8 hPa 0,0 l/m 8,5 km/h (2 Bft) W 259 0 min 0,000 mm 0,0 UV-I 0 W/m 0,0 C -0,8 C 11,3 km/h (2 Bft) 95,65 %
24.02.2016 03:50 1,2 C 92 % 1016,8 hPa 0,0 l/m 4,7 km/h (1 Bft) W-SW 255 0 min 0,000 mm 0,0 UV-I 0 W/m 0,0 C 1,2 C 6,4 km/h (2 Bft) 100,00 %
24.02.2016 03:51 1,2 C 92 % 1016,8 hPa 0,0 l/m 6,4 km/h (2 Bft) W-SW 258 0 min 0,000 mm 0,0 UV-I 0 W/m 0,0 C 1,2 C 9,7 km/h (2 Bft) 100,00 %
24.02.2016 03:52 1,2 C 91 % 1016,8 hPa 0,0 l/m 10,7 km/h (2 Bft) W 263 0 min 0,000 mm 0,0 UV-I 0 W/m -0,1 C -2,7 C 16,1 km/h (3 Bft) 100,00 %
24.02.2016 03:53 1,2 C 92 % 1016,8 hPa 0,0 l/m 12,2 km/h (2 Bft) W 262 0 min 0,000 mm 0,0 UV-I 0 W/m 0,0 C -3,8 C 14,5 km/h (3 Bft) 100,00 %
24.02.2016 03:54 1,2 C 91 % 1016,8 hPa 0,0 l/m 11,1 km/h (2 Bft) W 273 0 min 0,000 mm 0,0 UV-I 0 W/m -0,1 C -3,0 C 14,5 km/h (3 Bft) 100,00 %
24.02.2016 03:55 1,2 C 91 % 1016,8 hPa 0,0 l/m 9,1 km/h (2 Bft) W-SW 257 0 min 0,000 mm 0,0 UV-I 0 W/m -0,1 C -1,4 C 16,1 km/h (3 Bft) 100,00 %
24.02.2016 03:56 1,2 C 91 % 1016,8 hPa 0,0 l/m 11,1 km/h (2 Bft) W-NW 286 0 min 0,000 mm 0,0 UV-I 0 W/m -0,1 C -3,0 C 16,1 km/h (3 Bft) 100,00 %
24.02.2016 03:57 1,2 C 91 % 1016,8 hPa 0,0 l/m 9,4 km/h (2 Bft) W 272 0 min 0,000 mm 0,0 UV-I 0 W/m -0,1 C -1,6 C 16,1 km/h (3 Bft) 100,00 %
24.02.2016 03:58 1,2 C 91 % 1016,8 hPa 0,0 l/m 8,4 km/h (2 Bft) W 279 0 min 0,000 mm 0,0 UV-I 0 W/m -0,1 C -0,8 C 11,3 km/h (2 Bft) 100,00 %
24.02.2016 03:59 1,2 C 91 % 1016,8 hPa 0,0 l/m 6,5 km/h (2 Bft) W 259 0 min 0,000 mm 0,0 UV-I 0 W/m -0,1 C 1,1 C 11,3 km/h (2 Bft) 100,00 %
24.02.2016 04:00 1,2 C 91 % 1016,9 hPa 0,0 l/m 10,8 km/h (2 Bft) W 273 0 min 0,000 mm 0,0 UV-I 0 W/m -0,1 C -2,7 C 12,9 km/h (3 Bft) 100,00 %
24.02.2016 04:03 1,2 C 91 % 1016,9 hPa 0,0 l/m 8,6 km/h (2 Bft) W 266 0 min 0,000 mm 0,0 UV-I 0 W/m -0,1 C -0,9 C 12,9 km/h (3 Bft) 100,00 %
24.02.2016 04:04 1,2 C 91 % 1016,9 hPa 0,0 l/m 8,2 km/h (2 Bft) W 273 0 min 0,000 mm 0,0 UV-I 0 W/m -0,1 C -0,6 C 12,9 km/h (3 Bft) 91,67 %
24.02.2016 04:05 1,2 C 91 % 1016,9 hPa 0,0 l/m 12,7 km/h (3 Bft) W 267 0 min 0,000 mm 0,0 UV-I 0 W/m -0,1 C -4,1 C 17,7 km/h (3 Bft) 100,00 %
24.02.2016 04:06 1,2 C 91 % 1016,9 hPa 0,0 l/m 11,2 km/h (2 Bft) W 269 0 min 0,000 mm 0,0 UV-I 0 W/m -0,1 C -3,0 C 12,9 km/h (3 Bft) 100,00 %
24.02.2016 04:07 1,2 C 91 % 1017,0 hPa 0,0 l/m 10,0 km/h (2 Bft) W 261 0 min 0,000 mm 0,0 UV-I 0 W/m -0,1 C -2,1 C 12,9 km/h (3 Bft) 100,00 %
24.02.2016 04:08 1,2 C 91 % 1017,0 hPa 0,0 l/m 12,3 km/h (3 Bft) W 269 0 min 0,000 mm 0,0 UV-I 0 W/m -0,1 C -3,8 C 16,1 km/h (3 Bft) 100,00 %
24.02.2016 04:09 1,2 C 91 % 1017,0 hPa 0,0 l/m 9,1 km/h (2 Bft) W-SW 257 0 min 0,000 mm 0,0 UV-I 0 W/m -0,1 C -1,4 C 12,9 km/h (3 Bft) 100,00 %
24.02.2016 04:10 1,2 C 91 % 1016,9 hPa 0,0 l/m 11,4 km/h (2 Bft) W-NW 282 0 min 0,000 mm 0,0 UV-I 0 W/m -0,1 C -3,2 C 16,1 km/h (3 Bft) 92,86 %
24.02.2016 04:11 1,2 C 91 % 1017,0 hPa 0,0 l/m 9,8 km/h (2 Bft) W 261 0 min 0,000 mm 0,0 UV-I 0 W/m -0,1 C -2,0 C 12,9 km/h (3 Bft) 100,00 %
24.02.2016 04:12 1,3 C 90 % 1017,0 hPa 0,0 l/m 12,0 km/h (2 Bft) W 262 0 min 0,000 mm 0,0 UV-I 0 W/m -0,2 C -3,5 C 16,1 km/h (3 Bft) 100,00 %
24.02.2016 04:13 1,3 C 91 % 1017,0 hPa 0,0 l/m 11,0 km/h (2 Bft) W-SW 250 0 min 0,000 mm 0,0 UV-I 0 W/m -0,0 C -2,8 C 14,5 km/h (3 Bft) 100,00 %
24.02.2016 04:14 1,3 C 91 % 1017,0 hPa 0,0 l/m 11,0 km/h (2 Bft) W-SW 246 0 min 0,000 mm 0,0 UV-I 0 W/m -0,0 C -2,8 C 12,9 km/h (3 Bft) 100,00 %
24.02.2016 04:15 1,3 C 90 % 1017,0 hPa 0,0 l/m 11,4 km/h (2 Bft) W-SW 243 0 min 0,000 mm 0,0 UV-I 0 W/m -0,2 C -3,1 C 14,5 km/h (3 Bft) 100,00 %
24.02.2016 04:16 1,3 C 91 % 1017,1 hPa 0,0 l/m 11,9 km/h (2 Bft) W-SW 242 0 min 0,000 mm 0,0 UV-I 0 W/m -0,0 C -3,4 C 14,5 km/h (3 Bft) 100,00 %
24.02.2016 04:17 1,3 C 90 % 1017,0 hPa 0,0 l/m 9,1 km/h (2 Bft) W 271 0 min 0,000 mm 0,0 UV-I 0 W/m -0,2 C -1,3 C 11,3 km/h (2 Bft) 96,30 %
24.02.2016 04:18 1,3 C 90 % 1017,0 hPa 0,0 l/m 11,3 km/h (2 Bft) W 279 0 min 0,000 mm 0,0 UV-I 0 W/m -0,2 C -3,0 C 14,5 km/h (3 Bft) 94,44 %
24.02.2016 04:19 1,3 C 90 % 1017,0 hPa 0,0 l/m 6,9 km/h (2 Bft) W-SW 248 0 min 0,000 mm 0,0 UV-I 0 W/m -0,2 C 0,8 C 9,7 km/h (2 Bft) 100,00 %
24.02.2016 04:20 1,3 C 90 % 1017,1 hPa 0,0 l/m 9,3 km/h (2 Bft) W-SW 251 0 min 0,000 mm 0,0 UV-I 0 W/m -0,2 C -1,4 C 12,9 km/h (3 Bft) 100,00 %
24.02.2016 04:21 1,3 C 90 % 1017,1 hPa 0,0 l/m 8,9 km/h (2 Bft) W-SW 246 0 min 0,000 mm 0,0 UV-I 0 W/m -0,2 C -1,1 C 12,9 km/h (3 Bft) 100,00 %
24.02.2016 04:22 1,3 C 90 % 1017,1 hPa 0,0 l/m 12,5 km/h (3 Bft) SW 234 0 min 0,000 mm 0,0 UV-I 0 W/m -0,2 C -3,8 C 17,7 km/h (3 Bft) 100,00 %
24.02.2016 04:23 1,4 C 90 % 1017,1 hPa 0,0 l/m 8,2 km/h (2 Bft) W-SW 247 0 min 0,000 mm 0,0 UV-I 0 W/m -0,1 C -0,4 C 11,3 km/h (2 Bft) 95,65 %
24.02.2016 04:24 1,4 C 90 % 1017,1 hPa 0,0 l/m 8,7 km/h (2 Bft) W 278 0 min 0,000 mm 0,0 UV-I 0 W/m -0,1 C -0,8 C 12,9 km/h (3 Bft) 96,30 %
24.02.2016 04:25 1,4 C 90 % 1017,1 hPa 0,0 l/m 11,7 km/h (2 Bft) W-SW 252 0 min 0,000 mm 0,0 UV-I 0 W/m -0,1 C -3,2 C 16,1 km/h (3 Bft) 100,00 %
24.02.2016 04:26 1,4 C 90 % 1017,1 hPa 0,0 l/m 12,7 km/h (3 Bft) W-SW 242 0 min 0,000 mm 0,0 UV-I 0 W/m -0,1 C -3,9 C 16,1 km/h (3 Bft) 100,00 %
24.02.2016 04:27 1,4 C 90 % 1017,1 hPa 0,0 l/m 11,5 km/h (2 Bft) W 260 0 min 0,000 mm 0,0 UV-I 0 W/m -0,1 C -3,0 C 16,1 km/h (3 Bft) 100,00 %
24.02.2016 04:28 1,4 C 90 % 1017,1 hPa 0,0 l/m 8,0 km/h (2 Bft) SW 229 0 min 0,000 mm 0,0 UV-I 0 W/m -0,1 C -0,2 C 12,9 km/h (3 Bft) 100,00 %
24.02.2016 04:29 1,4 C 90 % 1017,1 hPa 0,0 l/m 11,0 km/h (2 Bft) W-SW 258 0 min 0,000 mm 0,0 UV-I 0 W/m -0,1 C -2,7 C 14,5 km/h (3 Bft) 100,00 %
24.02.2016 04:30 1,4 C 89 % 1017,1 hPa 0,0 l/m 9,4 km/h (2 Bft) W-SW 252 0 min 0,000 mm 0,0 UV-I 0 W/m -0,2 C -1,4 C 12,9 km/h (3 Bft) 100,00 %
24.02.2016 04:31 1,4 C 89 % 1017,1 hPa 0,0 l/m 9,0 km/h (2 Bft) W-SW 257 0 min 0,000 mm 0,0 UV-I 0 W/m -0,2 C -1,1 C 12,9 km/h (3 Bft) 100,00 %
24.02.2016 04:32 1,5 C 89 % 1017,1 hPa 0,0 l/m 9,0 km/h (2 Bft) W-SW 257 0 min 0,000 mm 0,0 UV-I 0 W/m -0,1 C -1,0 C 12,9 km/h (3 Bft) 100,00 %
24.02.2016 04:33 1,5 C 89 % 1017,1 hPa 0,0 l/m 10,7 km/h (2 Bft) W-SW 253 0 min 0,000 mm 0,0 UV-I 0 W/m -0,1 C -2,3 C 14,5 km/h (3 Bft) 96,30 %
24.02.2016 04:34 1,5 C 89 % 1017,1 hPa 0,0 l/m 8,9 km/h (2 Bft) W-SW 251 0 min 0,000 mm 0,0 UV-I 0 W/m -0,1 C -0,9 C 12,9 km/h (3 Bft) 96,55 %
24.02.2016 04:35 1,5 C 89 % 1017,2 hPa 0,0 l/m 7,1 km/h (2 Bft) SW 229 0 min 0,000 mm 0,0 UV-I 0 W/m -0,1 C 0,8 C 12,9 km/h (3 Bft) 100,00 %
24.02.2016 04:36 1,5 C 89 % 1017,2 hPa 0,0 l/m 9,2 km/h (2 Bft) W-SW 255 0 min 0,000 mm 0,0 UV-I 0 W/m -0,1 C -1,1 C 12,9 km/h (3 Bft) 100,00 %
24.02.2016 04:37 1,5 C 89 % 1017,2 hPa 0,0 l/m 12,1 km/h (2 Bft) W 263 0 min 0,000 mm 0,0 UV-I 0 W/m -0,1 C -3,3 C 16,1 km/h (3 Bft) 96,15 %
24.02.2016 04:38 1,5 C 89 % 1017,2 hPa 0,0 l/m 8,2 km/h (2 Bft) W-SW 246 0 min 0,000 mm 0,0 UV-I 0 W/m -0,1 C -0,3 C 12,9 km/h (3 Bft) 100,00 %
24.02.2016 04:39 1,6 C 89 % 1017,2 hPa 0,0 l/m 8,0 km/h (2 Bft) W 261 0 min 0,000 mm 0,0 UV-I 0 W/m -0,0 C 0,0 C 14,5 km/h (3 Bft) 100,00 %
24.02.2016 04:40 1,5 C 89 % 1017,2 hPa 0,0 l/m 10,0 km/h (2 Bft) W-SW 239 0 min 0,000 mm 0,0 UV-I 0 W/m -0,1 C -1,8 C 12,9 km/h (3 Bft) 100,00 %
24.02.2016 04:41 1,6 C 89 % 1017,2 hPa 0,0 l/m 7,7 km/h (2 Bft) W-SW 248 0 min 0,000 mm 0,0 UV-I 0 W/m -0,0 C 0,3 C 11,3 km/h (2 Bft) 100,00 %
24.02.2016 04:42 1,5 C 89 % 1017,2 hPa 0,0 l/m 8,1 km/h (2 Bft) SW 229 0 min 0,000 mm 0,0 UV-I 0 W/m -0,1 C -0,2 C 12,9 km/h (3 Bft) 100,00 %
24.02.2016 04:43 1,5 C 89 % 1017,2 hPa 0,0 l/m 7,8 km/h (2 Bft) SW 223 0 min 0,000 mm 0,0 UV-I 0 W/m -0,1 C 0,1 C 11,3 km/h (2 Bft) 100,00 %
24.02.2016 04:44 1,6 C 89 % 1017,2 hPa 0,0 l/m 9,7 km/h (2 Bft) W 267 0 min 0,000 mm 0,0 UV-I 0 W/m -0,0 C -1,4 C 12,9 km/h (3 Bft) 100,00 %
24.02.2016 04:45 1,5 C 89 % 1017,2 hPa 0,0 l/m 8,5 km/h (2 Bft) W-SW 245 0 min 0,000 mm 0,0 UV-I 0 W/m -0,1 C -0,5 C 11,3 km/h (2 Bft) 100,00 %
24.02.2016 04:46 1,5 C 89 % 1017,3 hPa 0,0 l/m 8,3 km/h (2 Bft) S-SW 196 0 min 0,000 mm 0,0 UV-I 0 W/m -0,1 C -0,3 C 12,9 km/h (3 Bft) 100,00 %
24.02.2016 04:47 1,5 C 89 % 1017,3 hPa 0,0 l/m 10,2 km/h (2 Bft) W-SW 246 0 min 0,000 mm 0,0 UV-I 0 W/m -0,1 C -2,0 C 14,5 km/h (3 Bft) 93,33 %
24.02.2016 04:48 1,6 C 88 % 1017,2 hPa 0,0 l/m 10,9 km/h (2 Bft) W-SW 238 0 min 0,000 mm 0,0 UV-I 0 W/m -0,2 C -2,4 C 14,5 km/h (3 Bft) 100,00 %
24.02.2016 04:49 1,6 C 88 % 1017,3 hPa 0,0 l/m 8,3 km/h (2 Bft) W-SW 252 0 min 0,000 mm 0,0 UV-I 0 W/m -0,2 C -0,2 C 11,3 km/h (2 Bft) 100,00 %
24.02.2016 04:50 1,6 C 88 % 1017,3 hPa 0,0 l/m 10,7 km/h (2 Bft) W-SW 248 0 min 0,000 mm 0,0 UV-I 0 W/m -0,2 C -2,2 C 12,9 km/h (3 Bft) 100,00 %
24.02.2016 04:51 1,6 C 88 % 1017,3 hPa 0,0 l/m 9,9 km/h (2 Bft) SW 219 0 min 0,000 mm 0,0 UV-I 0 W/m -0,2 C -1,6 C 14,5 km/h (3 Bft) 100,00 %
24.02.2016 04:52 1,6 C 88 % 1017,3 hPa 0,0 l/m 10,0 km/h (2 Bft) W 269 0 min 0,000 mm 0,0 UV-I 0 W/m -0,2 C -1,7 C 16,1 km/h (3 Bft) 100,00 %
24.02.2016 04:53 1,6 C 88 % 1017,3 hPa 0,0 l/m 7,4 km/h (2 Bft) SW 229 0 min 0,000 mm 0,0 UV-I 0 W/m -0,2 C 0,6 C 12,9 km/h (3 Bft) 100,00 %
24.02.2016 04:54 1,6 C 89 % 1017,3 hPa 0,0 l/m 8,8 km/h (2 Bft) W-SW 250 0 min 0,000 mm 0,0 UV-I 0 W/m -0,0 C -0,7 C 14,5 km/h (3 Bft) 100,00 %
24.02.2016 04:55 1,6 C 89 % 1017,3 hPa 0,0 l/m 12,9 km/h (3 Bft) W-SW 246 0 min 0,000 mm 0,0 UV-I 0 W/m -0,0 C -3,8 C 19,3 km/h (3 Bft) 100,00 %
24.02.2016 04:56 1,6 C 89 % 1017,4 hPa 0,0 l/m 10,1 km/h (2 Bft) SW 215 0 min 0,000 mm 0,0 UV-I 0 W/m -0,0 C -1,8 C 14,5 km/h (3 Bft) 100,00 %
24.02.2016 04:57 1,6 C 89 % 1017,4 hPa 0,0 l/m 11,9 km/h (2 Bft) SW 215 0 min 0,000 mm 0,0 UV-I 0 W/m -0,0 C -3,1 C 16,1 km/h (3 Bft) 93,33 %
24.02.2016 04:58 1,6 C 89 % 1017,4 hPa 0,0 l/m 11,2 km/h (2 Bft) W-SW 245 0 min 0,000 mm 0,0 UV-I 0 W/m -0,0 C -2,6 C 14,5 km/h (3 Bft) 100,00 %
24.02.2016 04:59 1,6 C 89 % 1017,4 hPa 0,0 l/m 10,6 km/h (2 Bft) SW 228 0 min 0,000 mm 0,0 UV-I 0 W/m -0,0 C -2,1 C 16,1 km/h (3 Bft) 85,19 %
24.02.2016 05:00 1,6 C 89 % 1017,4 hPa 0,0 l/m 9,5 km/h (2 Bft) W-SW 245 0 min 0,000 mm 0,0 UV-I 0 W/m -0,0 C -1,3 C 12,9 km/h (3 Bft) 95,65 %
24.02.2016 05:01 1,5 C 89 % 1017,4 hPa 0,0 l/m 13,7 km/h (3 Bft) W-SW 257 0 min 0,000 mm 0,0 UV-I 0 W/m -0,1 C -4,4 C 17,7 km/h (3 Bft) 91,67 %
24.02.2016 05:02 1,5 C 89 % 1017,4 hPa 0,0 l/m 10,7 km/h (2 Bft) W 261 0 min 0,000 mm 0,0 UV-I 0 W/m -0,1 C -2,3 C 14,5 km/h (3 Bft) 100,00 %
24.02.2016 05:03 1,5 C 89 % 1017,4 hPa 0,0 l/m 11,4 km/h (2 Bft) S-SW 212 0 min 0,000 mm 0,0 UV-I 0 W/m -0,1 C -2,9 C 17,7 km/h (3 Bft) 92,86 %
24.02.2016 05:04 1,5 C 89 % 1017,4 hPa 0,0 l/m 13,6 km/h (3 Bft) W-SW 250 0 min 0,000 mm 0,0 UV-I 0 W/m -0,1 C -4,3 C 17,7 km/h (3 Bft) 96,77 %
24.02.2016 05:05 1,5 C 89 % 1017,4 hPa 0,0 l/m 10,3 km/h (2 Bft) SW 228 0 min 0,000 mm 0,0 UV-I 0 W/m -0,1 C -2,0 C 16,1 km/h (3 Bft) 100,00 %
24.02.2016 05:06 1,4 C 90 % 1017,4 hPa 0,0 l/m 16,2 km/h (3 Bft) SW 221 0 min 0,000 mm 0,0 UV-I 0 W/m -0,1 C -6,0 C 27,4 km/h (4 Bft) 95,83 %
24.02.2016 05:07 1,4 C 90 % 1017,4 hPa 0,0 l/m 11,3 km/h (2 Bft) W 269 0 min 0,000 mm 0,0 UV-I 0 W/m -0,1 C -2,9 C 16,1 km/h (3 Bft) 100,00 %
24.02.2016 05:08 1,4 C 90 % 1017,4 hPa 0,0 l/m 10,2 km/h (2 Bft) SW 236 0 min 0,000 mm 0,0 UV-I 0 W/m -0,1 C -2,1 C 14,5 km/h (3 Bft) 95,83 %
24.02.2016 05:09 1,4 C 90 % 1017,4 hPa 0,0 l/m 9,2 km/h (2 Bft) W-SW 239 0 min 0,000 mm 0,0 UV-I 0 W/m -0,1 C -1,2 C 12,9 km/h (3 Bft) 100,00 %
24.02.2016 05:10 1,4 C 90 % 1017,4 hPa 0,0 l/m 11,1 km/h (2 Bft) W 268 0 min 0,000 mm 0,0 UV-I 0 W/m -0,1 C -2,7 C 14,5 km/h (3 Bft) 91,67 %
24.02.2016 05:11 1,4 C 90 % 1017,4 hPa 0,0 l/m 9,6 km/h (2 Bft) SW 226 0 min 0,000 mm 0,0 UV-I 0 W/m -0,1 C -1,6 C 12,9 km/h (3 Bft) 100,00 %
24.02.2016 05:12 1,4 C 90 % 1017,4 hPa 0,0 l/m 10,4 km/h (2 Bft) S-SW 207 0 min 0,000 mm 0,0 UV-I 0 W/m -0,1 C -2,2 C 14,5 km/h (3 Bft) 93,33 %
24.02.2016 05:13 1,4 C 90 % 1017,3 hPa 0,0 l/m 7,8 km/h (2 Bft) W 259 0 min 0,000 mm 0,0 UV-I 0 W/m -0,1 C 0,0 C 12,9 km/h (3 Bft) 95,65 %
24.02.2016 05:14 1,4 C 90 % 1017,3 hPa 0,0 l/m 6,4 km/h (2 Bft) S-SW 211 0 min 0,000 mm 0,0 UV-I 0 W/m -0,1 C 1,4 C 9,7 km/h (2 Bft) 100,00 %
24.02.2016 05:15 1,4 C 90 % 1017,3 hPa 0,0 l/m 8,3 km/h (2 Bft) SW 236 0 min 0,000 mm 0,0 UV-I 0 W/m -0,1 C -0,5 C 14,5 km/h (3 Bft) 96,15 %
24.02.2016 05:16 1,4 C 90 % 1017,3 hPa 0,0 l/m 8,9 km/h (2 Bft) SW 221 0 min 0,000 mm 0,0 UV-I 0 W/m -0,1 C -1,0 C 14,5 km/h (3 Bft) 100,00 %
24.02.2016 05:17 1,4 C 90 % 1017,3 hPa 0,0 l/m 7,0 km/h (2 Bft) W-SW 246 0 min 0,000 mm 0,0 UV-I 0 W/m -0,1 C 0,8 C 9,7 km/h (2 Bft) 96,30 %
24.02.2016 05:18 1,4 C 90 % 1017,3 hPa 0,0 l/m 6,4 km/h (2 Bft) S-SW 195 0 min 0,000 mm 0,0 UV-I 0 W/m -0,1 C 1,4 C 9,7 km/h (2 Bft) 100,00 %
24.02.2016 05:19 1,4 C 90 % 1017,3 hPa 0,0 l/m 6,7 km/h (2 Bft) S-SW 209 0 min 0,000 mm 0,0 UV-I 0 W/m -0,1 C 1,1 C 11,3 km/h (2 Bft) 91,67 %
24.02.2016 05:20 1,4 C 90 % 1017,3 hPa 0,0 l/m 5,3 km/h (1 Bft) S-SW 210 0 min 0,000 mm 0,0 UV-I 0 W/m -0,1 C 1,4 C 8,0 km/h (2 Bft) 100,00 %
24.02.2016 05:21 1,5 C 90 % 1017,4 hPa 0,0 l/m 8,0 km/h (2 Bft) SW 223 0 min 0,000 mm 0,0 UV-I 0 W/m 0,0 C -0,1 C 12,9 km/h (3 Bft) 93,10 %
24.02.2016 05:22 1,5 C 90 % 1017,3 hPa 0,0 l/m 8,7 km/h (2 Bft) S-SW 200 0 min 0,000 mm 0,0 UV-I 0 W/m 0,0 C -0,7 C 11,3 km/h (2 Bft) 96,15 %
24.02.2016 05:23 1,5 C 90 % 1017,3 hPa 0,0 l/m 6,0 km/h (2 Bft) S 177 0 min 0,000 mm 0,0 UV-I 0 W/m 0,0 C 1,5 C 9,7 km/h (2 Bft) 100,00 %
24.02.2016 05:24 1,5 C 90 % 1017,3 hPa 0,0 l/m 8,4 km/h (2 Bft) SW 215 0 min 0,000 mm 0,0 UV-I 0 W/m 0,0 C -0,4 C 12,9 km/h (3 Bft) 95,65 %
24.02.2016 05:25 1,5 C 90 % 1017,3 hPa 0,0 l/m 8,9 km/h (2 Bft) SW 217 0 min 0,000 mm 0,0 UV-I 0 W/m 0,0 C -0,9 C 14,5 km/h (3 Bft) 100,00 %
24.02.2016 05:26 1,5 C 89 % 1017,3 hPa 0,0 l/m 7,2 km/h (2 Bft) S 183 0 min 0,000 mm 0,0 UV-I 0 W/m -0,1 C 0,7 C 12,9 km/h (3 Bft) 92,86 %
24.02.2016 05:27 1,5 C 89 % 1017,3 hPa 0,0 l/m 5,8 km/h (2 Bft) W-SW 243 0 min 0,000 mm 0,0 UV-I 0 W/m -0,1 C 1,5 C 8,0 km/h (2 Bft) 96,30 %
24.02.2016 05:28 1,5 C 89 % 1017,3 hPa 0,0 l/m 5,6 km/h (1 Bft) W-SW 243 0 min 0,000 mm 0,0 UV-I 0 W/m -0,1 C 1,5 C 9,7 km/h (2 Bft) 96,15 %
24.02.2016 05:29 1,5 C 89 % 1017,3 hPa 0,0 l/m 9,1 km/h (2 Bft) W-SW 237 0 min 0,000 mm 0,0 UV-I 0 W/m -0,1 C -1,1 C 12,9 km/h (3 Bft) 100,00 %
24.02.2016 05:30 1,5 C 90 % 1017,4 hPa 0,0 l/m 8,8 km/h (2 Bft) W-SW 250 0 min 0,000 mm 0,0 UV-I 0 W/m 0,0 C -0,8 C 11,3 km/h (2 Bft) 92,59 %
24.02.2016 05:31 1,5 C 90 % 1017,4 hPa 0,0 l/m 10,9 km/h (2 Bft) SW 233 0 min 0,000 mm 0,0 UV-I 0 W/m 0,0 C -2,5 C 12,9 km/h (3 Bft) 96,30 %
24.02.2016 05:32 1,5 C 90 % 1017,4 hPa 0,0 l/m 10,1 km/h (2 Bft) W-SW 253 0 min 0,000 mm 0,0 UV-I 0 W/m 0,0 C -1,9 C 14,5 km/h (3 Bft) 100,00 %
24.02.2016 05:33 1,5 C 90 % 1017,4 hPa 0,0 l/m 9,7 km/h (2 Bft) W-SW 243 0 min 0,000 mm 0,0 UV-I 0 W/m 0,0 C -1,6 C 12,9 km/h (3 Bft) 96,43 %
24.02.2016 05:34 1,5 C 90 % 1017,4 hPa 0,0 l/m 9,7 km/h (2 Bft) SW 227 0 min 0,000 mm 0,0 UV-I 0 W/m 0,0 C -1,6 C 14,5 km/h (3 Bft) 96,55 %
24.02.2016 05:35 1,4 C 90 % 1017,4 hPa 0,0 l/m 9,7 km/h (2 Bft) SW 222 0 min 0,000 mm 0,0 UV-I 0 W/m -0,1 C -1,7 C 14,5 km/h (3 Bft) 93,33 %
24.02.2016 05:36 1,4 C 90 % 1017,4 hPa 0,0 l/m 8,1 km/h (2 Bft) W-SW 246 0 min 0,000 mm 0,0 UV-I 0 W/m -0,1 C -0,3 C 11,3 km/h (2 Bft) 100,00 %
24.02.2016 05:37 1,4 C 90 % 1017,4 hPa 0,0 l/m 8,5 km/h (2 Bft) W-SW 238 0 min 0,000 mm 0,0 UV-I 0 W/m -0,1 C -0,6 C 14,5 km/h (3 Bft) 100,00 %
24.02.2016 05:38 1,4 C 90 % 1017,4 hPa 0,0 l/m 7,6 km/h (2 Bft) SW 225 0 min 0,000 mm 0,0 UV-I 0 W/m -0,1 C 0,2 C 12,9 km/h (3 Bft) 100,00 %
24.02.2016 05:39 1,3 C 91 % 1017,4 hPa 0,0 l/m 11,7 km/h (2 Bft) W-SW 240 0 min 0,000 mm 0,0 UV-I 0 W/m -0,0 C -3,3 C 17,7 km/h (3 Bft) 96,15 %
24.02.2016 05:40 1,3 C 91 % 1017,4 hPa 0,0 l/m 8,6 km/h (2 Bft) S-SW 205 0 min 0,000 mm 0,0 UV-I 0 W/m -0,0 C -0,8 C 9,7 km/h (2 Bft) 100,00 %
24.02.2016 05:41 1,3 C 91 % 1017,4 hPa 0,0 l/m 8,9 km/h (2 Bft) S-SW 207 0 min 0,000 mm 0,0 UV-I 0 W/m -0,0 C -1,1 C 12,9 km/h (3 Bft) 100,00 %
24.02.2016 05:42 1,3 C 91 % 1017,4 hPa 0,0 l/m 11,1 km/h (2 Bft) SW 220 0 min 0,000 mm 0,0 UV-I 0 W/m -0,0 C -2,9 C 17,7 km/h (3 Bft) 100,00 %
24.02.2016 05:43 1,3 C 91 % 1017,4 hPa 0,0 l/m 10,3 km/h (2 Bft) SW 226 0 min 0,000 mm 0,0 UV-I 0 W/m -0,0 C -2,3 C 14,5 km/h (3 Bft) 100,00 %
24.02.2016 05:44 1,3 C 90 % 1017,3 hPa 0,0 l/m 6,4 km/h (2 Bft) S-SW 205 0 min 0,000 mm 0,0 UV-I 0 W/m -0,2 C 1,3 C 9,7 km/h (2 Bft) 91,67 %
24.02.2016 05:45 1,3 C 90 % 1017,3 hPa 0,0 l/m 7,3 km/h (2 Bft) SW 235 0 min 0,000 mm 0,0 UV-I 0 W/m -0,2 C 0,4 C 9,7 km/h (2 Bft) 100,00 %
24.02.2016 05:46 1,3 C 90 % 1017,4 hPa 0,0 l/m 5,1 km/h (1 Bft) S 190 0 min 0,000 mm 0,0 UV-I 0 W/m -0,2 C 1,3 C 8,0 km/h (2 Bft) 100,00 %
24.02.2016 05:47 1,3 C 90 % 1017,3 hPa 0,0 l/m 6,4 km/h (2 Bft) SW 226 0 min 0,000 mm 0,0 UV-I 0 W/m -0,2 C 1,3 C 9,7 km/h (2 Bft) 100,00 %
24.02.2016 05:48 1,3 C 90 % 1017,3 hPa 0,0 l/m 7,8 km/h (2 Bft) S-SW 203 0 min 0,000 mm 0,0 UV-I 0 W/m -0,2 C -0,1 C 9,7 km/h (2 Bft) 100,00 %
24.02.2016 05:49 1,3 C 90 % 1017,4 hPa 0,0 l/m 9,1 km/h (2 Bft) SW 232 0 min 0,000 mm 0,0 UV-I 0 W/m -0,2 C -1,3 C 16,1 km/h (3 Bft) 100,00 %
24.02.2016 05:50 1,3 C 90 % 1017,4 hPa 0,0 l/m 10,4 km/h (2 Bft) SW 234 0 min 0,000 mm 0,0 UV-I 0 W/m -0,2 C -2,3 C 16,1 km/h (3 Bft) 95,83 %
24.02.2016 05:51 1,3 C 90 % 1017,4 hPa 0,0 l/m 8,9 km/h (2 Bft) SW 231 0 min 0,000 mm 0,0 UV-I 0 W/m -0,2 C -1,1 C 12,9 km/h (3 Bft) 95,65 %
24.02.2016 05:52 1,4 C 90 % 1017,4 hPa 0,0 l/m 9,1 km/h (2 Bft) SW 215 0 min 0,000 mm 0,0 UV-I 0 W/m -0,1 C -1,2 C 14,5 km/h (3 Bft) 100,00 %
24.02.2016 05:53 1,4 C 90 % 1017,4 hPa 0,0 l/m 8,7 km/h (2 Bft) SW 223 0 min 0,000 mm 0,0 UV-I 0 W/m -0,1 C -0,8 C 12,9 km/h (3 Bft) 96,15 %
24.02.2016 05:54 1,4 C 90 % 1017,3 hPa 0,0 l/m 9,7 km/h (2 Bft) W-SW 246 0 min 0,000 mm 0,0 UV-I 0 W/m -0,1 C -1,7 C 12,9 km/h (3 Bft) 100,00 %
24.02.2016 05:55 1,4 C 90 % 1017,4 hPa 0,0 l/m 8,1 km/h (2 Bft) SW 223 0 min 0,000 mm 0,0 UV-I 0 W/m -0,1 C -0,3 C 12,9 km/h (3 Bft) 100,00 %
24.02.2016 05:56 1,4 C 90 % 1017,5 hPa 0,0 l/m 10,2 km/h (2 Bft) W-SW 244 0 min 0,000 mm 0,0 UV-I 0 W/m -0,1 C -2,1 C 16,1 km/h (3 Bft) 100,00 %
24.02.2016 05:57 1,4 C 90 % 1017,4 hPa 0,0 l/m 9,3 km/h (2 Bft) W-SW 239 0 min 0,000 mm 0,0 UV-I 0 W/m -0,1 C -1,3 C 11,3 km/h (2 Bft) 100,00 %
24.02.2016 05:58 1,4 C 90 % 1017,4 hPa 0,0 l/m 7,5 km/h (2 Bft) SW 227 0 min 0,000 mm 0,0 UV-I 0 W/m -0,1 C 0,3 C 11,3 km/h (2 Bft) 93,33 %
24.02.2016 05:59 1,4 C 90 % 1017,4 hPa 0,0 l/m 7,4 km/h (2 Bft) SW 229 0 min 0,000 mm 0,0 UV-I 0 W/m -0,1 C 0,4 C 11,3 km/h (2 Bft) 100,00 %
24.02.2016 06:00 1,4 C 90 % 1017,4 hPa 0,0 l/m 9,1 km/h (2 Bft) W-SW 240 0 min 0,000 mm 0,0 UV-I 0 W/m -0,1 C -1,2 C 11,3 km/h (2 Bft) 100,00 %
24.02.2016 06:01 1,4 C 89 % 1017,4 hPa 0,0 l/m 9,4 km/h (2 Bft) W-SW 244 0 min 0,000 mm 0,0 UV-I 0 W/m -0,2 C -1,4 C 16,1 km/h (3 Bft) 98,27 %
24.02.2016 06:02 1,5 C 89 % 1017,4 hPa 0,0 l/m 7,2 km/h (2 Bft) SW 214 0 min 0,000 mm 0,0 UV-I 0 W/m -0,1 C 0,7 C 11,3 km/h (2 Bft) 98,27 %
24.02.2016 06:03 1,5 C 89 % 1017,4 hPa 0,0 l/m 10,3 km/h (2 Bft) W-SW 250 0 min 0,000 mm 0,0 UV-I 0 W/m -0,1 C -2,0 C 12,9 km/h (3 Bft) 100,00 %
24.02.2016 06:04 1,5 C 89 % 1017,4 hPa 0,0 l/m 9,3 km/h (2 Bft) W-SW 244 0 min 0,000 mm 0,0 UV-I 0 W/m -0,1 C -1,2 C 12,9 km/h (3 Bft) 100,00 %
24.02.2016 06:05 1,5 C 89 % 1017,4 hPa 0,0 l/m 9,7 km/h (2 Bft) W 264 0 min 0,000 mm 0,0 UV-I 0 W/m -0,1 C -1,6 C 12,9 km/h (3 Bft) 100,00 %
24.02.2016 06:06 1,6 C 89 % 1017,4 hPa 0,0 l/m 11,8 km/h (2 Bft) W-SW 241 0 min 0,000 mm 0,0 UV-I 0 W/m -0,0 C -3,0 C 14,5 km/h (3 Bft) 92,86 %
24.02.2016 06:07 1,6 C 89 % 1017,4 hPa 0,0 l/m 9,7 km/h (2 Bft) S-SW 208 0 min 0,000 mm 0,0 UV-I 0 W/m -0,0 C -1,4 C 14,5 km/h (3 Bft) 100,00 %
24.02.2016 06:08 1,6 C 89 % 1017,4 hPa 0,0 l/m 11,3 km/h (2 Bft) W-SW 250 0 min 0,000 mm 0,0 UV-I 0 W/m -0,0 C -2,7 C 14,5 km/h (3 Bft) 100,00 %
24.02.2016 06:09 1,6 C 89 % 1017,4 hPa 0,0 l/m 13,6 km/h (3 Bft) SW 229 0 min 0,000 mm 0,0 UV-I 0 W/m -0,0 C -4,2 C 20,9 km/h (4 Bft) 91,67 %
24.02.2016 06:10 1,6 C 88 % 1017,4 hPa 0,0 l/m 10,7 km/h (2 Bft) W-NW 288 0 min 0,000 mm 0,0 UV-I 0 W/m -0,2 C -2,2 C 16,1 km/h (3 Bft) 100,00 %
24.02.2016 06:11 1,6 C 88 % 1017,4 hPa 0,0 l/m 14,8 km/h (3 Bft) W-SW 237 0 min 0,000 mm 0,0 UV-I 0 W/m -0,2 C -4,9 C 20,9 km/h (4 Bft) 100,00 %
24.02.2016 06:12 1,7 C 88 % 1017,4 hPa 0,0 l/m 11,3 km/h (2 Bft) W-SW 250 0 min 0,000 mm 0,0 UV-I 0 W/m -0,1 C -2,6 C 16,1 km/h (3 Bft) 100,00 %
24.02.2016 06:13 1,7 C 88 % 1017,4 hPa 0,0 l/m 10,6 km/h (2 Bft) SW 231 0 min 0,000 mm 0,0 UV-I 0 W/m -0,1 C -2,0 C 16,1 km/h (3 Bft) 100,00 %
24.02.2016 06:14 1,7 C 88 % 1017,4 hPa 0,0 l/m 15,9 km/h (3 Bft) SW 225 0 min 0,000 mm 0,0 UV-I 0 W/m -0,1 C -5,4 C 22,5 km/h (4 Bft) 100,00 %
24.02.2016 06:15 1,7 C 88 % 1017,4 hPa 0,0 l/m 14,6 km/h (3 Bft) SW 214 0 min 0,000 mm 0,0 UV-I 0 W/m -0,1 C -4,7 C 17,7 km/h (3 Bft) 100,00 %
24.02.2016 06:16 1,7 C 88 % 1017,4 hPa 0,0 l/m 12,1 km/h (2 Bft) W-SW 238 0 min 0,000 mm 0,0 UV-I 0 W/m -0,1 C -3,1 C 17,7 km/h (3 Bft) 100,00 %
24.02.2016 06:17 1,7 C 88 % 1017,4 hPa 0,0 l/m 13,3 km/h (3 Bft) W-SW 244 0 min 0,000 mm 0,0 UV-I 0 W/m -0,1 C -3,9 C 19,3 km/h (3 Bft) 96,55 %
24.02.2016 06:18 1,8 C 88 % 1017,4 hPa 0,0 l/m 15,2 km/h (3 Bft) SW 234 0 min 0,000 mm 0,0 UV-I 0 W/m 0,0 C -4,9 C 24,1 km/h (4 Bft) 100,00 %
24.02.2016 06:19 1,8 C 88 % 1017,4 hPa 0,0 l/m 12,6 km/h (3 Bft) W-SW 246 0 min 0,000 mm 0,0 UV-I 0 W/m 0,0 C -3,3 C 19,3 km/h (3 Bft) 100,00 %
24.02.2016 06:20 1,8 C 88 % 1017,4 hPa 0,0 l/m 15,5 km/h (3 Bft) SW 219 0 min 0,000 mm 0,0 UV-I 0 W/m 0,0 C -5,1 C 19,3 km/h (3 Bft) 100,00 %
24.02.2016 06:21 1,8 C 87 % 1017,5 hPa 0,0 l/m 13,3 km/h (3 Bft) W-SW 248 0 min 0,000 mm 0,0 UV-I 0 W/m -0,1 C -3,8 C 16,1 km/h (3 Bft) 100,00 %
24.02.2016 06:22 1,8 C 87 % 1017,5 hPa 0,0 l/m 11,6 km/h (2 Bft) W-SW 238 0 min 0,000 mm 0,0 UV-I 0 W/m -0,1 C -2,7 C 16,1 km/h (3 Bft) 100,00 %
24.02.2016 06:23 1,8 C 87 % 1017,5 hPa 0,0 l/m 11,5 km/h (2 Bft) W-SW 243 0 min 0,000 mm 0,0 UV-I 0 W/m -0,1 C -2,6 C 20,9 km/h (4 Bft) 100,00 %
24.02.2016 06:24 1,8 C 87 % 1017,5 hPa 0,0 l/m 12,4 km/h (3 Bft) W-SW 250 0 min 0,000 mm 0,0 UV-I 0 W/m -0,1 C -3,2 C 16,1 km/h (3 Bft) 96,30 %
24.02.2016 06:25 1,8 C 87 % 1017,5 hPa 0,0 l/m 10,7 km/h (2 Bft) W-SW 251 0 min 0,000 mm 0,0 UV-I 0 W/m -0,1 C -2,0 C 12,9 km/h (3 Bft) 95,65 %
24.02.2016 06:26 1,8 C 87 % 1017,5 hPa 0,0 l/m 10,7 km/h (2 Bft) W-SW 246 0 min 0,000 mm 0,0 UV-I 0 W/m -0,1 C -2,0 C 12,9 km/h (3 Bft) 100,00 %
24.02.2016 06:27 1,9 C 87 % 1017,6 hPa 0,0 l/m 10,7 km/h (2 Bft) W 262 0 min 0,000 mm 0,0 UV-I 0 W/m -0,0 C -1,9 C 12,9 km/h (3 Bft) 100,00 %
24.02.2016 06:28 1,9 C 87 % 1017,6 hPa 0,0 l/m 10,1 km/h (2 Bft) W-SW 246 0 min 0,000 mm 0,0 UV-I 0 W/m -0,0 C -1,4 C 14,5 km/h (3 Bft) 100,00 %
24.02.2016 06:29 1,9 C 87 % 1017,6 hPa 0,0 l/m 13,8 km/h (3 Bft) W-SW 238 0 min 0,000 mm 0,0 UV-I 0 W/m -0,0 C -4,0 C 16,1 km/h (3 Bft) 100,00 %
24.02.2016 06:30 1,9 C 87 % 1017,5 hPa 0,0 l/m 12,2 km/h (2 Bft) W-SW 237 0 min 0,000 mm 0,0 UV-I 0 W/m -0,0 C -2,9 C 16,1 km/h (3 Bft) 100,00 %
24.02.2016 06:31 1,9 C 87 % 1017,6 hPa 0,0 l/m 10,3 km/h (2 Bft) S-SW 205 0 min 0,000 mm 0,0 UV-I 0 W/m -0,0 C -1,6 C 16,1 km/h (3 Bft) 100,00 %
24.02.2016 06:32 1,9 C 87 % 1017,6 hPa 0,0 l/m 13,5 km/h (3 Bft) SW 227 0 min 0,000 mm 0,0 UV-I 0 W/m -0,0 C -3,8 C 19,3 km/h (3 Bft) 100,00 %
24.02.2016 06:33 1,9 C 87 % 1017,6 hPa 0,0 l/m 12,2 km/h (2 Bft) W 261 0 min 0,000 mm 0,0 UV-I 0 W/m -0,0 C -2,9 C 19,3 km/h (3 Bft) 100,00 %
24.02.2016 06:34 1,9 C 87 % 1017,6 hPa 0,0 l/m 13,9 km/h (3 Bft) SW 219 0 min 0,000 mm 0,0 UV-I 0 W/m -0,0 C -4,0 C 19,3 km/h (3 Bft) 100,00 %
24.02.2016 06:35 1,9 C 87 % 1017,6 hPa 0,0 l/m 12,6 km/h (3 Bft) W-SW 244 0 min 0,000 mm 0,0 UV-I 0 W/m -0,0 C -3,2 C 17,7 km/h (3 Bft) 100,00 %
24.02.2016 06:36 1,9 C 87 % 1017,6 hPa 0,0 l/m 10,4 km/h (2 Bft) SW 216 0 min 0,000 mm 0,0 UV-I 0 W/m -0,0 C -1,7 C 16,1 km/h (3 Bft) 93,10 %
24.02.2016 06:37 1,9 C 87 % 1017,6 hPa 0,0 l/m 12,1 km/h (2 Bft) SW 217 0 min 0,000 mm 0,0 UV-I 0 W/m -0,0 C -2,9 C 17,7 km/h (3 Bft) 100,00 %
24.02.2016 06:38 1,9 C 87 % 1017,6 hPa 0,0 l/m 14,0 km/h (3 Bft) W-SW 241 0 min 0,000 mm 0,0 UV-I 0 W/m -0,0 C -4,1 C 19,3 km/h (3 Bft) 100,00 %
24.02.2016 06:39 1,9 C 87 % 1017,6 hPa 0,0 l/m 13,7 km/h (3 Bft) SW 233 0 min 0,000 mm 0,0 UV-I 0 W/m -0,0 C -3,9 C 19,3 km/h (3 Bft) 100,00 %
24.02.2016 06:40 1,9 C 87 % 1017,6 hPa 0,0 l/m 17,1 km/h (3 Bft) W-SW 242 0 min 0,000 mm 0,0 UV-I 0 W/m -0,0 C -5,8 C 24,1 km/h (4 Bft) 100,00 %
24.02.2016 06:41 1,9 C 87 % 1017,7 hPa 0,0 l/m 12,7 km/h (3 Bft) SW 231 0 min 0,000 mm 0,0 UV-I 0 W/m -0,0 C -3,3 C 16,1 km/h (3 Bft) 100,00 %
24.02.2016 06:42 1,9 C 87 % 1017,6 hPa 0,0 l/m 12,2 km/h (2 Bft) SW 227 0 min 0,000 mm 0,0 UV-I 0 W/m -0,0 C -2,9 C 19,3 km/h (3 Bft) 100,00 %
24.02.2016 06:43 1,9 C 87 % 1017,6 hPa 0,0 l/m 14,6 km/h (3 Bft) SW 236 0 min 0,000 mm 0,0 UV-I 0 W/m -0,0 C -4,4 C 20,9 km/h (4 Bft) 100,00 %
24.02.2016 06:44 1,9 C 87 % 1017,6 hPa 0,0 l/m 9,5 km/h (2 Bft) S-SW 212 0 min 0,000 mm 0,0 UV-I 0 W/m -0,0 C -1,0 C 12,9 km/h (3 Bft) 96,15 %
24.02.2016 06:45 1,9 C 88 % 1017,7 hPa 0,0 l/m 12,5 km/h (3 Bft) W-SW 240 0 min 0,000 mm 0,0 UV-I 0 W/m 0,1 C -3,1 C 17,7 km/h (3 Bft) 100,00 %
24.02.2016 06:46 1,9 C 88 % 1017,7 hPa 0,0 l/m 16,3 km/h (3 Bft) W-SW 242 0 min 0,000 mm 0,0 UV-I 0 W/m 0,1 C -5,4 C 24,1 km/h (4 Bft) 100,00 %
24.02.2016 06:47 1,9 C 88 % 1017,6 hPa 0,0 l/m 14,7 km/h (3 Bft) SW 230 0 min 0,000 mm 0,0 UV-I 0 W/m 0,1 C -4,5 C 22,5 km/h (4 Bft) 100,00 %
24.02.2016 06:48 1,9 C 88 % 1017,7 hPa 0,0 l/m 11,9 km/h (2 Bft) SW 229 0 min 0,000 mm 0,0 UV-I 0 W/m 0,1 C -2,7 C 17,7 km/h (3 Bft) 100,00 %
24.02.2016 06:49 1,9 C 88 % 1017,7 hPa 0,0 l/m 14,7 km/h (3 Bft) W-SW 257 0 min 0,000 mm 0,0 UV-I 0 W/m 0,1 C -4,5 C 19,3 km/h (3 Bft) 100,00 %
24.02.2016 06:50 1,9 C 88 % 1017,7 hPa 0,0 l/m 13,0 km/h (3 Bft) W-SW 246 0 min 0,000 mm 0,0 UV-I 0 W/m 0,1 C -3,5 C 19,3 km/h (3 Bft) 100,00 %
24.02.2016 06:51 1,9 C 88 % 1017,7 hPa 0,0 l/m 12,9 km/h (3 Bft) W-SW 252 0 min 0,000 mm 0,0 UV-I 0 W/m 0,1 C -3,4 C 17,7 km/h (3 Bft) 100,00 %
24.02.2016 06:52 1,9 C 88 % 1017,7 hPa 0,0 l/m 13,0 km/h (3 Bft) SW 236 0 min 0,000 mm 0,0 UV-I 0 W/m 0,1 C -3,5 C 16,1 km/h (3 Bft) 100,00 %
24.02.2016 06:53 1,9 C 88 % 1017,8 hPa 0,0 l/m 13,3 km/h (3 Bft) W-SW 246 0 min 0,000 mm 0,0 UV-I 0 W/m 0,1 C -3,7 C 19,3 km/h (3 Bft) 100,00 %
24.02.2016 06:54 1,9 C 88 % 1017,8 hPa 0,0 l/m 10,7 km/h (2 Bft) W-SW 238 0 min 0,000 mm 0,0 UV-I 0 W/m 0,1 C -1,9 C 14,5 km/h (3 Bft) 100,00 %
24.02.2016 06:55 1,9 C 88 % 1017,7 hPa 0,0 l/m 14,0 km/h (3 Bft) W-SW 255 0 min 0,000 mm 0,0 UV-I 0 W/m 0,1 C -4,1 C 20,9 km/h (4 Bft) 96,15 %
24.02.2016 06:56 1,9 C 88 % 1017,8 hPa 0,0 l/m 12,2 km/h (2 Bft) W-SW 255 0 min 0,000 mm 0,0 UV-I 0 W/m 0,1 C -2,9 C 14,5 km/h (3 Bft) 100,00 %
24.02.2016 06:57 1,9 C 88 % 1017,8 hPa 0,0 l/m 11,8 km/h (2 Bft) S-SW 207 0 min 0,000 mm 0,0 UV-I 0 W/m 0,1 C -2,7 C 17,7 km/h (3 Bft) 100,00 %
24.02.2016 06:58 1,9 C 88 % 1017,7 hPa 0,0 l/m 9,3 km/h (2 Bft) SW 234 0 min 0,000 mm 0,0 UV-I 0 W/m 0,1 C -0,8 C 12,9 km/h (3 Bft) 100,00 %
24.02.2016 06:59 1,9 C 88 % 1017,8 hPa 0,0 l/m 11,0 km/h (2 Bft) SW 221 0 min 0,000 mm 0,0 UV-I 0 W/m 0,1 C -2,1 C 16,1 km/h (3 Bft) 100,00 %
24.02.2016 07:00 1,9 C 88 % 1017,8 hPa 0,0 l/m 12,6 km/h (3 Bft) SW 224 0 min 0,026 mm 0,0 UV-I 0 W/m 0,1 C -3,2 C 16,1 km/h (3 Bft) 100,00 %
24.02.2016 07:01 1,9 C 88 % 1017,8 hPa 0,0 l/m 13,4 km/h (3 Bft) SW 230 0 min 0,000 mm 0,0 UV-I 0 W/m 0,1 C -3,7 C 19,3 km/h (3 Bft) 95,65 %
24.02.2016 07:02 1,9 C 88 % 1017,8 hPa 0,0 l/m 13,1 km/h (3 Bft) SW 225 0 min 0,000 mm 0,0 UV-I 0 W/m 0,1 C -3,5 C 16,1 km/h (3 Bft) 100,00 %
24.02.2016 07:03 1,9 C 88 % 1017,8 hPa 0,0 l/m 12,7 km/h (3 Bft) W-SW 257 0 min 0,000 mm 0,0 UV-I 0 W/m 0,1 C -3,3 C 17,7 km/h (3 Bft) 100,00 %
24.02.2016 07:04 1,9 C 88 % 1017,8 hPa 0,0 l/m 14,3 km/h (3 Bft) SW 226 0 min 0,000 mm 0,0 UV-I 0 W/m 0,1 C -4,3 C 19,3 km/h (3 Bft) 100,00 %
24.02.2016 07:05 1,9 C 88 % 1017,8 hPa 0,0 l/m 12,3 km/h (3 Bft) SW 215 0 min 0,000 mm 0,0 UV-I 0 W/m 0,1 C -3,0 C 17,7 km/h (3 Bft) 95,65 %
24.02.2016 07:06 1,9 C 88 % 1017,8 hPa 0,0 l/m 11,0 km/h (2 Bft) W-SW 237 0 min 0,000 mm 0,0 UV-I 4 W/m 0,1 C -2,1 C 16,1 km/h (3 Bft) 96,30 %
24.02.2016 07:08 1,9 C 88 % 1017,9 hPa 0,2 l/m 12,3 km/h (3 Bft) SW 217 0 min 0,000 mm 0,0 UV-I 5 W/m 0,1 C -3,0 C 14,5 km/h (3 Bft) 97,96 %
24.02.2016 07:09 1,9 C 88 % 1017,9 hPa 0,0 l/m 13,4 km/h (3 Bft) SW 229 0 min 0,000 mm 0,0 UV-I 0 W/m 0,1 C -3,7 C 17,7 km/h (3 Bft) 100,00 %
24.02.2016 07:10 1,9 C 88 % 1017,9 hPa 0,0 l/m 10,7 km/h (2 Bft) W-SW 257 0 min 0,000 mm 0,0 UV-I 0 W/m 0,1 C -1,9 C 16,1 km/h (3 Bft) 92,86 %
24.02.2016 07:11 1,9 C 88 % 1017,9 hPa 0,0 l/m 11,7 km/h (2 Bft) SW 221 0 min 0,000 mm 0,0 UV-I 0 W/m 0,1 C -2,6 C 17,7 km/h (3 Bft) 100,00 %
24.02.2016 07:12 1,9 C 88 % 1017,9 hPa 0,0 l/m 15,3 km/h (3 Bft) W-SW 245 0 min 0,000 mm 0,0 UV-I 4 W/m 0,1 C -4,8 C 19,3 km/h (3 Bft) 96,15 %
24.02.2016 07:13 1,9 C 88 % 1018,0 hPa 0,0 l/m 12,5 km/h (3 Bft) W-SW 242 0 min 0,000 mm 0,0 UV-I 5 W/m 0,1 C -3,1 C 14,5 km/h (3 Bft) 96,30 %
24.02.2016 07:14 1,9 C 88 % 1018,0 hPa 0,0 l/m 13,2 km/h (3 Bft) W-SW 238 0 min 0,000 mm 0,0 UV-I 5 W/m 0,1 C -3,6 C 16,1 km/h (3 Bft) 100,00 %
24.02.2016 07:15 1,9 C 88 % 1018,1 hPa 0,0 l/m 10,7 km/h (2 Bft) SW 234 0 min 0,000 mm 0,0 UV-I 7 W/m 0,1 C -1,9 C 16,1 km/h (3 Bft) 93,33 %
24.02.2016 07:16 1,9 C 88 % 1018,1 hPa 0,0 l/m 10,2 km/h (2 Bft) SW 226 0 min 0,000 mm 0,0 UV-I 7 W/m 0,1 C -1,5 C 14,5 km/h (3 Bft) 100,00 %
24.02.2016 07:17 1,9 C 88 % 1018,1 hPa 0,0 l/m 10,4 km/h (2 Bft) W-SW 249 0 min 0,000 mm 0,0 UV-I 7 W/m 0,1 C -1,7 C 16,1 km/h (3 Bft) 96,15 %
24.02.2016 07:18 1,9 C 88 % 1018,2 hPa 0,0 l/m 10,9 km/h (2 Bft) SW 220 0 min 0,000 mm 0,0 UV-I 7 W/m 0,1 C -2,0 C 12,9 km/h (3 Bft) 100,00 %
24.02.2016 07:19 2,0 C 88 % 1018,2 hPa 0,0 l/m 14,3 km/h (3 Bft) W-SW 257 0 min 0,000 mm 0,0 UV-I 7 W/m 0,2 C -4,2 C 20,9 km/h (4 Bft) 95,83 %
24.02.2016 07:20 2,0 C 88 % 1018,2 hPa 0,0 l/m 10,9 km/h (2 Bft) SW 225 0 min 0,000 mm 0,0 UV-I 7 W/m 0,2 C -1,9 C 16,1 km/h (3 Bft) 100,00 %
24.02.2016 07:21 2,0 C 88 % 1018,2 hPa 0,0 l/m 9,2 km/h (2 Bft) W-SW 252 0 min 0,000 mm 0,0 UV-I 8 W/m 0,2 C -0,6 C 12,9 km/h (3 Bft) 95,65 %
24.02.2016 07:22 2,0 C 88 % 1018,2 hPa 0,0 l/m 8,6 km/h (2 Bft) SW 236 0 min 0,000 mm 0,0 UV-I 9 W/m 0,2 C -0,1 C 11,3 km/h (2 Bft) 95,83 %
24.02.2016 07:23 2,0 C 88 % 1018,2 hPa 0,0 l/m 10,3 km/h (2 Bft) W-SW 239 0 min 0,000 mm 0,0 UV-I 10 W/m 0,2 C -1,5 C 16,1 km/h (3 Bft) 100,00 %
24.02.2016 07:24 2,0 C 88 % 1018,2 hPa 0,0 l/m 11,5 km/h (2 Bft) W-SW 253 0 min 0,000 mm 0,0 UV-I 11 W/m 0,2 C -2,4 C 14,5 km/h (3 Bft) 93,33 %
24.02.2016 07:25 2,0 C 88 % 1018,2 hPa 0,0 l/m 11,7 km/h (2 Bft) SW 220 0 min 0,000 mm 0,0 UV-I 12 W/m 0,2 C -2,5 C 16,1 km/h (3 Bft) 96,55 %
24.02.2016 07:26 2,0 C 88 % 1018,2 hPa 0,0 l/m 12,2 km/h (2 Bft) SW 226 0 min 0,000 mm 0,0 UV-I 12 W/m 0,2 C -2,8 C 17,7 km/h (3 Bft) 96,30 %
24.02.2016 07:27 2,0 C 88 % 1018,2 hPa 0,0 l/m 11,0 km/h (2 Bft) SW 221 0 min 0,000 mm 0,0 UV-I 13 W/m 0,2 C -2,0 C 14,5 km/h (3 Bft) 100,00 %
24.02.2016 07:28 2,0 C 88 % 1018,3 hPa 0,0 l/m 9,3 km/h (2 Bft) SW 229 0 min 0,000 mm 0,0 UV-I 17 W/m 0,2 C -0,7 C 12,9 km/h (3 Bft) 96,67 %
24.02.2016 07:29 2,1 C 88 % 1018,3 hPa 0,0 l/m 12,2 km/h (2 Bft) SW 229 0 min 0,000 mm 0,0 UV-I 18 W/m 0,3 C -2,7 C 16,1 km/h (3 Bft) 96,15 %
24.02.2016 07:30 2,0 C 88 % 1018,3 hPa 0,0 l/m 9,7 km/h (2 Bft) W-SW 245 0 min 0,000 mm 0,0 UV-I 17 W/m 0,2 C -1,0 C 14,5 km/h (3 Bft) 95,83 %
24.02.2016 07:31 2,1 C 88 % 1018,3 hPa 0,0 l/m 11,7 km/h (2 Bft) SW 231 0 min 0,000 mm 0,0 UV-I 14 W/m 0,3 C -2,4 C 14,5 km/h (3 Bft) 92,31 %
24.02.2016 07:32 2,1 C 88 % 1018,3 hPa 0,0 l/m 11,6 km/h (2 Bft) SW 224 0 min 0,000 mm 0,0 UV-I 14 W/m 0,3 C -2,3 C 16,1 km/h (3 Bft) 100,00 %
24.02.2016 07:33 2,1 C 88 % 1018,3 hPa 0,0 l/m 14,0 km/h (3 Bft) SW 216 0 min 0,000 mm 0,0 UV-I 15 W/m 0,3 C -3,9 C 19,3 km/h (3 Bft) 90,91 %
24.02.2016 07:34 2,1 C 88 % 1018,4 hPa 0,0 l/m 10,9 km/h (2 Bft) W 265 0 min 0,000 mm 0,0 UV-I 14 W/m 0,3 C -1,8 C 16,1 km/h (3 Bft) 96,30 %
24.02.2016 07:35 2,1 C 88 % 1018,4 hPa 0,0 l/m 12,4 km/h (3 Bft) SW 236 0 min 0,000 mm 0,0 UV-I 13 W/m 0,3 C -2,9 C 16,1 km/h (3 Bft) 96,15 %
24.02.2016 07:36 2,1 C 88 % 1018,4 hPa 0,0 l/m 10,5 km/h (2 Bft) W-SW 250 0 min 0,000 mm 0,0 UV-I 12 W/m 0,3 C -1,5 C 16,1 km/h (3 Bft) 96,30 %
24.02.2016 07:37 2,1 C 88 % 1018,4 hPa 0,0 l/m 9,7 km/h (2 Bft) SW 227 0 min 0,000 mm 0,0 UV-I 12 W/m 0,3 C -0,9 C 14,5 km/h (3 Bft) 94,12 %
24.02.2016 07:38 2,1 C 88 % 1018,5 hPa 0,0 l/m 11,0 km/h (2 Bft) W-SW 255 0 min 0,000 mm 0,0 UV-I 14 W/m 0,3 C -1,9 C 16,1 km/h (3 Bft) 100,00 %
24.02.2016 07:39 2,1 C 88 % 1018,5 hPa 0,0 l/m 11,2 km/h (2 Bft) SW 225 0 min 0,000 mm 0,0 UV-I 14 W/m 0,3 C -2,0 C 14,5 km/h (3 Bft) 96,15 %
24.02.2016 07:40 2,1 C 88 % 1018,4 hPa 0,0 l/m 11,1 km/h (2 Bft) W 260 0 min 0,000 mm 0,0 UV-I 15 W/m 0,3 C -2,0 C 14,5 km/h (3 Bft) 95,83 %
24.02.2016 07:41 2,1 C 88 % 1018,5 hPa 0,0 l/m 10,5 km/h (2 Bft) SW 220 0 min 0,000 mm 0,0 UV-I 16 W/m 0,3 C -1,5 C 12,9 km/h (3 Bft) 100,00 %
24.02.2016 07:42 2,1 C 88 % 1018,5 hPa 0,0 l/m 10,5 km/h (2 Bft) W-SW 251 0 min 0,000 mm 0,0 UV-I 18 W/m 0,3 C -1,5 C 16,1 km/h (3 Bft) 100,00 %
24.02.2016 07:43 2,1 C 88 % 1018,5 hPa 0,0 l/m 11,6 km/h (2 Bft) SW 231 0 min 0,000 mm 0,0 UV-I 19 W/m 0,3 C -2,3 C 16,1 km/h (3 Bft) 100,00 %
24.02.2016 07:44 2,1 C 88 % 1018,5 hPa 0,0 l/m 10,9 km/h (2 Bft) SW 229 0 min 0,000 mm 0,0 UV-I 21 W/m 0,3 C -1,8 C 14,5 km/h (3 Bft) 91,67 %
24.02.2016 07:45 2,1 C 88 % 1018,4 hPa 0,0 l/m 7,6 km/h (2 Bft) SW 221 0 min 0,000 mm 0,0 UV-I 21 W/m 0,3 C 0,9 C 11,3 km/h (2 Bft) 100,00 %
24.02.2016 07:46 2,1 C 88 % 1018,5 hPa 0,0 l/m 9,9 km/h (2 Bft) W-SW 242 0 min 0,000 mm 0,0 UV-I 21 W/m 0,3 C -1,1 C 14,5 km/h (3 Bft) 100,00 %
24.02.2016 07:47 2,1 C 88 % 1018,5 hPa 0,0 l/m 12,0 km/h (2 Bft) W-SW 240 0 min 0,000 mm 0,0 UV-I 20 W/m 0,3 C -2,6 C 17,7 km/h (3 Bft) 100,00 %
24.02.2016 07:48 2,1 C 88 % 1018,5 hPa 0,0 l/m 8,0 km/h (2 Bft) W 270 0 min 0,000 mm 0,0 UV-I 18 W/m 0,3 C 0,6 C 12,9 km/h (3 Bft) 100,00 %
24.02.2016 07:49 2,1 C 88 % 1018,5 hPa 0,0 l/m 9,4 km/h (2 Bft) W-SW 252 0 min 0,000 mm 0,0 UV-I 19 W/m 0,3 C -0,7 C 12,9 km/h (3 Bft) 95,83 %
24.02.2016 07:50 2,1 C 88 % 1018,5 hPa 0,0 l/m 9,3 km/h (2 Bft) W 266 0 min 0,000 mm 0,0 UV-I 21 W/m 0,3 C -0,6 C 14,5 km/h (3 Bft) 96,15 %
24.02.2016 07:51 2,1 C 88 % 1018,6 hPa 0,0 l/m 8,7 km/h (2 Bft) SW 226 0 min 0,000 mm 0,0 UV-I 25 W/m 0,3 C -0,1 C 14,5 km/h (3 Bft) 100,00 %
24.02.2016 07:52 2,1 C 88 % 1018,6 hPa 0,0 l/m 11,5 km/h (2 Bft) W-SW 249 0 min 0,000 mm 0,0 UV-I 25 W/m 0,3 C -2,2 C 16,1 km/h (3 Bft) 96,15 %
24.02.2016 07:53 2,1 C 88 % 1018,6 hPa 0,0 l/m 12,7 km/h (3 Bft) W-SW 252 0 min 0,000 mm 0,0 UV-I 25 W/m 0,3 C -3,0 C 17,7 km/h (3 Bft) 100,00 %
24.02.2016 07:54 2,1 C 88 % 1018,6 hPa 0,0 l/m 12,4 km/h (3 Bft) SW 229 0 min 0,000 mm 0,0 UV-I 25 W/m 0,3 C -2,9 C 16,1 km/h (3 Bft) 100,00 %
24.02.2016 07:55 2,1 C 88 % 1018,6 hPa 0,0 l/m 8,0 km/h (2 Bft) W-SW 242 0 min 0,000 mm 0,0 UV-I 25 W/m 0,3 C 0,6 C 11,3 km/h (2 Bft) 100,00 %
24.02.2016 07:56 2,2 C 88 % 1018,6 hPa 0,0 l/m 6,4 km/h (2 Bft) SW 234 0 min 0,000 mm 0,0 UV-I 25 W/m 0,4 C 2,2 C 11,3 km/h (2 Bft) 100,00 %
24.02.2016 07:57 2,2 C 88 % 1018,7 hPa 0,0 l/m 8,4 km/h (2 Bft) W 272 0 min 0,000 mm 0,0 UV-I 25 W/m 0,4 C 0,3 C 12,9 km/h (3 Bft) 100,00 %
24.02.2016 07:58 2,2 C 88 % 1018,6 hPa 0,0 l/m 10,4 km/h (2 Bft) W-SW 245 0 min 0,000 mm 0,0 UV-I 21 W/m 0,4 C -1,3 C 12,9 km/h (3 Bft) 96,55 %
24.02.2016 07:59 2,2 C 88 % 1018,7 hPa 0,0 l/m 10,5 km/h (2 Bft) W-SW 249 0 min 0,000 mm 0,0 UV-I 19 W/m 0,4 C -1,4 C 12,9 km/h (3 Bft) 100,00 %
24.02.2016 08:00 2,2 C 88 % 1018,7 hPa 0,0 l/m 7,4 km/h (2 Bft) W-SW 254 0 min 0,025 mm 0,0 UV-I 22 W/m 0,4 C 1,2 C 8,0 km/h (2 Bft) 100,00 %
24.02.2016 08:01 2,2 C 88 % 1018,7 hPa 0,0 l/m 7,0 km/h (2 Bft) SW 233 0 min 0,000 mm 0,0 UV-I 22 W/m 0,4 C 1,6 C 8,0 km/h (2 Bft) 100,00 %
24.02.2016 08:02 2,2 C 88 % 1018,7 hPa 0,0 l/m 7,3 km/h (2 Bft) SW 231 0 min 0,000 mm 0,0 UV-I 19 W/m 0,4 C 1,3 C 9,7 km/h (2 Bft) 100,00 %
24.02.2016 08:03 2,2 C 89 % 1018,8 hPa 0,0 l/m 7,0 km/h (2 Bft) SW 234 0 min 0,000 mm 0,0 UV-I 15 W/m 0,6 C 1,6 C 9,7 km/h (2 Bft) 100,00 %
24.02.2016 08:04 2,2 C 88 % 1018,8 hPa 0,0 l/m 7,4 km/h (2 Bft) SW 223 0 min 0,000 mm 0,0 UV-I 16 W/m 0,4 C 1,2 C 9,7 km/h (2 Bft) 98,41 %
24.02.2016 08:05 2,2 C 89 % 1018,8 hPa 0,0 l/m 9,1 km/h (2 Bft) SW 220 0 min 0,000 mm 0,0 UV-I 19 W/m 0,6 C -0,3 C 14,5 km/h (3 Bft) 100,00 %
24.02.2016 08:06 2,2 C 88 % 1018,8 hPa 0,0 l/m 10,7 km/h (2 Bft) W-SW 237 0 min 0,000 mm 0,0 UV-I 19 W/m 0,4 C -1,6 C 16,1 km/h (3 Bft) 100,00 %
24.02.2016 08:07 2,2 C 88 % 1018,8 hPa 0,0 l/m 8,5 km/h (2 Bft) SW 222 0 min 0,000 mm 0,0 UV-I 19 W/m 0,4 C 0,2 C 11,3 km/h (2 Bft) 100,00 %
24.02.2016 08:08 2,2 C 88 % 1018,8 hPa 0,0 l/m 9,1 km/h (2 Bft) SW 231 0 min 0,000 mm 0,0 UV-I 22 W/m 0,4 C -0,3 C 14,5 km/h (3 Bft) 100,00 %
24.02.2016 08:09 2,2 C 88 % 1018,8 hPa 0,0 l/m 9,3 km/h (2 Bft) SW 224 0 min 0,000 mm 0,0 UV-I 23 W/m 0,4 C -0,5 C 12,9 km/h (3 Bft) 100,00 %
24.02.2016 08:10 2,2 C 88 % 1018,9 hPa 0,0 l/m 7,2 km/h (2 Bft) SW 219 0 min 0,000 mm 0,0 UV-I 20 W/m 0,4 C 1,4 C 12,9 km/h (3 Bft) 100,00 %
24.02.2016 08:11 2,2 C 88 % 1018,9 hPa 0,0 l/m 10,0 km/h (2 Bft) SW 235 0 min 0,000 mm 0,0 UV-I 18 W/m 0,4 C -1,0 C 14,5 km/h (3 Bft) 100,00 %
24.02.2016 08:12 2,2 C 88 % 1018,9 hPa 0,0 l/m 8,7 km/h (2 Bft) SW 214 0 min 0,000 mm 0,0 UV-I 18 W/m 0,4 C 0,0 C 11,3 km/h (2 Bft) 100,00 %
24.02.2016 08:13 2,2 C 88 % 1018,9 hPa 0,0 l/m 7,5 km/h (2 Bft) W-SW 244 0 min 0,000 mm 0,0 UV-I 20 W/m 0,4 C 1,1 C 14,5 km/h (3 Bft) 95,65 %
24.02.2016 08:14 2,2 C 88 % 1018,9 hPa 0,0 l/m 7,4 km/h (2 Bft) SW 233 0 min 0,000 mm 0,0 UV-I 24 W/m 0,4 C 1,2 C 11,3 km/h (2 Bft) 100,00 %
24.02.2016 08:15 2,2 C 89 % 1018,9 hPa 0,0 l/m 7,4 km/h (2 Bft) W 259 0 min 0,000 mm 0,0 UV-I 26 W/m 0,6 C 1,2 C 9,7 km/h (2 Bft) 100,00 %
24.02.2016 08:16 2,2 C 89 % 1018,9 hPa 0,0 l/m 5,8 km/h (2 Bft) S-SW 194 0 min 0,000 mm 0,0 UV-I 29 W/m 0,6 C 2,2 C 9,7 km/h (2 Bft) 100,00 %
24.02.2016 08:17 2,2 C 89 % 1019,0 hPa 0,0 l/m 12,7 km/h (3 Bft) W-SW 254 0 min 0,000 mm 0,0 UV-I 28 W/m 0,6 C -2,9 C 17,7 km/h (3 Bft) 100,00 %
24.02.2016 08:18 2,2 C 89 % 1018,9 hPa 0,0 l/m 10,0 km/h (2 Bft) W 259 0 min 0,000 mm 0,0 UV-I 26 W/m 0,6 C -1,0 C 16,1 km/h (3 Bft) 100,00 %
24.02.2016 08:19 2,2 C 89 % 1019,0 hPa 0,0 l/m 10,0 km/h (2 Bft) W 271 0 min 0,000 mm 0,0 UV-I 25 W/m 0,6 C -1,0 C 14,5 km/h (3 Bft) 100,00 %
24.02.2016 08:20 2,2 C 89 % 1019,0 hPa 0,0 l/m 9,2 km/h (2 Bft) W-SW 247 0 min 0,000 mm 0,0 UV-I 25 W/m 0,6 C -0,4 C 12,9 km/h (3 Bft) 100,00 %
24.02.2016 08:21 2,2 C 88 % 1019,0 hPa 0,0 l/m 7,9 km/h (2 Bft) W-SW 257 0 min 0,000 mm 0,0 UV-I 27 W/m 0,4 C 0,8 C 12,9 km/h (3 Bft) 100,00 %
24.02.2016 08:22 2,3 C 88 % 1019,0 hPa 0,0 l/m 8,2 km/h (2 Bft) SW 235 0 min 0,000 mm 0,0 UV-I 30 W/m 0,5 C 0,6 C 11,3 km/h (2 Bft) 100,00 %
24.02.2016 08:23 2,3 C 89 % 1019,0 hPa 0,0 l/m 9,0 km/h (2 Bft) SW 220 0 min 0,000 mm 0,0 UV-I 34 W/m 0,7 C -0,1 C 12,9 km/h (3 Bft) 100,00 %
24.02.2016 08:24 2,3 C 88 % 1019,0 hPa 0,0 l/m 8,1 km/h (2 Bft) W-SW 255 0 min 0,000 mm 0,0 UV-I 37 W/m 0,5 C 0,7 C 11,3 km/h (2 Bft) 100,00 %
24.02.2016 08:25 2,3 C 88 % 1018,9 hPa 0,0 l/m 8,3 km/h (2 Bft) SW 234 0 min 0,000 mm 0,0 UV-I 34 W/m 0,5 C 0,5 C 11,3 km/h (2 Bft) 100,00 %
24.02.2016 08:26 2,3 C 88 % 1019,0 hPa 0,0 l/m 8,9 km/h (2 Bft) W 262 0 min 0,000 mm 0,0 UV-I 32 W/m 0,5 C -0,0 C 11,3 km/h (2 Bft) 100,00 %
24.02.2016 08:27 2,3 C 88 % 1019,0 hPa 0,0 l/m 8,9 km/h (2 Bft) W-SW 258 0 min 0,000 mm 0,0 UV-I 29 W/m 0,5 C -0,0 C 14,5 km/h (3 Bft) 100,00 %
24.02.2016 08:28 2,3 C 88 % 1019,0 hPa 0,0 l/m 9,6 km/h (2 Bft) SW 236 0 min 0,000 mm 0,0 UV-I 28 W/m 0,5 C -0,6 C 12,9 km/h (3 Bft) 100,00 %
24.02.2016 08:29 2,3 C 88 % 1019,0 hPa 0,0 l/m 6,9 km/h (2 Bft) W-SW 240 0 min 0,000 mm 0,0 UV-I 28 W/m 0,5 C 1,8 C 8,0 km/h (2 Bft) 100,00 %
24.02.2016 08:30 2,3 C 88 % 1019,0 hPa 0,0 l/m 8,6 km/h (2 Bft) W-SW 240 0 min 0,000 mm 0,0 UV-I 32 W/m 0,5 C 0,2 C 12,9 km/h (3 Bft) 100,00 %
24.02.2016 08:31 2,3 C 89 % 1019,0 hPa 0,0 l/m 8,6 km/h (2 Bft) SW 223 0 min 0,000 mm 0,0 UV-I 35 W/m 0,7 C 0,2 C 11,3 km/h (2 Bft) 100,00 %
24.02.2016 08:32 2,3 C 89 % 1019,0 hPa 0,0 l/m 9,5 km/h (2 Bft) SW 227 0 min 0,000 mm 0,0 UV-I 40 W/m 0,7 C -0,5 C 14,5 km/h (3 Bft) 100,00 %
24.02.2016 08:33 2,3 C 89 % 1019,0 hPa 0,0 l/m 7,1 km/h (2 Bft) W-SW 250 0 min 0,000 mm 0,0 UV-I 40 W/m 0,7 C 1,6 C 12,9 km/h (3 Bft) 100,00 %
24.02.2016 08:34 2,3 C 89 % 1019,0 hPa 0,0 l/m 6,1 km/h (2 Bft) W-SW 241 0 min 0,000 mm 0,0 UV-I 33 W/m 0,7 C 2,3 C 9,7 km/h (2 Bft) 98,57 %
24.02.2016 08:35 2,3 C 89 % 1019,1 hPa 0,0 l/m 7,6 km/h (2 Bft) SW 224 0 min 0,000 mm 0,0 UV-I 27 W/m 0,7 C 1,1 C 11,3 km/h (2 Bft) 100,00 %
24.02.2016 08:36 2,3 C 89 % 1019,1 hPa 0,0 l/m 9,3 km/h (2 Bft) SW 217 0 min 0,000 mm 0,0 UV-I 26 W/m 0,7 C -0,4 C 12,9 km/h (3 Bft) 100,00 %
24.02.2016 08:37 2,3 C 89 % 1019,1 hPa 0,0 l/m 8,3 km/h (2 Bft) W-SW 240 0 min 0,000 mm 0,0 UV-I 29 W/m 0,7 C 0,5 C 11,3 km/h (2 Bft) 100,00 %
24.02.2016 08:38 2,3 C 89 % 1019,1 hPa 0,0 l/m 6,5 km/h (2 Bft) W-SW 257 0 min 0,000 mm 0,0 UV-I 35 W/m 0,7 C 2,2 C 9,7 km/h (2 Bft) 100,00 %
24.02.2016 08:39 2,3 C 89 % 1019,1 hPa 0,0 l/m 5,7 km/h (1 Bft) S-SW 196 0 min 0,000 mm 0,0 UV-I 37 W/m 0,7 C 2,3 C 8,0 km/h (2 Bft) 96,15 %
24.02.2016 08:40 2,3 C 89 % 1019,1 hPa 0,0 l/m 3,6 km/h (1 Bft) W-SW 239 0 min 0,000 mm 0,0 UV-I 36 W/m 0,7 C 2,3 C 6,4 km/h (2 Bft) 100,00 %
24.02.2016 08:41 2,3 C 89 % 1019,1 hPa 0,0 l/m 6,4 km/h (2 Bft) SW 232 0 min 0,000 mm 0,0 UV-I 35 W/m 0,7 C 2,3 C 11,3 km/h (2 Bft) 100,00 %
24.02.2016 08:42 2,3 C 89 % 1019,0 hPa 0,0 l/m 4,9 km/h (1 Bft) S 183 0 min 0,000 mm 0,0 UV-I 33 W/m 0,7 C 2,3 C 8,0 km/h (2 Bft) 100,00 %
24.02.2016 08:43 2,3 C 89 % 1019,1 hPa 0,0 l/m 7,0 km/h (2 Bft) S-SW 206 0 min 0,000 mm 0,0 UV-I 34 W/m 0,7 C 1,7 C 11,3 km/h (2 Bft) 100,00 %
24.02.2016 08:44 2,3 C 89 % 1019,1 hPa 0,0 l/m 6,5 km/h (2 Bft) S-SW 202 0 min 0,000 mm 0,0 UV-I 40 W/m 0,7 C 2,2 C 11,3 km/h (2 Bft) 100,00 %
24.02.2016 08:45 2,3 C 89 % 1019,1 hPa 0,0 l/m 10,0 km/h (2 Bft) S-SW 193 0 min 0,000 mm 0,0 UV-I 45 W/m 0,7 C -0,9 C 12,9 km/h (3 Bft) 100,00 %
24.02.2016 08:46 2,3 C 89 % 1019,1 hPa 0,0 l/m 8,7 km/h (2 Bft) S-SW 211 0 min 0,000 mm 0,0 UV-I 56 W/m 0,7 C 0,1 C 12,9 km/h (3 Bft) 100,00 %
24.02.2016 08:47 2,3 C 89 % 1019,1 hPa 0,0 l/m 8,6 km/h (2 Bft) S-SW 201 0 min 0,000 mm 0,0 UV-I 78 W/m 0,7 C 0,2 C 9,7 km/h (2 Bft) 100,00 %
24.02.2016 08:48 2,3 C 89 % 1019,1 hPa 0,0 l/m 6,0 km/h (2 Bft) S-SW 198 0 min 0,000 mm 0,0 UV-I 93 W/m 0,7 C 2,3 C 9,7 km/h (2 Bft) 100,00 %
24.02.2016 08:49 2,3 C 89 % 1019,1 hPa 0,0 l/m 8,6 km/h (2 Bft) S 178 0 min 0,000 mm 0,0 UV-I 94 W/m 0,7 C 0,2 C 12,9 km/h (3 Bft) 100,00 %
24.02.2016 08:50 2,3 C 89 % 1019,1 hPa 0,0 l/m 7,0 km/h (2 Bft) S-SW 201 0 min 0,000 mm 0,0 UV-I 89 W/m 0,7 C 1,7 C 9,7 km/h (2 Bft) 100,00 %
24.02.2016 08:51 2,3 C 89 % 1019,1 hPa 0,0 l/m 9,3 km/h (2 Bft) S-SW 202 0 min 0,000 mm 0,0 UV-I 85 W/m 0,7 C -0,4 C 16,1 km/h (3 Bft) 100,00 %
24.02.2016 08:52 2,3 C 89 % 1019,0 hPa 0,0 l/m 11,0 km/h (2 Bft) SW 218 0 min 0,000 mm 0,0 UV-I 89 W/m 0,7 C -1,7 C 16,1 km/h (3 Bft) 100,00 %
24.02.2016 08:53 2,3 C 89 % 1019,0 hPa 0,0 l/m 6,5 km/h (2 Bft) SW 228 0 min 0,000 mm 0,0 UV-I 103 W/m 0,7 C 2,2 C 9,7 km/h (2 Bft) 100,00 %
24.02.2016 08:54 2,3 C 89 % 1018,9 hPa 0,0 l/m 8,4 km/h (2 Bft) SW 236 0 min 0,000 mm 0,0 UV-I 122 W/m 0,7 C 0,4 C 12,9 km/h (3 Bft) 100,00 %
24.02.2016 08:55 2,3 C 89 % 1019,0 hPa 0,0 l/m 7,9 km/h (2 Bft) S-SW 207 0 min 0,000 mm 0,0 UV-I 132 W/m 0,7 C 0,9 C 12,9 km/h (3 Bft) 96,67 %
24.02.2016 08:56 2,3 C 89 % 1019,0 hPa 0,0 l/m 8,5 km/h (2 Bft) SW 232 1 min 0,000 mm 0,0 UV-I 169 W/m 0,7 C 0,3 C 11,3 km/h (2 Bft) 100,00 %
24.02.2016 08:57 2,4 C 89 % 1019,0 hPa 0,0 l/m 7,5 km/h (2 Bft) S-SW 211 1 min 0,000 mm 0,0 UV-I 227 W/m 0,8 C 1,3 C 12,9 km/h (3 Bft) 100,00 %
24.02.2016 08:58 2,5 C 90 % 1019,0 hPa 0,0 l/m 7,1 km/h (2 Bft) S 177 1 min 0,000 mm 0,0 UV-I 286 W/m 1,0 C 1,8 C 9,7 km/h (2 Bft) 93,33 %
24.02.2016 08:59 2,6 C 90 % 1019,0 hPa 0,0 l/m 7,4 km/h (2 Bft) S-SW 194 1 min 0,000 mm 0,0 UV-I 249 W/m 1,1 C 1,6 C 9,7 km/h (2 Bft) 100,00 %
24.02.2016 09:00 2,7 C 89 % 1019,0 hPa 0,0 l/m 12,5 km/h (3 Bft) SW 215 0 min 0,000 mm 0,0 UV-I 161 W/m 1,1 C -2,2 C 19,3 km/h (3 Bft) 95,65 %
24.02.2016 09:02 2,7 C 88 % 1019,0 hPa 0,0 l/m 11,3 km/h (2 Bft) S-SW 202 2 min 0,025 mm 0,3 UV-I 192 W/m 0,9 C -1,4 C 16,1 km/h (3 Bft) 100,00 %
24.02.2016 09:03 2,7 C 88 % 1019,0 hPa 0,0 l/m 13,3 km/h (3 Bft) S 186 1 min 0,000 mm 0,5 UV-I 229 W/m 0,9 C -2,7 C 20,9 km/h (4 Bft) 100,00 %
24.02.2016 09:04 2,7 C 88 % 1019,1 hPa 0,0 l/m 10,6 km/h (2 Bft) W-SW 238 1 min 0,000 mm 0,5 UV-I 246 W/m 0,9 C -0,9 C 16,1 km/h (3 Bft) 100,00 %
24.02.2016 09:05 2,7 C 88 % 1019,0 hPa 0,0 l/m 11,6 km/h (2 Bft) S 188 1 min 0,000 mm 0,5 UV-I 374 W/m 0,9 C -1,6 C 17,7 km/h (3 Bft) 100,00 %
24.02.2016 09:06 2,8 C 89 % 1019,0 hPa 0,0 l/m 8,9 km/h (2 Bft) W-SW 243 1 min 0,000 mm 0,5 UV-I 385 W/m 1,2 C 0,5 C 17,7 km/h (3 Bft) 100,00 %
24.02.2016 09:07 2,9 C 90 % 1019,1 hPa 0,0 l/m 10,2 km/h (2 Bft) SW 225 1 min 0,000 mm 0,5 UV-I 362 W/m 1,4 C -0,4 C 16,1 km/h (3 Bft) 100,00 %
24.02.2016 09:08 3,1 C 89 % 1019,0 hPa 0,0 l/m 13,0 km/h (3 Bft) W-SW 245 1 min 0,000 mm 0,3 UV-I 312 W/m 1,5 C -2,1 C 17,7 km/h (3 Bft) 96,15 %
24.02.2016 09:09 3,1 C 87 % 1019,0 hPa 0,0 l/m 11,7 km/h (2 Bft) W-SW 248 1 min 0,000 mm 0,0 UV-I 251 W/m 1,2 C -1,2 C 17,7 km/h (3 Bft) 100,00 %
24.02.2016 09:10 3,0 C 87 % 1019,0 hPa 0,0 l/m 10,1 km/h (2 Bft) SW 225 1 min 0,000 mm 0,0 UV-I 236 W/m 1,1 C -0,2 C 16,1 km/h (3 Bft) 92,31 %
24.02.2016 09:11 3,0 C 87 % 1019,0 hPa 0,0 l/m 8,0 km/h (2 Bft) S 190 0 min 0,000 mm 0,0 UV-I 149 W/m 1,1 C 1,5 C 12,9 km/h (3 Bft) 96,30 %
24.02.2016 09:12 3,1 C 87 % 1019,1 hPa 0,0 l/m 9,3 km/h (2 Bft) S-SW 201 0 min 0,000 mm 0,0 UV-I 129 W/m 1,2 C 0,5 C 16,1 km/h (3 Bft) 91,30 %
24.02.2016 09:13 3,1 C 87 % 1019,1 hPa 0,0 l/m 12,1 km/h (2 Bft) W-SW 244 0 min 0,000 mm 0,0 UV-I 123 W/m 1,2 C -1,5 C 17,7 km/h (3 Bft) 100,00 %
24.02.2016 09:14 3,0 C 87 % 1019,1 hPa 0,0 l/m 8,6 km/h (2 Bft) SW 216 0 min 0,000 mm 0,0 UV-I 112 W/m 1,1 C 1,0 C 17,7 km/h (3 Bft) 96,15 %
24.02.2016 09:15 3,0 C 87 % 1019,1 hPa 0,0 l/m 8,9 km/h (2 Bft) SW 232 0 min 0,000 mm 0,0 UV-I 98 W/m 1,1 C 0,7 C 14,5 km/h (3 Bft) 96,30 %
24.02.2016 09:16 3,0 C 87 % 1019,1 hPa 0,0 l/m 11,2 km/h (2 Bft) W-SW 251 0 min 0,000 mm 0,0 UV-I 91 W/m 1,1 C -1,0 C 20,9 km/h (4 Bft) 100,00 %
24.02.2016 09:17 3,0 C 87 % 1019,0 hPa 0,0 l/m 14,9 km/h (3 Bft) S-SO 167 0 min 0,000 mm 0,0 UV-I 100 W/m 1,1 C -3,3 C 24,1 km/h (4 Bft) 93,10 %
24.02.2016 09:18 3,0 C 87 % 1019,0 hPa 0,0 l/m 13,8 km/h (3 Bft) S-SW 210 0 min 0,000 mm 0,0 UV-I 105 W/m 1,1 C -2,7 C 24,1 km/h (4 Bft) 100,00 %
24.02.2016 09:19 2,9 C 86 % 1019,0 hPa 0,0 l/m 14,3 km/h (3 Bft) SW 222 0 min 0,000 mm 0,0 UV-I 106 W/m 0,8 C -3,1 C 19,3 km/h (3 Bft) 96,15 %
24.02.2016 09:20 2,9 C 87 % 1019,1 hPa 0,0 l/m 20,2 km/h (4 Bft) S-SW 203 0 min 0,000 mm 0,0 UV-I 115 W/m 1,0 C -6,0 C 24,1 km/h (4 Bft) 100,00 %
24.02.2016 09:21 2,8 C 86 % 1019,0 hPa 0,2 l/m 16,6 km/h (3 Bft) S-SW 197 0 min 0,000 mm 0,0 UV-I 124 W/m 0,7 C -4,4 C 22,5 km/h (4 Bft) 91,67 %
24.02.2016 09:22 2,8 C 86 % 1019,0 hPa 0,0 l/m 18,0 km/h (3 Bft) SW 218 0 min 0,000 mm 0,0 UV-I 127 W/m 0,7 C -5,1 C 25,7 km/h (4 Bft) 100,00 %
24.02.2016 09:23 2,8 C 86 % 1019,0 hPa 0,0 l/m 17,6 km/h (3 Bft) S 189 0 min 0,000 mm 0,0 UV-I 119 W/m 0,7 C -4,9 C 22,5 km/h (4 Bft) 96,15 %
24.02.2016 09:24 2,8 C 86 % 1019,0 hPa 0,0 l/m 13,5 km/h (3 Bft) W 265 0 min 0,000 mm 0,0 UV-I 102 W/m 0,7 C -2,7 C 16,1 km/h (3 Bft) 93,33 %
24.02.2016 09:25 2,8 C 87 % 1019,0 hPa 0,0 l/m 12,1 km/h (2 Bft) SW 227 0 min 0,000 mm 0,0 UV-I 100 W/m 0,9 C -1,8 C 22,5 km/h (4 Bft) 96,77 %
24.02.2016 09:26 2,8 C 86 % 1019,0 hPa 0,0 l/m 12,6 km/h (3 Bft) SW 221 0 min 0,000 mm 0,0 UV-I 114 W/m 0,7 C -2,2 C 22,5 km/h (4 Bft) 96,67 %
24.02.2016 09:27 2,8 C 87 % 1019,0 hPa 0,0 l/m 15,4 km/h (3 Bft) W-SW 240 0 min 0,000 mm 0,0 UV-I 141 W/m 0,9 C -3,8 C 22,5 km/h (4 Bft) 100,00 %
24.02.2016 09:28 2,8 C 87 % 1019,0 hPa 0,0 l/m 14,2 km/h (3 Bft) SW 227 0 min 0,000 mm 0,0 UV-I 153 W/m 0,9 C -3,1 C 20,9 km/h (4 Bft) 92,59 %
24.02.2016 09:29 2,8 C 87 % 1019,0 hPa 0,0 l/m 17,5 km/h (3 Bft) SW 231 0 min 0,000 mm 0,0 UV-I 187 W/m 0,9 C -4,9 C 24,1 km/h (4 Bft) 100,00 %
24.02.2016 09:30 2,8 C 87 % 1019,0 hPa 0,0 l/m 16,3 km/h (3 Bft) SW 227 0 min 0,000 mm 0,0 UV-I 190 W/m 0,9 C -4,3 C 22,5 km/h (4 Bft) 91,67 %
24.02.2016 09:31 2,8 C 87 % 1019,0 hPa 0,0 l/m 14,2 km/h (3 Bft) S 181 0 min 0,000 mm 0,0 UV-I 190 W/m 0,9 C -3,1 C 17,7 km/h (3 Bft) 100,00 %
24.02.2016 09:32 2,9 C 87 % 1019,1 hPa 0,0 l/m 17,4 km/h (3 Bft) SW 216 1 min 0,000 mm 0,2 UV-I 332 W/m 1,0 C -4,7 C 20,9 km/h (4 Bft) 97,56 %
24.02.2016 09:33 3,0 C 86 % 1019,0 hPa 0,0 l/m 11,9 km/h (2 Bft) S-SW 195 1 min 0,000 mm 0,5 UV-I 378 W/m 0,9 C -1,5 C 16,1 km/h (3 Bft) 95,65 %
24.02.2016 09:34 3,1 C 86 % 1019,0 hPa 0,0 l/m 18,4 km/h (3 Bft) W-SW 248 1 min 0,000 mm 0,1 UV-I 369 W/m 1,0 C -4,9 C 22,5 km/h (4 Bft) 98,51 %
24.02.2016 09:35 3,1 C 86 % 1019,0 hPa 0,0 l/m 13,8 km/h (3 Bft) SW 234 0 min 0,000 mm 0,4 UV-I 137 W/m 1,0 C -2,5 C 20,9 km/h (4 Bft) 97,73 %
24.02.2016 09:36 3,2 C 87 % 1019,0 hPa 0,0 l/m 13,0 km/h (3 Bft) W-SW 247 0 min 0,000 mm 0,6 UV-I 137 W/m 1,2 C -1,9 C 16,1 km/h (3 Bft) 100,00 %
24.02.2016 09:37 3,3 C 87 % 1019,1 hPa 0,0 l/m 16,1 km/h (3 Bft) W-SW 252 0 min 0,000 mm 0,5 UV-I 137 W/m 1,3 C -3,6 C 20,9 km/h (4 Bft) 91,67 %
24.02.2016 09:38 3,3 C 87 % 1019,1 hPa 0,0 l/m 14,5 km/h (3 Bft) SW 219 1 min 0,000 mm 0,6 UV-I 253 W/m 1,3 C -2,7 C 19,3 km/h (3 Bft) 100,00 %
24.02.2016 09:39 3,4 C 86 % 1019,1 hPa 0,0 l/m 18,3 km/h (3 Bft) S 177 1 min 0,000 mm 0,5 UV-I 315 W/m 1,3 C -4,5 C 27,4 km/h (4 Bft) 96,15 %
24.02.2016 09:40 3,4 C 86 % 1019,0 hPa 0,0 l/m 17,2 km/h (3 Bft) S-SW 202 0 min 0,000 mm 0,5 UV-I 187 W/m 1,3 C -4,0 C 27,4 km/h (4 Bft) 100,00 %
24.02.2016 09:41 3,4 C 85 % 1019,1 hPa 0,0 l/m 15,5 km/h (3 Bft) S 181 0 min 0,000 mm 0,1 UV-I 142 W/m 1,1 C -3,1 C 20,9 km/h (4 Bft) 100,00 %
24.02.2016 09:42 3,3 C 84 % 1019,1 hPa 0,0 l/m 12,7 km/h (3 Bft) SW 217 0 min 0,000 mm 0,0 UV-I 140 W/m 0,9 C -1,6 C 19,3 km/h (3 Bft) 100,00 %
24.02.2016 09:43 3,3 C 85 % 1019,1 hPa 0,0 l/m 15,9 km/h (3 Bft) W-SW 244 0 min 0,000 mm 0,0 UV-I 141 W/m 1,0 C -3,5 C 20,9 km/h (4 Bft) 95,83 %
24.02.2016 09:44 3,3 C 86 % 1019,0 hPa 0,0 l/m 14,4 km/h (3 Bft) W-SW 243 0 min 0,000 mm 0,0 UV-I 132 W/m 1,2 C -2,7 C 17,7 km/h (3 Bft) 100,00 %
24.02.2016 09:45 3,2 C 85 % 1019,1 hPa 0,0 l/m 12,1 km/h (2 Bft) W-NW 290 0 min 0,000 mm 0,0 UV-I 120 W/m 0,9 C -1,4 C 17,7 km/h (3 Bft) 96,67 %
24.02.2016 09:46 3,2 C 85 % 1019,0 hPa 0,0 l/m 11,7 km/h (2 Bft) SW 219 0 min 0,000 mm 0,0 UV-I 117 W/m 0,9 C -1,1 C 16,1 km/h (3 Bft) 91,30 %
24.02.2016 09:47 3,2 C 85 % 1019,1 hPa 0,0 l/m 14,0 km/h (3 Bft) SW 225 0 min 0,000 mm 0,0 UV-I 90 W/m 0,9 C -2,5 C 24,1 km/h (4 Bft) 100,00 %
24.02.2016 09:48 3,2 C 85 % 1019,0 hPa 0,0 l/m 12,3 km/h (3 Bft) W-SW 242 0 min 0,000 mm 0,0 UV-I 93 W/m 0,9 C -1,5 C 20,9 km/h (4 Bft) 100,00 %
24.02.2016 09:49 3,2 C 85 % 1019,0 hPa 0,0 l/m 10,6 km/h (2 Bft) W-SW 240 0 min 0,000 mm 0,0 UV-I 105 W/m 0,9 C -0,4 C 16,1 km/h (3 Bft) 100,00 %
24.02.2016 09:50 3,2 C 85 % 1019,1 hPa 0,0 l/m 14,5 km/h (3 Bft) SW 232 0 min 0,000 mm 0,0 UV-I 132 W/m 0,9 C -2,8 C 20,9 km/h (4 Bft) 100,00 %
24.02.2016 09:51 3,3 C 86 % 1019,0 hPa 0,0 l/m 15,7 km/h (3 Bft) W-SW 254 0 min 0,000 mm 0,0 UV-I 148 W/m 1,2 C -3,4 C 20,9 km/h (4 Bft) 100,00 %
24.02.2016 09:52 3,3 C 86 % 1019,0 hPa 0,0 l/m 12,6 km/h (3 Bft) SW 224 0 min 0,000 mm 0,0 UV-I 172 W/m 1,2 C -1,6 C 17,7 km/h (3 Bft) 100,00 %
24.02.2016 09:53 3,3 C 85 % 1019,0 hPa 0,0 l/m 13,0 km/h (3 Bft) W 271 0 min 0,000 mm 0,0 UV-I 178 W/m 1,0 C -1,8 C 20,9 km/h (4 Bft) 100,00 %
24.02.2016 09:54 3,3 C 85 % 1019,0 hPa 0,0 l/m 12,6 km/h (3 Bft) SW 234 0 min 0,000 mm 0,0 UV-I 195 W/m 1,0 C -1,6 C 20,9 km/h (4 Bft) 100,00 %
24.02.2016 09:55 3,4 C 85 % 1019,1 hPa 0,0 l/m 12,7 km/h (3 Bft) W-SW 246 1 min 0,000 mm 0,1 UV-I 237 W/m 1,1 C -1,5 C 19,3 km/h (3 Bft) 100,00 %
24.02.2016 09:56 3,4 C 85 % 1019,0 hPa 0,0 l/m 15,4 km/h (3 Bft) SW 227 0 min 0,000 mm 0,3 UV-I 218 W/m 1,1 C -3,1 C 20,9 km/h (4 Bft) 100,00 %
24.02.2016 09:57 3,6 C 84 % 1019,0 hPa 0,0 l/m 14,9 km/h (3 Bft) W-SW 244 0 min 0,000 mm 0,0 UV-I 160 W/m 1,2 C -2,6 C 20,9 km/h (4 Bft) 100,00 %
24.02.2016 09:58 3,6 C 84 % 1019,0 hPa 0,0 l/m 19,5 km/h (3 Bft) S-SW 212 0 min 0,000 mm 0,4 UV-I 149 W/m 1,2 C -4,8 C 25,7 km/h (4 Bft) 100,00 %
24.02.2016 09:59 3,6 C 84 % 1019,0 hPa 0,0 l/m 17,0 km/h (3 Bft) S-SW 205 0 min 0,000 mm 0,5 UV-I 178 W/m 1,2 C -3,6 C 20,9 km/h (4 Bft) 100,00 %
24.02.2016 10:00 3,6 C 84 % 1019,0 hPa 0,0 l/m 17,5 km/h (3 Bft) S-SW 209 1 min 0,000 mm 0,6 UV-I 234 W/m 1,2 C -3,9 C 22,5 km/h (4 Bft) 100,00 %
24.02.2016 10:01 3,7 C 84 % 1019,0 hPa 0,0 l/m 13,6 km/h (3 Bft) S-SO 168 1 min 0,077 mm 0,7 UV-I 287 W/m 1,3 C -1,7 C 20,9 km/h (4 Bft) 100,00 %
24.02.2016 10:02 3,7 C 83 % 1019,0 hPa 0,0 l/m 16,4 km/h (3 Bft) W-SW 242 1 min 0,000 mm 0,6 UV-I 287 W/m 1,1 C -3,2 C 19,3 km/h (3 Bft) 100,00 %
24.02.2016 10:03 3,7 C 83 % 1018,9 hPa 0,0 l/m 12,3 km/h (3 Bft) W-SW 242 0 min 0,000 mm 0,2 UV-I 156 W/m 1,1 C -0,9 C 17,7 km/h (3 Bft) 100,00 %
24.02.2016 10:04 3,7 C 83 % 1018,9 hPa 0,0 l/m 9,8 km/h (2 Bft) W-SW 240 0 min 0,000 mm 0,0 UV-I 109 W/m 1,1 C 0,8 C 14,5 km/h (3 Bft) 100,00 %
24.02.2016 10:05 3,7 C 83 % 1019,0 hPa 0,0 l/m 12,7 km/h (3 Bft) SW 229 0 min 0,000 mm 0,1 UV-I 126 W/m 1,1 C -1,2 C 17,7 km/h (3 Bft) 94,12 %
24.02.2016 10:06 3,7 C 84 % 1019,0 hPa 0,0 l/m 15,1 km/h (3 Bft) W 266 0 min 0,000 mm 0,6 UV-I 154 W/m 1,3 C -2,6 C 24,1 km/h (4 Bft) 100,00 %
24.02.2016 10:07 3,7 C 83 % 1019,0 hPa 0,0 l/m 10,1 km/h (2 Bft) W-SW 246 0 min 0,000 mm 0,7 UV-I 227 W/m 1,1 C 0,6 C 16,1 km/h (3 Bft) 96,15 %
24.02.2016 10:08 3,7 C 83 % 1019,0 hPa 0,0 l/m 13,4 km/h (3 Bft) W-SW 249 1 min 0,000 mm 0,7 UV-I 254 W/m 1,1 C -1,6 C 17,7 km/h (3 Bft) 100,00 %
24.02.2016 10:09 3,7 C 83 % 1019,0 hPa 0,0 l/m 12,5 km/h (3 Bft) W 260 0 min 0,000 mm 0,7 UV-I 221 W/m 1,1 C -1,1 C 17,7 km/h (3 Bft) 100,00 %
24.02.2016 10:10 3,8 C 83 % 1018,9 hPa 0,0 l/m 13,8 km/h (3 Bft) W-NW 290 0 min 0,000 mm 0,7 UV-I 199 W/m 1,2 C -1,7 C 17,7 km/h (3 Bft) 100,00 %
24.02.2016 10:11 3,8 C 83 % 1019,0 hPa 0,0 l/m 15,6 km/h (3 Bft) W-NW 301 0 min 0,000 mm 0,6 UV-I 170 W/m 1,2 C -2,7 C 20,9 km/h (4 Bft) 100,00 %
24.02.2016 10:12 3,8 C 82 % 1018,9 hPa 0,0 l/m 14,4 km/h (3 Bft) W 267 0 min 0,000 mm 0,6 UV-I 144 W/m 1,0 C -2,1 C 20,9 km/h (4 Bft) 100,00 %
24.02.2016 10:13 3,8 C 81 % 1018,9 hPa 0,0 l/m 20,7 km/h (4 Bft) W 260 0 min 0,000 mm 0,5 UV-I 137 W/m 0,8 C -5,0 C 27,4 km/h (4 Bft) 95,65 %
24.02.2016 10:14 3,7 C 81 % 1018,9 hPa 0,0 l/m 13,9 km/h (3 Bft) W 263 0 min 0,000 mm 0,7 UV-I 161 W/m 0,7 C -1,9 C 17,7 km/h (3 Bft) 100,00 %
24.02.2016 10:15 3,7 C 81 % 1018,9 hPa 0,0 l/m 14,8 km/h (3 Bft) W-SW 242 0 min 0,000 mm 0,8 UV-I 218 W/m 0,7 C -2,4 C 22,5 km/h (4 Bft) 100,00 %
24.02.2016 10:16 3,7 C 81 % 1018,9 hPa 0,0 l/m 17,6 km/h (3 Bft) W-SW 238 0 min 0,000 mm 0,7 UV-I 208 W/m 0,7 C -3,8 C 20,9 km/h (4 Bft) 100,00 %
24.02.2016 10:17 3,7 C 81 % 1018,9 hPa 0,0 l/m 13,5 km/h (3 Bft) W-SW 250 0 min 0,000 mm 0,7 UV-I 183 W/m 0,7 C -1,7 C 17,7 km/h (3 Bft) 100,00 %
24.02.2016 10:18 3,8 C 81 % 1018,9 hPa 0,0 l/m 10,9 km/h (2 Bft) SW 225 0 min 0,000 mm 0,7 UV-I 181 W/m 0,8 C 0,1 C 14,5 km/h (3 Bft) 100,00 %
24.02.2016 10:19 3,8 C 81 % 1018,9 hPa 0,0 l/m 15,4 km/h (3 Bft) SW 232 0 min 0,000 mm 0,7 UV-I 174 W/m 0,8 C -2,6 C 22,5 km/h (4 Bft) 100,00 %
24.02.2016 10:20 3,7 C 80 % 1018,9 hPa 0,0 l/m 17,0 km/h (3 Bft) W-SW 247 0 min 0,000 mm 0,6 UV-I 164 W/m 0,6 C -3,5 C 24,1 km/h (4 Bft) 100,00 %
24.02.2016 10:21 3,7 C 80 % 1018,9 hPa 0,0 l/m 13,9 km/h (3 Bft) W-SW 253 0 min 0,000 mm 0,6 UV-I 149 W/m 0,6 C -1,9 C 20,9 km/h (4 Bft) 96,30 %
24.02.2016 10:22 3,7 C 80 % 1018,9 hPa 0,0 l/m 13,4 km/h (3 Bft) W-SW 257 0 min 0,000 mm 0,6 UV-I 131 W/m 0,6 C -1,6 C 24,1 km/h (4 Bft) 100,00 %
24.02.2016 10:23 3,7 C 79 % 1019,0 hPa 0,0 l/m 13,9 km/h (3 Bft) W 273 0 min 0,000 mm 0,6 UV-I 118 W/m 0,4 C -1,9 C 17,7 km/h (3 Bft) 100,00 %
24.02.2016 10:24 3,7 C 80 % 1019,0 hPa 0,0 l/m 16,3 km/h (3 Bft) W-SW 256 0 min 0,000 mm 0,6 UV-I 106 W/m 0,6 C -3,2 C 20,9 km/h (4 Bft) 100,00 %
24.02.2016 10:25 3,7 C 79 % 1019,0 hPa 0,0 l/m 12,7 km/h (3 Bft) W-SW 254 0 min 0,000 mm 0,6 UV-I 97 W/m 0,4 C -1,2 C 17,7 km/h (3 Bft) 100,00 %
24.02.2016 10:26 3,7 C 79 % 1018,9 hPa 0,0 l/m 14,5 km/h (3 Bft) W-NW 283 0 min 0,000 mm 0,7 UV-I 91 W/m 0,4 C -2,2 C 20,9 km/h (4 Bft) 100,00 %
24.02.2016 10:27 3,6 C 80 % 1018,9 hPa 0,0 l/m 9,5 km/h (2 Bft) W-SW 254 0 min 0,000 mm 0,7 UV-I 86 W/m 0,5 C 0,9 C 17,7 km/h (3 Bft) 100,00 %
24.02.2016 10:28 3,6 C 79 % 1018,9 hPa 0,0 l/m 21,2 km/h (4 Bft) W-SW 246 0 min 0,000 mm 0,8 UV-I 83 W/m 0,3 C -5,5 C 25,7 km/h (4 Bft) 100,00 %
24.02.2016 10:29 3,6 C 78 % 1018,8 hPa 0,0 l/m 12,4 km/h (3 Bft) W-SW 250 0 min 0,000 mm 0,8 UV-I 84 W/m 0,1 C -1,1 C 24,1 km/h (4 Bft) 100,00 %
24.02.2016 10:30 3,6 C 79 % 1018,9 hPa 0,0 l/m 10,8 km/h (2 Bft) W 266 0 min 0,000 mm 0,8 UV-I 88 W/m 0,3 C -0,1 C 14,5 km/h (3 Bft) 100,00 %
24.02.2016 10:31 3,5 C 79 % 1018,9 hPa 0,0 l/m 12,6 km/h (3 Bft) W 272 0 min 0,000 mm 0,8 UV-I 93 W/m 0,2 C -1,4 C 17,7 km/h (3 Bft) 100,00 %
24.02.2016 10:32 3,5 C 80 % 1018,9 hPa 0,0 l/m 13,4 km/h (3 Bft) W 263 0 min 0,000 mm 0,9 UV-I 102 W/m 0,4 C -1,8 C 20,9 km/h (4 Bft) 96,15 %
24.02.2016 10:33 3,5 C 79 % 1018,8 hPa 0,0 l/m 9,8 km/h (2 Bft) W 275 0 min 0,000 mm 0,9 UV-I 116 W/m 0,2 C 0,6 C 14,5 km/h (3 Bft) 100,00 %
24.02.2016 10:34 3,5 C 80 % 1018,8 hPa 0,0 l/m 8,1 km/h (2 Bft) W-NW 292 0 min 0,000 mm 0,9 UV-I 131 W/m 0,4 C 1,9 C 12,9 km/h (3 Bft) 100,00 %
24.02.2016 10:35 3,5 C 79 % 1018,8 hPa 0,0 l/m 12,7 km/h (3 Bft) W 274 0 min 0,000 mm 0,9 UV-I 138 W/m 0,2 C -1,4 C 17,7 km/h (3 Bft) 100,00 %
24.02.2016 10:36 3,5 C 79 % 1018,8 hPa 0,0 l/m 8,0 km/h (2 Bft) W 274 0 min 0,000 mm 0,8 UV-I 154 W/m 0,2 C 2,0 C 11,3 km/h (2 Bft) 92,31 %
24.02.2016 10:37 3,6 C 80 % 1018,8 hPa 0,0 l/m 8,8 km/h (2 Bft) W-SW 254 0 min 0,000 mm 0,8 UV-I 175 W/m 0,5 C 1,5 C 12,9 km/h (3 Bft) 93,33 %
24.02.2016 10:38 3,6 C 79 % 1018,8 hPa 0,0 l/m 15,3 km/h (3 Bft) W-SW 258 0 min 0,000 mm 0,8 UV-I 190 W/m 0,3 C -2,8 C 20,9 km/h (4 Bft) 100,00 %
24.02.2016 10:39 3,6 C 79 % 1018,8 hPa 0,0 l/m 8,5 km/h (2 Bft) NW 314 0 min 0,000 mm 0,8 UV-I 195 W/m 0,3 C 1,7 C 14,5 km/h (3 Bft) 96,30 %
24.02.2016 10:40 3,6 C 80 % 1018,8 hPa 0,0 l/m 4,7 km/h (1 Bft) W-SW 250 0 min 0,000 mm 0,8 UV-I 196 W/m 0,5 C 3,6 C 8,0 km/h (2 Bft) 93,33 %
24.02.2016 10:41 3,7 C 80 % 1018,8 hPa 0,0 l/m 13,0 km/h (3 Bft) W 276 0 min 0,000 mm 0,8 UV-I 207 W/m 0,6 C -1,4 C 19,3 km/h (3 Bft) 100,00 %
24.02.2016 10:42 3,7 C 79 % 1018,8 hPa 0,0 l/m 12,0 km/h (2 Bft) W 263 0 min 0,000 mm 0,8 UV-I 209 W/m 0,4 C -0,7 C 17,7 km/h (3 Bft) 100,00 %
24.02.2016 10:43 3,7 C 78 % 1018,7 hPa 0,0 l/m 8,9 km/h (2 Bft) W 280 0 min 0,000 mm 0,8 UV-I 210 W/m 0,2 C 1,5 C 14,5 km/h (3 Bft) 100,00 %
24.02.2016 10:44 3,8 C 79 % 1018,8 hPa 0,0 l/m 11,3 km/h (2 Bft) W 261 0 min 0,000 mm 0,8 UV-I 219 W/m 0,5 C -0,2 C 14,5 km/h (3 Bft) 100,00 %
24.02.2016 10:45 3,8 C 78 % 1018,8 hPa 0,0 l/m 15,8 km/h (3 Bft) W 269 0 min 0,000 mm 0,8 UV-I 228 W/m 0,3 C -2,8 C 22,5 km/h (4 Bft) 95,65 %
24.02.2016 10:46 3,8 C 78 % 1018,7 hPa 0,0 l/m 12,9 km/h (3 Bft) W-SW 258 0 min 0,000 mm 0,8 UV-I 236 W/m 0,3 C -1,2 C 20,9 km/h (4 Bft) 100,00 %
24.02.2016 10:47 3,8 C 79 % 1018,7 hPa 0,0 l/m 16,5 km/h (3 Bft) W-SW 240 0 min 0,000 mm 0,8 UV-I 236 W/m 0,5 C -3,1 C 20,9 km/h (4 Bft) 100,00 %
24.02.2016 10:48 3,9 C 78 % 1018,7 hPa 0,0 l/m 18,7 km/h (3 Bft) W 259 0 min 0,000 mm 0,7 UV-I 206 W/m 0,4 C -4,0 C 27,4 km/h (4 Bft) 96,30 %
24.02.2016 10:49 3,9 C 78 % 1018,7 hPa 0,0 l/m 14,5 km/h (3 Bft) W-SW 255 0 min 0,000 mm 0,5 UV-I 158 W/m 0,4 C -2,0 C 20,9 km/h (4 Bft) 100,00 %
24.02.2016 10:50 3,9 C 78 % 1018,8 hPa 0,0 l/m 10,7 km/h (2 Bft) W-NW 291 0 min 0,000 mm 0,2 UV-I 132 W/m 0,4 C 0,4 C 17,7 km/h (3 Bft) 100,00 %
24.02.2016 10:51 3,9 C 78 % 1018,8 hPa 0,0 l/m 10,3 km/h (2 Bft) W-SW 257 0 min 0,000 mm 0,0 UV-I 100 W/m 0,4 C 0,6 C 16,1 km/h (3 Bft) 100,00 %
24.02.2016 10:52 3,9 C 79 % 1018,7 hPa 0,0 l/m 14,1 km/h (3 Bft) W 262 0 min 0,000 mm 0,0 UV-I 74 W/m 0,6 C -1,8 C 19,3 km/h (3 Bft) 100,00 %
24.02.2016 10:53 3,9 C 79 % 1018,8 hPa 0,0 l/m 8,1 km/h (2 Bft) W-SW 241 0 min 0,000 mm 0,0 UV-I 55 W/m 0,6 C 2,4 C 14,5 km/h (3 Bft) 100,00 %
24.02.2016 10:54 3,8 C 80 % 1018,8 hPa 0,0 l/m 10,4 km/h (2 Bft) W 271 0 min 0,000 mm 0,0 UV-I 42 W/m 0,7 C 0,5 C 16,1 km/h (3 Bft) 100,00 %
24.02.2016 10:55 3,7 C 80 % 1018,8 hPa 0,0 l/m 11,2 km/h (2 Bft) W-SW 258 0 min 0,000 mm 0,0 UV-I 39 W/m 0,6 C -0,2 C 16,1 km/h (3 Bft) 100,00 %
24.02.2016 10:56 3,6 C 81 % 1018,8 hPa 0,0 l/m 8,6 km/h (2 Bft) W-SW 257 0 min 0,000 mm 0,0 UV-I 42 W/m 0,7 C 1,6 C 14,5 km/h (3 Bft) 100,00 %
24.02.2016 10:57 3,3 C 82 % 1018,8 hPa 0,0 l/m 10,9 km/h (2 Bft) W-SW 238 0 min 0,000 mm 0,0 UV-I 51 W/m 0,5 C -0,5 C 14,5 km/h (3 Bft) 100,00 %
24.02.2016 10:58 3,2 C 83 % 1018,7 hPa 0,0 l/m 13,5 km/h (3 Bft) W-SW 246 0 min 0,000 mm 0,0 UV-I 49 W/m 0,6 C -2,3 C 22,5 km/h (4 Bft) 100,00 %
24.02.2016 10:59 3,1 C 83 % 1018,7 hPa 0,0 l/m 15,6 km/h (3 Bft) W 261 0 min 0,000 mm 0,2 UV-I 55 W/m 0,5 C -3,5 C 20,9 km/h (4 Bft) 100,00 %
24.02.2016 11:00 2,8 C 85 % 1018,7 hPa 0,0 l/m 8,9 km/h (2 Bft) W-NW 291 0 min 0,076 mm 0,6 UV-I 71 W/m 0,5 C 0,5 C 12,9 km/h (3 Bft) 96,55 %
24.02.2016 11:02 2,6 C 86 % 1018,7 hPa 0,0 l/m 13,2 km/h (3 Bft) W 265 0 min 0,000 mm 0,8 UV-I 80 W/m 0,5 C -2,8 C 17,7 km/h (3 Bft) 100,00 %
24.02.2016 11:03 2,5 C 87 % 1018,7 hPa 0,0 l/m 9,9 km/h (2 Bft) W-SW 246 0 min 0,000 mm 0,8 UV-I 74 W/m 0,6 C -0,6 C 16,1 km/h (3 Bft) 91,67 %
24.02.2016 11:04 2,4 C 87 % 1018,7 hPa 0,0 l/m 12,4 km/h (3 Bft) W-SW 252 0 min 0,000 mm 0,8 UV-I 63 W/m 0,5 C -2,5 C 17,7 km/h (3 Bft) 96,55 %
24.02.2016 11:05 2,4 C 87 % 1018,7 hPa 0,0 l/m 8,3 km/h (2 Bft) W 269 0 min 0,000 mm 0,5 UV-I 56 W/m 0,5 C 0,6 C 11,3 km/h (2 Bft) 96,30 %
24.02.2016 11:06 2,3 C 88 % 1018,7 hPa 0,0 l/m 6,4 km/h (2 Bft) W-NW 290 0 min 0,000 mm 0,0 UV-I 52 W/m 0,5 C 2,3 C 11,3 km/h (2 Bft) 95,65 %
24.02.2016 11:07 2,3 C 88 % 1018,7 hPa 0,0 l/m 10,2 km/h (2 Bft) W-SW 248 0 min 0,000 mm 0,0 UV-I 51 W/m 0,5 C -1,1 C 16,1 km/h (3 Bft) 100,00 %
24.02.2016 11:08 2,3 C 88 % 1018,7 hPa 0,0 l/m 13,7 km/h (3 Bft) W 266 0 min 0,000 mm 0,0 UV-I 51 W/m 0,5 C -3,4 C 17,7 km/h (3 Bft) 95,00 %
24.02.2016 11:09 2,3 C 88 % 1018,7 hPa 0,0 l/m 11,1 km/h (2 Bft) W-SW 240 0 min 0,000 mm 0,0 UV-I 56 W/m 0,5 C -1,7 C 16,1 km/h (3 Bft) 96,30 %
24.02.2016 11:10 2,3 C 88 % 1018,7 hPa 0,0 l/m 9,7 km/h (2 Bft) W 270 0 min 0,000 mm 0,2 UV-I 56 W/m 0,5 C -0,7 C 17,7 km/h (3 Bft) 100,00 %
24.02.2016 11:15 2,3 C 89 % 1018,7 hPa 0,0 l/m 10,1 km/h (2 Bft) W-NW 289 0 min 0,000 mm 0,7 UV-I 65 W/m 0,7 C -1,0 C 14,5 km/h (3 Bft) 96,88 %
24.02.2016 11:16 2,3 C 89 % 1018,7 hPa 0,0 l/m 8,0 km/h (2 Bft) W-SW 249 0 min 0,000 mm 0,9 UV-I 71 W/m 0,7 C 0,8 C 14,5 km/h (3 Bft) 96,77 %
24.02.2016 11:18 2,3 C 89 % 1018,7 hPa 0,0 l/m 13,3 km/h (3 Bft) W 265 0 min 0,000 mm 1,0 UV-I 68 W/m 0,7 C -3,2 C 17,7 km/h (3 Bft) 92,11 %
24.02.2016 11:19 2,3 C 90 % 1018,7 hPa 0,0 l/m 8,3 km/h (2 Bft) W-SW 255 0 min 0,000 mm 1,1 UV-I 69 W/m 0,8 C 0,5 C 14,5 km/h (3 Bft) 94,12 %
24.02.2016 11:20 2,3 C 90 % 1018,6 hPa 0,0 l/m 8,0 km/h (2 Bft) W 270 0 min 0,000 mm 1,0 UV-I 72 W/m 0,8 C 0,8 C 17,7 km/h (3 Bft) 100,00 %
24.02.2016 11:22 2,3 C 90 % 1018,6 hPa 0,0 l/m 3,2 km/h (1 Bft) W-SW 246 0 min 0,000 mm 1,3 UV-I 103 W/m 0,8 C 2,3 C 3,2 km/h (1 Bft) 97,56 %
24.02.2016 11:23 2,4 C 90 % 1018,6 hPa 0,0 l/m 2,4 km/h (1 Bft) W-SW 250 1 min 0,000 mm 1,6 UV-I 293 W/m 0,9 C 2,4 C 3,2 km/h (1 Bft) 92,86 %
24.02.2016 11:24 2,6 C 90 % 1018,6 hPa 0,0 l/m 2,5 km/h (1 Bft) W-NW 290 1 min 0,000 mm 1,6 UV-I 477 W/m 1,1 C 2,6 C 4,8 km/h (1 Bft) 96,15 %
24.02.2016 11:25 2,7 C 90 % 1018,5 hPa 0,0 l/m 4,0 km/h (1 Bft) W 265 1 min 0,000 mm 1,6 UV-I 482 W/m 1,2 C 2,7 C 9,7 km/h (2 Bft) 100,00 %
24.02.2016 11:26 2,8 C 90 % 1018,5 hPa 0,0 l/m 6,4 km/h (2 Bft) W-SW 245 1 min 0,000 mm 1,7 UV-I 483 W/m 1,3 C 2,8 C 12,9 km/h (3 Bft) 95,65 %
24.02.2016 11:27 2,9 C 89 % 1018,5 hPa 0,0 l/m 5,5 km/h (1 Bft) W 267 1 min 0,000 mm 1,6 UV-I 487 W/m 1,3 C 2,9 C 9,7 km/h (2 Bft) 100,00 %
24.02.2016 11:28 3,1 C 89 % 1018,5 hPa 0,0 l/m 1,5 km/h (1 Bft) W 267 1 min 0,000 mm 1,6 UV-I 496 W/m 1,5 C 3,1 C 4,8 km/h (1 Bft) 96,15 %
24.02.2016 11:29 3,2 C 89 % 1018,5 hPa 0,0 l/m 5,2 km/h (1 Bft) W-NW 284 1 min 0,000 mm 1,6 UV-I 448 W/m 1,6 C 3,2 C 9,7 km/h (2 Bft) 100,00 %
24.02.2016 11:30 3,3 C 89 % 1018,5 hPa 0,0 l/m 9,5 km/h (2 Bft) W-SW 251 1 min 0,000 mm 1,6 UV-I 422 W/m 1,7 C 0,6 C 16,1 km/h (3 Bft) 95,65 %
24.02.2016 11:31 3,4 C 88 % 1018,5 hPa 0,0 l/m 9,9 km/h (2 Bft) W-SW 243 1 min 0,000 mm 1,6 UV-I 422 W/m 1,6 C 0,4 C 14,5 km/h (3 Bft) 96,30 %
24.02.2016 11:32 3,6 C 86 % 1018,4 hPa 0,0 l/m 9,8 km/h (2 Bft) W-SW 238 1 min 0,000 mm 1,7 UV-I 546 W/m 1,5 C 0,7 C 14,5 km/h (3 Bft) 100,00 %
24.02.2016 11:33 3,7 C 87 % 1018,5 hPa 0,0 l/m 7,3 km/h (2 Bft) W-SW 248 1 min 0,000 mm 1,7 UV-I 552 W/m 1,7 C 2,9 C 12,9 km/h (3 Bft) 96,30 %
24.02.2016 11:34 3,8 C 87 % 1018,5 hPa 0,0 l/m 12,5 km/h (3 Bft) W 266 1 min 0,000 mm 1,4 UV-I 552 W/m 1,8 C -0,9 C 16,1 km/h (3 Bft) 100,00 %
24.02.2016 11:35 3,9 C 86 % 1018,4 hPa 0,0 l/m 7,1 km/h (2 Bft) W 265 1 min 0,000 mm 1,4 UV-I 305 W/m 1,8 C 3,3 C 12,9 km/h (3 Bft) 96,30 %
24.02.2016 11:36 4,0 C 86 % 1018,4 hPa 0,0 l/m 7,7 km/h (2 Bft) W-SW 248 0 min 0,000 mm 1,7 UV-I 141 W/m 1,9 C 2,8 C 11,3 km/h (2 Bft) 100,00 %
24.02.2016 11:37 4,1 C 85 % 1018,4 hPa 0,0 l/m 10,9 km/h (2 Bft) W-NW 291 1 min 0,000 mm 1,7 UV-I 515 W/m 1,8 C 0,4 C 16,1 km/h (3 Bft) 100,00 %
24.02.2016 11:38 4,2 C 85 % 1018,3 hPa 0,0 l/m 8,4 km/h (2 Bft) W-SW 238 1 min 0,000 mm 1,3 UV-I 559 W/m 1,9 C 2,4 C 16,1 km/h (3 Bft) 100,00 %
24.02.2016 11:39 4,3 C 84 % 1018,3 hPa 0,0 l/m 10,5 km/h (2 Bft) SW 223 1 min 0,000 mm 1,5 UV-I 531 W/m 1,8 C 0,9 C 12,9 km/h (3 Bft) 100,00 %
24.02.2016 11:40 4,4 C 85 % 1018,3 hPa 0,0 l/m 8,9 km/h (2 Bft) W-SW 257 1 min 0,000 mm 1,6 UV-I 374 W/m 2,1 C 2,2 C 14,5 km/h (3 Bft) 96,67 %
24.02.2016 11:41 4,5 C 84 % 1018,3 hPa 0,0 l/m 13,2 km/h (3 Bft) S 190 1 min 0,000 mm 1,3 UV-I 374 W/m 2,0 C -0,5 C 17,7 km/h (3 Bft) 100,00 %
24.02.2016 11:42 4,6 C 82 % 1018,3 hPa 0,0 l/m 15,3 km/h (3 Bft) W-SW 242 1 min 0,000 mm 1,6 UV-I 374 W/m 1,8 C -1,6 C 24,1 km/h (4 Bft) 100,00 %
24.02.2016 11:43 4,6 C 80 % 1018,3 hPa 0,0 l/m 12,8 km/h (3 Bft) W 261 1 min 0,000 mm 1,7 UV-I 659 W/m 1,5 C -0,2 C 17,7 km/h (3 Bft) 96,15 %
24.02.2016 11:44 4,6 C 79 % 1018,3 hPa 0,0 l/m 12,1 km/h (2 Bft) W-SW 246 1 min 0,000 mm 1,7 UV-I 716 W/m 1,3 C 0,2 C 17,7 km/h (3 Bft) 100,00 %
24.02.2016 11:45 4,7 C 79 % 1018,3 hPa 0,0 l/m 12,0 km/h (2 Bft) SW 224 1 min 0,000 mm 1,6 UV-I 705 W/m 1,4 C 0,4 C 16,1 km/h (3 Bft) 100,00 %
24.02.2016 11:46 4,8 C 79 % 1018,2 hPa 0,0 l/m 5,7 km/h (1 Bft) SW 220 1 min 0,000 mm 1,6 UV-I 693 W/m 1,5 C 4,8 C 8,0 km/h (2 Bft) 100,00 %
24.02.2016 11:47 4,9 C 79 % 1018,2 hPa 0,0 l/m 5,3 km/h (1 Bft) W-SW 254 1 min 0,000 mm 1,5 UV-I 681 W/m 1,6 C 4,9 C 8,0 km/h (2 Bft) 100,00 %
24.02.2016 11:48 5,0 C 80 % 1018,2 hPa 0,0 l/m 4,7 km/h (1 Bft) W 261 1 min 0,000 mm 1,5 UV-I 700 W/m 1,8 C 5,0 C 6,4 km/h (2 Bft) 100,00 %
24.02.2016 11:49 5,2 C 81 % 1018,2 hPa 0,0 l/m 5,5 km/h (1 Bft) NW 308 1 min 0,000 mm 1,5 UV-I 691 W/m 2,2 C 5,2 C 9,7 km/h (2 Bft) 93,10 %
24.02.2016 11:50 5,4 C 84 % 1018,1 hPa 0,0 l/m 8,0 km/h (2 Bft) NW 306 1 min 0,000 mm 1,4 UV-I 685 W/m 2,9 C 4,0 C 12,9 km/h (3 Bft) 100,00 %
24.02.2016 11:51 5,5 C 81 % 1018,1 hPa 0,0 l/m 10,3 km/h (2 Bft) W-SW 255 1 min 0,000 mm 1,3 UV-I 654 W/m 2,5 C 2,4 C 16,1 km/h (3 Bft) 100,00 %
24.02.2016 11:52 5,6 C 80 % 1018,1 hPa 0,0 l/m 10,1 km/h (2 Bft) W-NW 288 1 min 0,000 mm 1,3 UV-I 635 W/m 2,4 C 2,7 C 16,1 km/h (3 Bft) 100,00 %
24.02.2016 11:53 5,7 C 80 % 1018,2 hPa 0,0 l/m 4,8 km/h (1 Bft) W-SW 257 1 min 0,000 mm 1,2 UV-I 614 W/m 2,5 C 5,7 C 14,5 km/h (3 Bft) 96,15 %
24.02.2016 11:54 5,8 C 79 % 1018,1 hPa 0,0 l/m 14,9 km/h (3 Bft) SW 227 1 min 0,000 mm 1,0 UV-I 588 W/m 2,4 C 0,1 C 17,7 km/h (3 Bft) 100,00 %
24.02.2016 11:55 5,8 C 77 % 1018,1 hPa 0,0 l/m 15,1 km/h (3 Bft) W 272 1 min 0,000 mm 0,8 UV-I 580 W/m 2,1 C -0,0 C 25,7 km/h (4 Bft) 95,65 %
24.02.2016 11:56 5,7 C 75 % 1018,1 hPa 0,0 l/m 16,0 km/h (3 Bft) SW 234 1 min 0,000 mm 0,5 UV-I 487 W/m 1,6 C -0,6 C 22,5 km/h (4 Bft) 95,83 %
24.02.2016 11:57 5,7 C 74 % 1018,1 hPa 0,0 l/m 15,3 km/h (3 Bft) W-NW 300 0 min 0,000 mm 0,5 UV-I 135 W/m 1,4 C -0,2 C 19,3 km/h (3 Bft) 100,00 %
24.02.2016 11:58 5,5 C 74 % 1018,1 hPa 0,0 l/m 13,3 km/h (3 Bft) W 271 0 min 0,000 mm 0,6 UV-I 135 W/m 1,2 C 0,6 C 20,9 km/h (4 Bft) 100,00 %
24.02.2016 11:59 5,4 C 74 % 1018,1 hPa 0,0 l/m 12,3 km/h (3 Bft) W-SW 254 0 min 0,000 mm 0,7 UV-I 135 W/m 1,1 C 1,0 C 19,3 km/h (3 Bft) 100,00 %
24.02.2016 12:00 5,3 C 74 % 1018,1 hPa 0,0 l/m 15,0 km/h (3 Bft) SW 234 1 min 0,000 mm 0,7 UV-I 335 W/m 1,0 C -0,6 C 22,5 km/h (4 Bft) 100,00 %
24.02.2016 12:01 5,2 C 75 % 1018,1 hPa 0,0 l/m 10,0 km/h (2 Bft) W 267 1 min 0,127 mm 0,8 UV-I 390 W/m 1,1 C 2,3 C 14,5 km/h (3 Bft) 96,15 %
24.02.2016 12:02 5,2 C 75 % 1018,1 hPa 0,0 l/m 9,3 km/h (2 Bft) W 281 1 min 0,000 mm 0,6 UV-I 390 W/m 1,1 C 2,8 C 17,7 km/h (3 Bft) 100,00 %
24.02.2016 12:03 5,2 C 76 % 1018,1 hPa 0,0 l/m 9,3 km/h (2 Bft) N-NO 19 1 min 0,000 mm 0,9 UV-I 390 W/m 1,3 C 2,8 C 12,9 km/h (3 Bft) 100,00 %
24.02.2016 12:04 5,1 C 75 % 1018,1 hPa 0,0 l/m 3,7 km/h (1 Bft) W 263 0 min 0,000 mm 0,5 UV-I 277 W/m 1,0 C 5,1 C 9,7 km/h (2 Bft) 100,00 %
24.02.2016 12:05 4,9 C 77 % 1018,2 hPa 0,0 l/m 8,8 km/h (2 Bft) W-NW 297 0 min 0,000 mm 0,5 UV-I 132 W/m 1,2 C 2,9 C 14,5 km/h (3 Bft) 100,00 %
24.02.2016 12:06 4,6 C 79 % 1018,1 hPa 0,0 l/m 5,3 km/h (1 Bft) W-SW 244 0 min 0,000 mm 0,5 UV-I 115 W/m 1,3 C 4,6 C 8,0 km/h (2 Bft) 100,00 %
24.02.2016 12:07 4,4 C 80 % 1018,2 hPa 0,0 l/m 4,7 km/h (1 Bft) N 355 0 min 0,000 mm 0,6 UV-I 129 W/m 1,3 C 4,4 C 11,3 km/h (2 Bft) 100,00 %
24.02.2016 12:08 4,2 C 81 % 1018,2 hPa 0,0 l/m 4,8 km/h (1 Bft) W-NW 300 0 min 0,000 mm 0,6 UV-I 179 W/m 1,2 C 4,2 C 6,4 km/h (2 Bft) 100,00 %
24.02.2016 12:09 3,9 C 81 % 1018,2 hPa 0,0 l/m 6,1 km/h (2 Bft) W-NW 289 0 min 0,000 mm 1,2 UV-I 230 W/m 0,9 C 3,9 C 14,5 km/h (3 Bft) 100,00 %
24.02.2016 12:10 3,8 C 82 % 1018,2 hPa 0,0 l/m 3,9 km/h (1 Bft) N-NW 331 0 min 0,000 mm 1,2 UV-I 230 W/m 1,0 C 3,8 C 8,0 km/h (2 Bft) 100,00 %
24.02.2016 12:11 3,7 C 83 % 1018,2 hPa 0,0 l/m 10,2 km/h (2 Bft) NW 317 1 min 0,000 mm 1,0 UV-I 391 W/m 1,1 C 0,5 C 17,7 km/h (3 Bft) 100,00 %
24.02.2016 12:12 3,7 C 84 % 1018,2 hPa 0,0 l/m 5,9 km/h (2 Bft) W 270 1 min 0,000 mm 1,2 UV-I 471 W/m 1,3 C 3,7 C 12,9 km/h (3 Bft) 100,00 %
24.02.2016 12:13 3,6 C 84 % 1018,2 hPa 0,0 l/m 7,6 km/h (2 Bft) W 265 1 min 0,000 mm 1,4 UV-I 471 W/m 1,2 C 2,5 C 12,9 km/h (3 Bft) 100,00 %
24.02.2016 12:14 3,5 C 84 % 1018,2 hPa 0,0 l/m 10,5 km/h (2 Bft) NW 310 1 min 0,000 mm 1,1 UV-I 464 W/m 1,1 C 0,1 C 14,5 km/h (3 Bft) 100,00 %
24.02.2016 12:15 3,3 C 83 % 1018,2 hPa 0,0 l/m 6,6 km/h (2 Bft) W-NW 299 1 min 0,000 mm 1,0 UV-I 441 W/m 0,7 C 3,1 C 11,3 km/h (2 Bft) 100,00 %
24.02.2016 12:16 3,3 C 85 % 1018,2 hPa 0,0 l/m 6,0 km/h (2 Bft) NW 319 1 min 0,000 mm 0,9 UV-I 358 W/m 1,0 C 3,3 C 12,9 km/h (3 Bft) 100,00 %
24.02.2016 12:17 3,2 C 86 % 1018,2 hPa 0,0 l/m 5,7 km/h (1 Bft) NW 310 1 min 0,000 mm 0,8 UV-I 299 W/m 1,1 C 3,2 C 8,0 km/h (2 Bft) 100,00 %
24.02.2016 12:18 3,2 C 86 % 1018,3 hPa 0,0 l/m 5,3 km/h (1 Bft) W-NW 290 1 min 0,000 mm 1,1 UV-I 299 W/m 1,1 C 3,2 C 11,3 km/h (2 Bft) 100,00 %
24.02.2016 12:19 3,2 C 86 % 1018,2 hPa 0,0 l/m 4,5 km/h (1 Bft) NW 310 1 min 0,000 mm 0,9 UV-I 298 W/m 1,1 C 3,2 C 6,4 km/h (2 Bft) 100,00 %
24.02.2016 12:20 3,2 C 86 % 1018,2 hPa 0,0 l/m 6,9 km/h (2 Bft) W-NW 290 0 min 0,000 mm 1,0 UV-I 292 W/m 1,1 C 2,7 C 12,9 km/h (3 Bft) 100,00 %
24.02.2016 12:21 3,2 C 86 % 1018,2 hPa 0,0 l/m 7,8 km/h (2 Bft) N-NW 332 0 min 0,000 mm 1,1 UV-I 276 W/m 1,1 C 1,9 C 17,7 km/h (3 Bft) 98,54 %
24.02.2016 12:22 3,1 C 86 % 1018,2 hPa 0,0 l/m 4,1 km/h (1 Bft) W 281 0 min 0,000 mm 1,1 UV-I 261 W/m 1,0 C 3,1 C 9,7 km/h (2 Bft) 100,00 %
24.02.2016 12:23 3,2 C 86 % 1018,1 hPa 0,0 l/m 7,2 km/h (2 Bft) W-NW 290 0 min 0,000 mm 1,0 UV-I 258 W/m 1,1 C 2,4 C 16,1 km/h (3 Bft) 88,46 %
24.02.2016 12:24 3,2 C 87 % 1018,1 hPa 0,0 l/m 5,2 km/h (1 Bft) N-NW 330 0 min 0,000 mm 1,0 UV-I 267 W/m 1,2 C 3,2 C 8,0 km/h (2 Bft) 100,00 %
24.02.2016 12:25 3,2 C 86 % 1018,0 hPa 0,0 l/m 7,1 km/h (2 Bft) NW 323 0 min 0,000 mm 1,0 UV-I 285 W/m 1,1 C 2,5 C 12,9 km/h (3 Bft) 100,00 %
24.02.2016 12:26 3,2 C 87 % 1018,0 hPa 0,0 l/m 3,8 km/h (1 Bft) NW 311 0 min 0,000 mm 1,0 UV-I 271 W/m 1,2 C 3,2 C 11,3 km/h (2 Bft) 100,00 %
24.02.2016 12:27 3,1 C 86 % 1018,0 hPa 0,0 l/m 6,6 km/h (2 Bft) NW 313 0 min 0,000 mm 0,9 UV-I 255 W/m 1,0 C 2,9 C 12,9 km/h (3 Bft) 100,00 %
24.02.2016 12:28 3,1 C 87 % 1018,0 hPa 0,0 l/m 6,8 km/h (2 Bft) NW 304 0 min 0,000 mm 0,8 UV-I 239 W/m 1,2 C 2,7 C 14,5 km/h (3 Bft) 100,00 %
24.02.2016 12:29 3,1 C 86 % 1018,0 hPa 0,0 l/m 7,0 km/h (2 Bft) W-NW 288 0 min 0,000 mm 0,8 UV-I 233 W/m 1,0 C 2,5 C 12,9 km/h (3 Bft) 100,00 %
24.02.2016 12:30 3,1 C 87 % 1018,0 hPa 0,0 l/m 4,1 km/h (1 Bft) N-NW 346 0 min 0,000 mm 0,7 UV-I 222 W/m 1,2 C 3,1 C 6,4 km/h (2 Bft) 100,00 %
24.02.2016 12:31 3,1 C 87 % 1018,0 hPa 0,0 l/m 4,1 km/h (1 Bft) W-NW 292 0 min 0,000 mm 0,7 UV-I 203 W/m 1,2 C 3,1 C 6,4 km/h (2 Bft) 100,00 %
24.02.2016 12:32 3,1 C 86 % 1017,9 hPa 0,0 l/m 3,8 km/h (1 Bft) N-NW 331 0 min 0,000 mm 0,6 UV-I 166 W/m 1,0 C 3,1 C 8,0 km/h (2 Bft) 100,00 %
24.02.2016 12:33 3,1 C 88 % 1017,9 hPa 0,0 l/m 5,8 km/h (2 Bft) NW 321 0 min 0,000 mm 0,6 UV-I 148 W/m 1,3 C 3,1 C 11,3 km/h (2 Bft) 100,00 %
24.02.2016 12:34 3,1 C 87 % 1017,9 hPa 0,0 l/m 3,5 km/h (1 Bft) NW 324 0 min 0,000 mm 0,5 UV-I 138 W/m 1,2 C 3,1 C 6,4 km/h (2 Bft) 96,30 %
24.02.2016 12:35 3,0 C 87 % 1017,9 hPa 0,0 l/m 2,4 km/h (1 Bft) NW 326 0 min 0,000 mm 0,5 UV-I 139 W/m 1,1 C 3,0 C 6,4 km/h (2 Bft) 100,00 %
24.02.2016 12:36 3,1 C 88 % 1017,9 hPa 0,0 l/m 3,0 km/h (1 Bft) W-NW 292 0 min 0,000 mm 0,5 UV-I 148 W/m 1,3 C 3,1 C 4,8 km/h (1 Bft) 100,00 %
24.02.2016 12:37 3,1 C 88 % 1017,9 hPa 0,0 l/m 1,8 km/h (1 Bft) NW 317 0 min 0,000 mm 0,5 UV-I 152 W/m 1,3 C 3,1 C 3,2 km/h (1 Bft) 100,00 %
24.02.2016 12:38 3,1 C 88 % 1017,9 hPa 0,0 l/m 4,8 km/h (1 Bft) NW 325 0 min 0,000 mm 0,5 UV-I 178 W/m 1,3 C 3,1 C 8,0 km/h (2 Bft) 96,55 %
24.02.2016 12:39 2,9 C 86 % 1017,9 hPa 0,0 l/m 3,7 km/h (1 Bft) NW 316 0 min 0,000 mm 0,6 UV-I 215 W/m 0,8 C 2,9 C 8,0 km/h (2 Bft) 100,00 %
24.02.2016 12:40 2,9 C 87 % 1017,9 hPa 0,0 l/m 5,0 km/h (1 Bft) NW 304 0 min 0,000 mm 1,0 UV-I 209 W/m 1,0 C 2,9 C 8,0 km/h (2 Bft) 100,00 %
24.02.2016 12:41 2,9 C 87 % 1017,8 hPa 0,0 l/m 4,1 km/h (1 Bft) NW 312 0 min 0,000 mm 1,2 UV-I 293 W/m 1,0 C 2,9 C 6,4 km/h (2 Bft) 100,00 %
24.02.2016 12:42 2,9 C 87 % 1017,8 hPa 0,0 l/m 6,5 km/h (2 Bft) N 351 1 min 0,000 mm 1,2 UV-I 315 W/m 1,0 C 2,8 C 11,3 km/h (2 Bft) 100,00 %
24.02.2016 12:43 2,9 C 87 % 1017,8 hPa 0,0 l/m 4,0 km/h (1 Bft) N 11 1 min 0,000 mm 1,4 UV-I 315 W/m 1,0 C 2,9 C 4,8 km/h (1 Bft) 100,00 %
24.02.2016 12:44 3,1 C 87 % 1017,8 hPa 0,0 l/m 3,1 km/h (1 Bft) N 351 1 min 0,000 mm 1,2 UV-I 315 W/m 1,2 C 3,1 C 4,8 km/h (1 Bft) 100,00 %
24.02.2016 12:45 3,2 C 87 % 1017,7 hPa 0,0 l/m 4,2 km/h (1 Bft) NW 317 1 min 0,000 mm 1,0 UV-I 315 W/m 1,2 C 3,2 C 6,4 km/h (2 Bft) 91,67 %
24.02.2016 12:46 3,2 C 87 % 1017,8 hPa 0,0 l/m 1,5 km/h (1 Bft) N-NO 28 0 min 0,000 mm 0,6 UV-I 232 W/m 1,2 C 3,2 C 3,2 km/h (1 Bft) 100,00 %
24.02.2016 12:47 3,2 C 87 % 1017,8 hPa 0,0 l/m 1,9 km/h (1 Bft) N-NW 341 0 min 0,000 mm 0,8 UV-I 171 W/m 1,2 C 3,2 C 4,8 km/h (1 Bft) 93,94 %
24.02.2016 12:48 3,2 C 87 % 1017,8 hPa 0,0 l/m 2,2 km/h (1 Bft) NW 306 0 min 0,000 mm 0,8 UV-I 206 W/m 1,2 C 3,2 C 3,2 km/h (1 Bft) 100,00 %
24.02.2016 12:49 3,2 C 87 % 1017,8 hPa 0,0 l/m 3,9 km/h (1 Bft) NW 326 0 min 0,000 mm 0,8 UV-I 184 W/m 1,2 C 3,2 C 8,0 km/h (2 Bft) 83,33 %
24.02.2016 12:50 3,1 C 87 % 1017,8 hPa 0,0 l/m 3,7 km/h (1 Bft) N 355 0 min 0,000 mm 0,7 UV-I 162 W/m 1,2 C 3,1 C 6,4 km/h (2 Bft) 100,00 %
24.02.2016 12:51 3,1 C 86 % 1017,8 hPa 0,0 l/m 4,3 km/h (1 Bft) NW 321 0 min 0,000 mm 0,6 UV-I 145 W/m 1,0 C 3,1 C 6,4 km/h (2 Bft) 96,30 %
24.02.2016 12:52 2,9 C 86 % 1017,8 hPa 0,0 l/m 3,3 km/h (1 Bft) N-NW 331 0 min 0,000 mm 0,5 UV-I 132 W/m 0,8 C 2,9 C 4,8 km/h (1 Bft) 96,15 %
24.02.2016 12:53 2,9 C 86 % 1017,7 hPa 0,0 l/m 3,3 km/h (1 Bft) NW 304 0 min 0,000 mm 0,2 UV-I 109 W/m 0,8 C 2,9 C 4,8 km/h (1 Bft) 93,33 %
24.02.2016 12:54 2,8 C 86 % 1017,8 hPa 0,0 l/m 2,1 km/h (1 Bft) NW 320 0 min 0,000 mm 0,0 UV-I 86 W/m 0,7 C 2,8 C 4,8 km/h (1 Bft) 95,65 %
24.02.2016 12:55 2,8 C 87 % 1017,7 hPa 0,0 l/m 3,4 km/h (1 Bft) NW 314 0 min 0,000 mm 0,0 UV-I 69 W/m 0,9 C 2,8 C 8,0 km/h (2 Bft) 100,00 %
24.02.2016 12:56 2,8 C 87 % 1017,7 hPa 0,0 l/m 4,1 km/h (1 Bft) NW 326 0 min 0,000 mm 0,0 UV-I 59 W/m 0,9 C 2,8 C 6,4 km/h (2 Bft) 96,15 %
24.02.2016 12:57 2,8 C 87 % 1017,7 hPa 0,0 l/m 3,3 km/h (1 Bft) N-NW 333 0 min 0,000 mm 0,0 UV-I 53 W/m 0,9 C 2,8 C 4,8 km/h (1 Bft) 100,00 %
24.02.2016 12:58 2,7 C 87 % 1017,7 hPa 0,0 l/m 4,7 km/h (1 Bft) NW 315 0 min 0,000 mm 0,0 UV-I 52 W/m 0,8 C 2,7 C 6,4 km/h (2 Bft) 95,65 %
24.02.2016 12:59 2,7 C 87 % 1017,7 hPa 0,0 l/m 2,8 km/h (1 Bft) NW 324 0 min 0,000 mm 0,0 UV-I 51 W/m 0,8 C 2,7 C 6,4 km/h (2 Bft) 100,00 %
24.02.2016 13:00 2,7 C 87 % 1017,7 hPa 0,0 l/m 2,1 km/h (1 Bft) N-NW 333 0 min 0,101 mm 0,0 UV-I 51 W/m 0,8 C 2,7 C 3,2 km/h (1 Bft) 96,67 %
24.02.2016 13:02 2,7 C 87 % 1017,7 hPa 0,0 l/m 1,4 km/h (1 Bft) W-NW 301 0 min 0,000 mm 0,0 UV-I 47 W/m 0,8 C 2,7 C 3,2 km/h (1 Bft) 95,12 %
24.02.2016 13:03 2,7 C 88 % 1017,7 hPa 0,0 l/m 1,4 km/h (1 Bft) N-NW 340 0 min 0,000 mm 0,0 UV-I 42 W/m 0,9 C 2,7 C 3,2 km/h (1 Bft) 92,31 %
24.02.2016 13:04 2,7 C 88 % 1017,6 hPa 0,0 l/m 0,7 km/h (0 Bft) NW 315 0 min 0,000 mm 0,0 UV-I 39 W/m 0,9 C 2,7 C 4,8 km/h (1 Bft) 100,00 %
24.02.2016 13:05 2,7 C 88 % 1017,7 hPa 0,0 l/m 1,9 km/h (1 Bft) NW 323 0 min 0,000 mm 0,0 UV-I 39 W/m 0,9 C 2,7 C 4,8 km/h (1 Bft) 95,65 %
24.02.2016 13:06 2,7 C 88 % 1017,7 hPa 0,0 l/m 3,2 km/h (1 Bft) NW 313 0 min 0,000 mm 0,0 UV-I 40 W/m 0,9 C 2,7 C 4,8 km/h (1 Bft) 92,59 %
24.02.2016 13:07 2,7 C 87 % 1017,7 hPa 0,0 l/m 0,3 km/h (0 Bft) NW 313 0 min 0,000 mm 0,0 UV-I 42 W/m 0,8 C 2,7 C 1,6 km/h (1 Bft) 92,86 %
24.02.2016 13:08 2,6 C 87 % 1017,7 hPa 0,0 l/m 0,6 km/h (0 Bft) NW 313 0 min 0,000 mm 0,0 UV-I 44 W/m 0,7 C 2,6 C 1,6 km/h (1 Bft) 100,00 %
24.02.2016 13:09 2,6 C 88 % 1017,7 hPa 0,0 l/m 0,7 km/h (0 Bft) NW 313 0 min 0,000 mm 0,0 UV-I 48 W/m 0,8 C 2,6 C 3,2 km/h (1 Bft) 95,65 %
24.02.2016 13:10 2,6 C 88 % 1017,7 hPa 0,0 l/m 0,1 km/h (0 Bft) NW 313 0 min 0,000 mm 0,0 UV-I 50 W/m 0,8 C 2,6 C 1,6 km/h (1 Bft) 95,83 %
24.02.2016 13:11 2,6 C 88 % 1017,6 hPa 0,0 l/m 0,4 km/h (0 Bft) NW 313 0 min 0,000 mm 0,0 UV-I 54 W/m 0,8 C 2,6 C 1,6 km/h (1 Bft) 100,00 %
24.02.2016 13:12 2,6 C 88 % 1017,7 hPa 0,0 l/m 0,7 km/h (0 Bft) NW 313 0 min 0,000 mm 0,0 UV-I 64 W/m 0,8 C 2,6 C 1,6 km/h (1 Bft) 96,30 %
24.02.2016 13:13 2,6 C 88 % 1017,7 hPa 0,0 l/m 0,1 km/h (0 Bft) NW 313 0 min 0,000 mm 0,1 UV-I 74 W/m 0,8 C 2,6 C 1,6 km/h (1 Bft) 100,00 %
24.02.2016 13:14 2,6 C 89 % 1017,7 hPa 0,0 l/m 0,0 km/h (0 Bft) NW 313 0 min 0,000 mm 0,5 UV-I 80 W/m 1,0 C 2,6 C 0,0 km/h (0 Bft) 95,83 %
24.02.2016 13:15 2,6 C 88 % 1017,6 hPa 0,0 l/m 0,0 km/h (0 Bft) NW 313 0 min 0,000 mm 0,5 UV-I 88 W/m 0,8 C 2,6 C 0,0 km/h (0 Bft) 96,15 %
24.02.2016 13:16 2,7 C 88 % 1017,6 hPa 0,0 l/m 0,3 km/h (0 Bft) NW 313 0 min 0,000 mm 0,6 UV-I 94 W/m 0,9 C 2,7 C 1,6 km/h (1 Bft) 100,00 %
24.02.2016 13:17 2,6 C 88 % 1017,5 hPa 0,0 l/m 1,4 km/h (1 Bft) NW 313 0 min 0,000 mm 0,7 UV-I 97 W/m 0,8 C 2,6 C 3,2 km/h (1 Bft) 100,00 %
24.02.2016 13:18 2,6 C 88 % 1017,5 hPa 0,0 l/m 2,0 km/h (1 Bft) NW 313 0 min 0,000 mm 0,7 UV-I 97 W/m 0,8 C 2,6 C 3,2 km/h (1 Bft) 96,15 %
24.02.2016 13:19 2,7 C 88 % 1017,5 hPa 0,0 l/m 1,4 km/h (1 Bft) NW 313 0 min 0,000 mm 0,7 UV-I 96 W/m 0,9 C 2,7 C 3,2 km/h (1 Bft) 100,00 %
24.02.2016 13:20 2,7 C 88 % 1017,5 hPa 0,0 l/m 1,4 km/h (1 Bft) NW 313 0 min 0,000 mm 0,7 UV-I 96 W/m 0,9 C 2,7 C 3,2 km/h (1 Bft) 97,37 %
24.02.2016 13:21 2,7 C 88 % 1017,5 hPa 0,0 l/m 2,4 km/h (1 Bft) W-NW 289 0 min 0,000 mm 0,7 UV-I 98 W/m 0,9 C 2,7 C 3,2 km/h (1 Bft) 95,83 %
24.02.2016 13:22 2,8 C 88 % 1017,5 hPa 0,0 l/m 2,6 km/h (1 Bft) W-NW 289 0 min 0,000 mm 0,8 UV-I 101 W/m 1,0 C 2,8 C 3,2 km/h (1 Bft) 100,00 %
24.02.2016 13:23 2,8 C 88 % 1017,5 hPa 0,0 l/m 1,8 km/h (1 Bft) W-NW 289 0 min 0,000 mm 0,8 UV-I 105 W/m 1,0 C 2,8 C 3,2 km/h (1 Bft) 100,00 %
24.02.2016 13:24 2,8 C 88 % 1017,5 hPa 0,0 l/m 1,5 km/h (1 Bft) W-NW 289 0 min 0,000 mm 0,8 UV-I 112 W/m 1,0 C 2,8 C 3,2 km/h (1 Bft) 100,00 %
24.02.2016 13:25 2,9 C 88 % 1017,6 hPa 0,0 l/m 0,5 km/h (0 Bft) W-NW 289 0 min 0,000 mm 0,8 UV-I 118 W/m 1,1 C 2,9 C 1,6 km/h (1 Bft) 100,00 %
24.02.2016 13:26 2,9 C 87 % 1017,5 hPa 0,0 l/m 3,4 km/h (1 Bft) W-NW 298 0 min 0,000 mm 0,8 UV-I 123 W/m 1,0 C 2,9 C 4,8 km/h (1 Bft) 100,00 %
24.02.2016 13:27 2,9 C 87 % 1017,5 hPa 0,0 l/m 1,7 km/h (1 Bft) W-NW 294 0 min 0,000 mm 0,8 UV-I 128 W/m 1,0 C 2,9 C 3,2 km/h (1 Bft) 100,00 %
24.02.2016 13:28 2,9 C 87 % 1017,4 hPa 0,0 l/m 1,2 km/h (1 Bft) W-NW 294 0 min 0,000 mm 0,9 UV-I 134 W/m 1,0 C 2,9 C 3,2 km/h (1 Bft) 100,00 %
24.02.2016 13:29 3,0 C 87 % 1017,4 hPa 0,0 l/m 0,9 km/h (0 Bft) W-NW 294 0 min 0,000 mm 0,9 UV-I 145 W/m 1,1 C 3,0 C 3,2 km/h (1 Bft) 100,00 %
24.02.2016 13:30 3,1 C 87 % 1017,4 hPa 0,0 l/m 0,3 km/h (0 Bft) W-NW 296 0 min 0,000 mm 0,9 UV-I 155 W/m 1,2 C 3,1 C 1,6 km/h (1 Bft) 95,65 %
24.02.2016 13:31 3,1 C 87 % 1017,5 hPa 0,0 l/m 1,8 km/h (1 Bft) N-NW 327 0 min 0,000 mm 1,0 UV-I 161 W/m 1,2 C 3,1 C 6,4 km/h (2 Bft) 100,00 %
24.02.2016 13:32 3,1 C 88 % 1017,3 hPa 0,0 l/m 7,0 km/h (2 Bft) W-SW 247 0 min 0,000 mm 1,0 UV-I 157 W/m 1,3 C 2,5 C 17,7 km/h (3 Bft) 100,00 %
24.02.2016 13:33 3,2 C 85 % 1017,3 hPa 0,0 l/m 4,2 km/h (1 Bft) W 274 0 min 0,000 mm 1,0 UV-I 154 W/m 0,9 C 3,2 C 6,4 km/h (2 Bft) 100,00 %
24.02.2016 13:34 3,2 C 85 % 1017,4 hPa 0,0 l/m 6,0 km/h (2 Bft) W-SW 252 0 min 0,000 mm 1,0 UV-I 162 W/m 0,9 C 3,2 C 12,9 km/h (3 Bft) 100,00 %
24.02.2016 13:35 3,3 C 85 % 1017,4 hPa 0,0 l/m 5,2 km/h (1 Bft) W-SW 256 0 min 0,000 mm 1,1 UV-I 233 W/m 1,0 C 3,3 C 9,7 km/h (2 Bft) 100,00 %
24.02.2016 13:36 3,4 C 84 % 1017,4 hPa 0,0 l/m 1,3 km/h (1 Bft) W-SW 256 1 min 0,000 mm 1,3 UV-I 287 W/m 1,0 C 3,4 C 3,2 km/h (1 Bft) 100,00 %
24.02.2016 13:37 3,6 C 85 % 1017,4 hPa 0,0 l/m 1,9 km/h (1 Bft) W-SW 257 1 min 0,000 mm 1,5 UV-I 285 W/m 1,3 C 3,6 C 4,8 km/h (1 Bft) 100,00 %
24.02.2016 13:38 3,7 C 86 % 1017,4 hPa 0,0 l/m 5,6 km/h (1 Bft) W-NW 296 1 min 0,000 mm 1,3 UV-I 285 W/m 1,6 C 3,7 C 12,9 km/h (3 Bft) 100,00 %
24.02.2016 13:39 3,8 C 83 % 1017,3 hPa 0,0 l/m 7,4 km/h (2 Bft) W-SW 248 0 min 0,000 mm 1,0 UV-I 219 W/m 1,2 C 2,9 C 14,5 km/h (3 Bft) 96,15 %
24.02.2016 13:40 3,9 C 83 % 1017,3 hPa 0,0 l/m 8,4 km/h (2 Bft) W 265 0 min 0,000 mm 0,9 UV-I 184 W/m 1,3 C 2,1 C 12,9 km/h (3 Bft) 100,00 %
24.02.2016 13:41 3,9 C 82 % 1017,3 hPa 0,0 l/m 3,9 km/h (1 Bft) SW 229 0 min 0,000 mm 0,8 UV-I 169 W/m 1,1 C 3,9 C 9,7 km/h (2 Bft) 100,00 %
24.02.2016 13:42 4,0 C 82 % 1017,3 hPa 0,0 l/m 7,5 km/h (2 Bft) W 259 0 min 0,000 mm 0,8 UV-I 154 W/m 1,2 C 3,0 C 12,9 km/h (3 Bft) 100,00 %
24.02.2016 13:43 4,1 C 82 % 1017,3 hPa 0,0 l/m 6,2 km/h (2 Bft) W-NW 288 0 min 0,000 mm 0,8 UV-I 145 W/m 1,3 C 4,1 C 11,3 km/h (2 Bft) 100,00 %
24.02.2016 13:44 4,2 C 80 % 1017,3 hPa 0,0 l/m 11,7 km/h (2 Bft) NW 324 0 min 0,000 mm 0,8 UV-I 148 W/m 1,1 C 0,0 C 20,9 km/h (4 Bft) 100,00 %
24.02.2016 13:45 4,2 C 80 % 1017,2 hPa 0,0 l/m 6,4 km/h (2 Bft) W-NW 297 0 min 0,000 mm 0,8 UV-I 160 W/m 1,1 C 4,2 C 11,3 km/h (2 Bft) 96,15 %
24.02.2016 13:46 4,2 C 81 % 1017,3 hPa 0,0 l/m 3,6 km/h (1 Bft) NW 309 0 min 0,000 mm 0,8 UV-I 175 W/m 1,2 C 4,2 C 6,4 km/h (2 Bft) 100,00 %
24.02.2016 13:47 4,2 C 81 % 1017,3 hPa 0,0 l/m 6,8 km/h (2 Bft) N-NW 348 0 min 0,000 mm 0,8 UV-I 186 W/m 1,2 C 3,8 C 14,5 km/h (3 Bft) 90,91 %
24.02.2016 13:48 4,2 C 81 % 1017,2 hPa 0,0 l/m 4,3 km/h (1 Bft) W 277 0 min 0,000 mm 0,9 UV-I 193 W/m 1,2 C 4,2 C 8,0 km/h (2 Bft) 100,00 %
24.02.2016 13:49 4,2 C 81 % 1017,2 hPa 0,0 l/m 3,7 km/h (1 Bft) NW 304 0 min 0,000 mm 0,9 UV-I 197 W/m 1,2 C 4,2 C 4,8 km/h (1 Bft) 96,15 %
24.02.2016 13:50 4,2 C 83 % 1017,2 hPa 0,0 l/m 4,9 km/h (1 Bft) W-SW 245 0 min 0,000 mm 0,9 UV-I 202 W/m 1,6 C 4,2 C 11,3 km/h (2 Bft) 100,00 %
24.02.2016 13:51 4,2 C 83 % 1017,2 hPa 0,0 l/m 4,3 km/h (1 Bft) SW 234 0 min 0,000 mm 0,9 UV-I 208 W/m 1,6 C 4,2 C 8,0 km/h (2 Bft) 100,00 %
24.02.2016 13:52 4,1 C 83 % 1017,2 hPa 0,0 l/m 3,2 km/h (1 Bft) W-NW 299 0 min 0,000 mm 0,9 UV-I 218 W/m 1,5 C 4,1 C 6,4 km/h (2 Bft) 100,00 %
24.02.2016 13:53 4,1 C 82 % 1017,2 hPa 0,0 l/m 5,5 km/h (1 Bft) N 5 0 min 0,000 mm 0,9 UV-I 231 W/m 1,3 C 4,1 C 9,7 km/h (2 Bft) 92,31 %
24.02.2016 13:54 4,1 C 83 % 1017,2 hPa 0,0 l/m 3,3 km/h (1 Bft) W-NW 295 0 min 0,000 mm 0,9 UV-I 234 W/m 1,5 C 4,1 C 4,8 km/h (1 Bft) 96,30 %
24.02.2016 13:55 4,0 C 84 % 1017,2 hPa 0,0 l/m 4,8 km/h (1 Bft) W-NW 292 0 min 0,000 mm 1,0 UV-I 220 W/m 1,5 C 4,0 C 12,9 km/h (3 Bft) 100,00 %
24.02.2016 13:56 4,0 C 84 % 1017,2 hPa 0,0 l/m 6,1 km/h (2 Bft) NW 309 0 min 0,000 mm 0,9 UV-I 201 W/m 1,5 C 4,0 C 11,3 km/h (2 Bft) 100,00 %
24.02.2016 13:57 3,9 C 84 % 1017,2 hPa 0,0 l/m 5,1 km/h (1 Bft) W-NW 297 0 min 0,000 mm 0,9 UV-I 177 W/m 1,4 C 3,9 C 6,4 km/h (2 Bft) 98,48 %
24.02.2016 13:58 3,9 C 83 % 1017,1 hPa 0,0 l/m 3,1 km/h (1 Bft) NW 305 0 min 0,000 mm 0,9 UV-I 163 W/m 1,3 C 3,9 C 6,4 km/h (2 Bft) 100,00 %
24.02.2016 13:59 3,8 C 84 % 1017,2 hPa 0,0 l/m 7,5 km/h (2 Bft) W 273 0 min 0,000 mm 0,9 UV-I 155 W/m 1,4 C 2,8 C 12,9 km/h (3 Bft) 100,00 %
24.02.2016 14:00 3,8 C 83 % 1017,1 hPa 0,0 l/m 3,1 km/h (1 Bft) W-NW 285 0 min 0,000 mm 0,9 UV-I 161 W/m 1,2 C 3,8 C 9,7 km/h (2 Bft) 100,00 %
24.02.2016 14:01 3,8 C 84 % 1017,1 hPa 0,0 l/m 3,7 km/h (1 Bft) W-SW 254 0 min 0,051 mm 0,9 UV-I 214 W/m 1,4 C 3,8 C 9,7 km/h (2 Bft) 100,00 %
24.02.2016 14:02 3,8 C 84 % 1017,1 hPa 0,0 l/m 6,7 km/h (2 Bft) W 271 1 min 0,000 mm 1,1 UV-I 318 W/m 1,4 C 3,5 C 12,9 km/h (3 Bft) 100,00 %
24.02.2016 14:03 3,8 C 83 % 1017,2 hPa 0,0 l/m 5,8 km/h (2 Bft) W-NW 282 1 min 0,000 mm 1,2 UV-I 339 W/m 1,2 C 3,8 C 11,3 km/h (2 Bft) 100,00 %
24.02.2016 14:04 3,8 C 82 % 1017,1 hPa 0,0 l/m 5,4 km/h (1 Bft) W-SW 241 1 min 0,000 mm 1,1 UV-I 350 W/m 1,0 C 3,8 C 12,9 km/h (3 Bft) 96,15 %
24.02.2016 14:05 3,8 C 83 % 1017,1 hPa 0,0 l/m 4,2 km/h (1 Bft) W-NW 282 1 min 0,000 mm 1,2 UV-I 457 W/m 1,2 C 3,8 C 9,7 km/h (2 Bft) 100,00 %
24.02.2016 14:06 3,9 C 83 % 1017,0 hPa 0,0 l/m 3,3 km/h (1 Bft) W-NW 291 1 min 0,000 mm 1,1 UV-I 383 W/m 1,3 C 3,9 C 6,4 km/h (2 Bft) 100,00 %
24.02.2016 14:07 4,0 C 83 % 1017,1 hPa 0,0 l/m 3,7 km/h (1 Bft) N 5 1 min 0,000 mm 1,1 UV-I 258 W/m 1,4 C 4,0 C 4,8 km/h (1 Bft) 100,00 %
24.02.2016 14:08 4,1 C 83 % 1017,0 hPa 0,0 l/m 2,3 km/h (1 Bft) NW 309 1 min 0,000 mm 1,2 UV-I 257 W/m 1,5 C 4,1 C 3,2 km/h (1 Bft) 95,65 %
24.02.2016 14:09 4,2 C 83 % 1016,9 hPa 0,0 l/m 3,7 km/h (1 Bft) W-NW 289 1 min 0,000 mm 1,2 UV-I 430 W/m 1,6 C 4,2 C 6,4 km/h (2 Bft) 100,00 %
24.02.2016 14:10 4,3 C 84 % 1016,9 hPa 0,0 l/m 4,8 km/h (1 Bft) W 267 1 min 0,000 mm 1,3 UV-I 480 W/m 1,8 C 4,3 C 8,0 km/h (2 Bft) 100,00 %
24.02.2016 14:11 4,4 C 82 % 1017,0 hPa 0,0 l/m 4,0 km/h (1 Bft) NW 305 1 min 0,000 mm 1,2 UV-I 480 W/m 1,6 C 4,4 C 4,8 km/h (1 Bft) 100,00 %
24.02.2016 14:12 4,4 C 79 % 1017,0 hPa 0,0 l/m 6,0 km/h (2 Bft) W-NW 284 1 min 0,000 mm 1,0 UV-I 346 W/m 1,1 C 4,4 C 11,3 km/h (2 Bft) 91,30 %
24.02.2016 14:13 4,3 C 80 % 1016,9 hPa 0,0 l/m 7,0 km/h (2 Bft) NW 319 0 min 0,000 mm 1,1 UV-I 123 W/m 1,2 C 3,8 C 11,3 km/h (2 Bft) 100,00 %
24.02.2016 14:14 4,3 C 81 % 1016,9 hPa 0,0 l/m 3,4 km/h (1 Bft) W-NW 289 0 min 0,000 mm 1,1 UV-I 123 W/m 1,3 C 4,3 C 6,4 km/h (2 Bft) 100,00 %
24.02.2016 14:15 4,3 C 80 % 1017,0 hPa 0,0 l/m 1,3 km/h (1 Bft) W-NW 299 0 min 0,000 mm 1,0 UV-I 123 W/m 1,2 C 4,3 C 3,2 km/h (1 Bft) 96,15 %
24.02.2016 14:16 4,3 C 82 % 1017,0 hPa 0,0 l/m 3,7 km/h (1 Bft) NW 309 0 min 0,000 mm 1,2 UV-I 163 W/m 1,5 C 4,3 C 8,0 km/h (2 Bft) 96,15 %
24.02.2016 14:17 4,4 C 83 % 1016,9 hPa 0,0 l/m 4,5 km/h (1 Bft) W-NW 288 1 min 0,000 mm 1,2 UV-I 445 W/m 1,8 C 4,4 C 9,7 km/h (2 Bft) 100,00 %
24.02.2016 14:18 4,5 C 80 % 1016,9 hPa 0,0 l/m 8,9 km/h (2 Bft) W 277 1 min 0,000 mm 1,2 UV-I 437 W/m 1,4 C 2,3 C 12,9 km/h (3 Bft) 94,44 %
24.02.2016 14:19 4,5 C 78 % 1016,9 hPa 0,0 l/m 5,1 km/h (1 Bft) NW 314 1 min 0,000 mm 1,2 UV-I 429 W/m 1,0 C 4,5 C 6,4 km/h (2 Bft) 100,00 %
24.02.2016 14:20 4,4 C 77 % 1016,9 hPa 0,0 l/m 6,3 km/h (2 Bft) W 269 1 min 0,000 mm 1,2 UV-I 424 W/m 0,7 C 4,4 C 11,3 km/h (2 Bft) 100,00 %
24.02.2016 14:21 4,4 C 79 % 1016,9 hPa 0,0 l/m 2,5 km/h (1 Bft) W 269 1 min 0,000 mm 1,1 UV-I 419 W/m 1,1 C 4,4 C 4,8 km/h (1 Bft) 100,00 %
24.02.2016 14:22 4,6 C 79 % 1016,9 hPa 0,0 l/m 7,8 km/h (2 Bft) W-SW 257 1 min 0,000 mm 1,1 UV-I 423 W/m 1,3 C 3,4 C 14,5 km/h (3 Bft) 100,00 %
24.02.2016 14:23 4,6 C 79 % 1016,9 hPa 0,0 l/m 10,5 km/h (2 Bft) W 277 1 min 0,000 mm 1,1 UV-I 425 W/m 1,3 C 1,3 C 14,5 km/h (3 Bft) 96,15 %
24.02.2016 14:24 4,7 C 78 % 1016,9 hPa 0,0 l/m 7,9 km/h (2 Bft) W 260 1 min 0,000 mm 1,1 UV-I 425 W/m 1,2 C 3,4 C 11,3 km/h (2 Bft) 100,00 %
24.02.2016 14:25 4,6 C 77 % 1016,9 hPa 0,0 l/m 6,9 km/h (2 Bft) W 277 1 min 0,000 mm 1,1 UV-I 425 W/m 0,9 C 4,2 C 11,3 km/h (2 Bft) 100,00 %
24.02.2016 14:26 4,6 C 77 % 1016,9 hPa 0,0 l/m 5,9 km/h (2 Bft) W 262 1 min 0,000 mm 1,1 UV-I 426 W/m 0,9 C 4,6 C 9,7 km/h (2 Bft) 100,00 %
24.02.2016 14:27 4,7 C 79 % 1016,8 hPa 0,0 l/m 4,1 km/h (1 Bft) W-NW 283 1 min 0,000 mm 1,1 UV-I 425 W/m 1,4 C 4,7 C 9,7 km/h (2 Bft) 100,00 %
24.02.2016 14:28 4,7 C 78 % 1016,9 hPa 0,0 l/m 7,2 km/h (2 Bft) W 267 1 min 0,000 mm 1,1 UV-I 424 W/m 1,2 C 4,0 C 11,3 km/h (2 Bft) 100,00 %
24.02.2016 14:29 4,8 C 78 % 1016,9 hPa 0,0 l/m 12,3 km/h (3 Bft) W-SW 252 1 min 0,000 mm 1,1 UV-I 423 W/m 1,3 C 0,3 C 17,7 km/h (3 Bft) 100,00 %
24.02.2016 14:30 4,9 C 78 % 1016,9 hPa 0,0 l/m 11,3 km/h (2 Bft) W 267 1 min 0,000 mm 1,1 UV-I 423 W/m 1,4 C 1,1 C 16,1 km/h (3 Bft) 100,00 %
24.02.2016 14:31 4,8 C 74 % 1016,8 hPa 0,0 l/m 7,5 km/h (2 Bft) W-SW 254 1 min 0,000 mm 1,1 UV-I 424 W/m 0,6 C 3,8 C 9,7 km/h (2 Bft) 100,00 %
24.02.2016 14:32 4,8 C 74 % 1016,9 hPa 0,0 l/m 9,0 km/h (2 Bft) W-SW 257 1 min 0,000 mm 1,1 UV-I 426 W/m 0,6 C 2,6 C 12,9 km/h (3 Bft) 100,00 %
24.02.2016 14:33 4,8 C 74 % 1016,8 hPa 0,0 l/m 7,3 km/h (2 Bft) NW 314 1 min 0,000 mm 1,1 UV-I 425 W/m 0,6 C 4,0 C 11,3 km/h (2 Bft) 100,00 %
24.02.2016 14:34 4,8 C 75 % 1016,8 hPa 0,0 l/m 8,2 km/h (2 Bft) W 269 1 min 0,000 mm 1,0 UV-I 428 W/m 0,8 C 3,2 C 16,1 km/h (3 Bft) 100,00 %
24.02.2016 14:35 4,8 C 75 % 1016,8 hPa 0,0 l/m 13,9 km/h (3 Bft) SW 227 1 min 0,000 mm 1,0 UV-I 437 W/m 0,8 C -0,6 C 19,3 km/h (3 Bft) 100,00 %
24.02.2016 14:36 4,9 C 75 % 1016,8 hPa 0,0 l/m 6,8 km/h (2 Bft) W 265 1 min 0,000 mm 1,0 UV-I 428 W/m 0,8 C 4,6 C 9,7 km/h (2 Bft) 100,00 %
24.02.2016 14:37 4,9 C 77 % 1016,8 hPa 0,0 l/m 2,5 km/h (1 Bft) W-NW 298 1 min 0,000 mm 1,0 UV-I 424 W/m 1,2 C 4,9 C 4,8 km/h (1 Bft) 100,00 %
24.02.2016 14:38 5,1 C 76 % 1016,8 hPa 0,0 l/m 3,8 km/h (1 Bft) W 272 1 min 0,000 mm 1,0 UV-I 424 W/m 1,2 C 5,1 C 9,7 km/h (2 Bft) 100,00 %
24.02.2016 14:39 5,1 C 75 % 1016,8 hPa 0,0 l/m 5,1 km/h (1 Bft) SW 228 1 min 0,000 mm 1,0 UV-I 422 W/m 1,0 C 5,1 C 8,0 km/h (2 Bft) 100,00 %
24.02.2016 14:40 5,2 C 76 % 1016,8 hPa 0,0 l/m 7,1 km/h (2 Bft) W-SW 254 1 min 0,000 mm 1,0 UV-I 424 W/m 1,3 C 4,6 C 11,3 km/h (2 Bft) 96,15 %
24.02.2016 14:41 5,2 C 73 % 1016,8 hPa 0,0 l/m 5,7 km/h (1 Bft) W 263 1 min 0,000 mm 1,0 UV-I 420 W/m 0,8 C 5,2 C 9,7 km/h (2 Bft) 100,00 %
24.02.2016 14:42 5,2 C 74 % 1016,8 hPa 0,0 l/m 6,5 km/h (2 Bft) W-SW 249 1 min 0,000 mm 1,0 UV-I 418 W/m 1,0 C 5,1 C 9,7 km/h (2 Bft) 96,15 %
24.02.2016 14:43 5,1 C 71 % 1016,8 hPa 0,0 l/m 5,8 km/h (2 Bft) W-NW 290 1 min 0,000 mm 1,0 UV-I 421 W/m 0,3 C 5,1 C 9,7 km/h (2 Bft) 96,30 %
24.02.2016 14:44 5,2 C 74 % 1016,8 hPa 0,0 l/m 4,3 km/h (1 Bft) NW 308 1 min 0,000 mm 0,9 UV-I 419 W/m 1,0 C 5,2 C 6,4 km/h (2 Bft) 100,00 %
24.02.2016 14:45 5,2 C 75 % 1016,8 hPa 0,0 l/m 5,3 km/h (1 Bft) W-NW 286 1 min 0,000 mm 0,9 UV-I 424 W/m 1,1 C 5,2 C 9,7 km/h (2 Bft) 96,30 %
24.02.2016 14:46 5,2 C 75 % 1016,8 hPa 0,0 l/m 5,6 km/h (1 Bft) W-NW 282 1 min 0,000 mm 0,9 UV-I 425 W/m 1,1 C 5,2 C 8,0 km/h (2 Bft) 100,00 %
24.02.2016 14:47 5,2 C 73 % 1016,8 hPa 0,0 l/m 2,0 km/h (1 Bft) W-NW 300 1 min 0,000 mm 0,9 UV-I 432 W/m 0,8 C 5,2 C 3,2 km/h (1 Bft) 91,67 %
24.02.2016 14:48 5,2 C 73 % 1016,7 hPa 0,0 l/m 2,7 km/h (1 Bft) NW 306 1 min 0,000 mm 0,9 UV-I 435 W/m 0,8 C 5,2 C 4,8 km/h (1 Bft) 100,00 %
24.02.2016 14:49 5,3 C 75 % 1016,7 hPa 0,0 l/m 4,2 km/h (1 Bft) N 355 1 min 0,000 mm 0,9 UV-I 441 W/m 1,2 C 5,3 C 6,4 km/h (2 Bft) 90,00 %
24.02.2016 14:50 5,3 C 74 % 1016,7 hPa 0,0 l/m 3,7 km/h (1 Bft) W-NW 293 1 min 0,000 mm 0,9 UV-I 453 W/m 1,0 C 5,3 C 6,4 km/h (2 Bft) 96,15 %
24.02.2016 14:51 5,3 C 75 % 1016,7 hPa 0,0 l/m 2,3 km/h (1 Bft) W-NW 284 1 min 0,000 mm 0,9 UV-I 456 W/m 1,2 C 5,3 C 9,7 km/h (2 Bft) 100,00 %
24.02.2016 14:52 5,4 C 75 % 1016,7 hPa 0,0 l/m 1,9 km/h (1 Bft) W-NW 291 1 min 0,000 mm 0,9 UV-I 433 W/m 1,3 C 5,4 C 3,2 km/h (1 Bft) 96,55 %
24.02.2016 14:53 5,5 C 74 % 1016,7 hPa 0,0 l/m 2,9 km/h (1 Bft) W 274 1 min 0,000 mm 0,9 UV-I 422 W/m 1,2 C 5,5 C 11,3 km/h (2 Bft) 95,83 %
24.02.2016 14:54 5,6 C 76 % 1016,7 hPa 0,0 l/m 5,2 km/h (1 Bft) N-NW 329 1 min 0,000 mm 0,9 UV-I 469 W/m 1,7 C 5,6 C 11,3 km/h (2 Bft) 95,65 %
24.02.2016 14:55 5,7 C 74 % 1016,6 hPa 0,0 l/m 7,2 km/h (2 Bft) NW 305 1 min 0,000 mm 0,9 UV-I 469 W/m 1,4 C 5,0 C 16,1 km/h (3 Bft) 100,00 %
24.02.2016 14:56 5,7 C 72 % 1016,6 hPa 0,0 l/m 11,4 km/h (2 Bft) W-NW 291 1 min 0,000 mm 0,8 UV-I 422 W/m 1,1 C 1,9 C 17,7 km/h (3 Bft) 95,65 %
24.02.2016 14:57 5,6 C 73 % 1016,7 hPa 0,0 l/m 4,7 km/h (1 Bft) N-NW 336 1 min 0,000 mm 0,8 UV-I 327 W/m 1,2 C 5,6 C 14,5 km/h (3 Bft) 100,00 %
24.02.2016 14:58 5,6 C 73 % 1016,7 hPa 0,0 l/m 4,3 km/h (1 Bft) W-NW 290 1 min 0,000 mm 0,7 UV-I 297 W/m 1,2 C 5,6 C 6,4 km/h (2 Bft) 91,67 %
24.02.2016 14:59 5,6 C 75 % 1016,7 hPa 0,0 l/m 3,6 km/h (1 Bft) N-NW 330 0 min 0,000 mm 0,7 UV-I 154 W/m 1,5 C 5,6 C 6,4 km/h (2 Bft) 100,00 %
24.02.2016 15:00 5,5 C 76 % 1016,7 hPa 0,0 l/m 4,2 km/h (1 Bft) NW 313 0 min 0,000 mm 0,7 UV-I 160 W/m 1,6 C 5,5 C 6,4 km/h (2 Bft) 96,30 %
24.02.2016 15:01 5,4 C 73 % 1016,7 hPa 0,0 l/m 4,5 km/h (1 Bft) W-NW 300 0 min 0,153 mm 0,7 UV-I 163 W/m 1,0 C 5,4 C 11,3 km/h (2 Bft) 95,65 %
24.02.2016 15:02 5,3 C 74 % 1016,7 hPa 0,0 l/m 1,2 km/h (1 Bft) W-NW 300 1 min 0,000 mm 0,7 UV-I 277 W/m 1,0 C 5,3 C 3,2 km/h (1 Bft) 100,00 %
24.02.2016 15:03 5,3 C 76 % 1016,7 hPa 0,0 l/m 3,0 km/h (1 Bft) NW 304 1 min 0,000 mm 0,7 UV-I 314 W/m 1,4 C 5,3 C 4,8 km/h (1 Bft) 92,86 %
24.02.2016 15:04 5,4 C 75 % 1016,7 hPa 0,0 l/m 2,9 km/h (1 Bft) W-SW 248 1 min 0,000 mm 0,7 UV-I 397 W/m 1,3 C 5,4 C 4,8 km/h (1 Bft) 100,00 %
24.02.2016 15:05 5,6 C 76 % 1016,6 hPa 0,0 l/m 4,2 km/h (1 Bft) W-NW 287 1 min 0,000 mm 0,7 UV-I 404 W/m 1,7 C 5,6 C 6,4 km/h (2 Bft) 100,00 %
24.02.2016 15:06 5,6 C 72 % 1016,7 hPa 0,0 l/m 5,3 km/h (1 Bft) NW 310 1 min 0,000 mm 0,7 UV-I 404 W/m 1,0 C 5,6 C 9,7 km/h (2 Bft) 100,00 %
24.02.2016 15:07 5,5 C 73 % 1016,7 hPa 0,0 l/m 5,2 km/h (1 Bft) W-NW 284 1 min 0,000 mm 0,6 UV-I 223 W/m 1,1 C 5,5 C 11,3 km/h (2 Bft) 100,00 %
24.02.2016 15:08 5,4 C 72 % 1016,7 hPa 0,0 l/m 3,1 km/h (1 Bft) W-SW 253 0 min 0,000 mm 0,5 UV-I 154 W/m 0,8 C 5,4 C 8,0 km/h (2 Bft) 100,00 %
24.02.2016 15:09 5,3 C 73 % 1016,7 hPa 0,0 l/m 4,5 km/h (1 Bft) W 269 0 min 0,000 mm 0,5 UV-I 140 W/m 0,9 C 5,3 C 9,7 km/h (2 Bft) 91,30 %
24.02.2016 15:10 5,2 C 74 % 1016,7 hPa 0,0 l/m 0,7 km/h (0 Bft) W 269 0 min 0,000 mm 0,4 UV-I 131 W/m 1,0 C 5,2 C 3,2 km/h (1 Bft) 100,00 %
24.02.2016 15:11 5,1 C 75 % 1016,7 hPa 0,0 l/m 3,1 km/h (1 Bft) W-SW 247 0 min 0,000 mm 0,0 UV-I 126 W/m 1,0 C 5,1 C 6,4 km/h (2 Bft) 100,00 %
24.02.2016 15:12 5,1 C 74 % 1016,7 hPa 0,0 l/m 5,1 km/h (1 Bft) NW 309 0 min 0,000 mm 0,0 UV-I 124 W/m 0,9 C 5,1 C 6,4 km/h (2 Bft) 100,00 %
24.02.2016 15:13 5,0 C 75 % 1016,7 hPa 0,0 l/m 8,6 km/h (2 Bft) NW 326 0 min 0,000 mm 0,0 UV-I 119 W/m 0,9 C 3,1 C 14,5 km/h (3 Bft) 100,00 %
24.02.2016 15:14 4,9 C 74 % 1016,7 hPa 0,0 l/m 4,2 km/h (1 Bft) N-NW 331 0 min 0,000 mm 0,0 UV-I 114 W/m 0,7 C 4,9 C 6,4 km/h (2 Bft) 100,00 %
24.02.2016 15:15 4,9 C 75 % 1016,7 hPa 0,0 l/m 7,2 km/h (2 Bft) NW 323 0 min 0,000 mm 0,0 UV-I 109 W/m 0,8 C 4,2 C 11,3 km/h (2 Bft) 100,00 %
24.02.2016 15:16 4,8 C 74 % 1016,7 hPa 0,0 l/m 4,1 km/h (1 Bft) SW 236 0 min 0,000 mm 0,0 UV-I 114 W/m 0,6 C 4,8 C 9,7 km/h (2 Bft) 92,31 %
24.02.2016 15:17 4,8 C 75 % 1016,7 hPa 0,0 l/m 7,7 km/h (2 Bft) NW 316 0 min 0,000 mm 0,0 UV-I 120 W/m 0,8 C 3,6 C 11,3 km/h (2 Bft) 100,00 %
24.02.2016 15:18 4,7 C 75 % 1016,7 hPa 0,0 l/m 4,6 km/h (1 Bft) W-NW 296 0 min 0,000 mm 0,0 UV-I 125 W/m 0,7 C 4,7 C 8,0 km/h (2 Bft) 97,56 %
24.02.2016 15:19 4,7 C 76 % 1016,7 hPa 0,0 l/m 2,4 km/h (1 Bft) NW 325 0 min 0,000 mm 0,0 UV-I 131 W/m 0,8 C 4,7 C 4,8 km/h (1 Bft) 100,00 %
24.02.2016 15:20 4,7 C 78 % 1016,7 hPa 0,0 l/m 3,3 km/h (1 Bft) W 270 0 min 0,000 mm 0,0 UV-I 137 W/m 1,2 C 4,7 C 9,7 km/h (2 Bft) 100,00 %
24.02.2016 15:21 4,7 C 77 % 1016,7 hPa 0,0 l/m 3,8 km/h (1 Bft) W 259 0 min 0,000 mm 0,0 UV-I 142 W/m 1,0 C 4,7 C 8,0 km/h (2 Bft) 100,00 %
24.02.2016 15:22 4,7 C 77 % 1016,7 hPa 0,0 l/m 6,8 km/h (2 Bft) W-NW 293 0 min 0,000 mm 0,0 UV-I 140 W/m 1,0 C 4,4 C 19,3 km/h (3 Bft) 100,00 %
24.02.2016 15:23 4,7 C 78 % 1016,7 hPa 0,0 l/m 10,1 km/h (2 Bft) W-NW 288 0 min 0,000 mm 0,0 UV-I 138 W/m 1,2 C 1,7 C 17,7 km/h (3 Bft) 100,00 %
24.02.2016 15:24 4,7 C 78 % 1016,7 hPa 0,0 l/m 4,9 km/h (1 Bft) W 263 0 min 0,000 mm 0,0 UV-I 148 W/m 1,2 C 4,7 C 6,4 km/h (2 Bft) 92,86 %
24.02.2016 15:25 4,7 C 79 % 1016,7 hPa 0,0 l/m 8,8 km/h (2 Bft) W 275 0 min 0,000 mm 0,0 UV-I 156 W/m 1,4 C 2,6 C 14,5 km/h (3 Bft) 100,00 %
24.02.2016 15:26 4,6 C 79 % 1016,8 hPa 0,0 l/m 6,0 km/h (2 Bft) W-NW 286 0 min 0,000 mm 0,0 UV-I 163 W/m 1,3 C 4,6 C 11,3 km/h (2 Bft) 100,00 %
24.02.2016 15:27 4,7 C 81 % 1016,8 hPa 0,0 l/m 6,4 km/h (2 Bft) W-NW 292 1 min 0,000 mm 0,0 UV-I 226 W/m 1,7 C 4,7 C 11,3 km/h (2 Bft) 100,00 %
24.02.2016 15:28 4,7 C 82 % 1016,8 hPa 0,0 l/m 2,7 km/h (1 Bft) W-NW 291 1 min 0,000 mm 0,0 UV-I 383 W/m 1,9 C 4,7 C 6,4 km/h (2 Bft) 100,00 %
24.02.2016 15:29 4,7 C 82 % 1016,8 hPa 0,0 l/m 5,3 km/h (1 Bft) N 5 1 min 0,000 mm 0,0 UV-I 433 W/m 1,9 C 4,7 C 11,3 km/h (2 Bft) 100,00 %
24.02.2016 15:30 4,7 C 82 % 1016,8 hPa 0,0 l/m 5,1 km/h (1 Bft) NW 318 1 min 0,000 mm 0,0 UV-I 461 W/m 1,9 C 4,7 C 9,7 km/h (2 Bft) 100,00 %
24.02.2016 15:31 4,7 C 83 % 1016,9 hPa 0,0 l/m 5,7 km/h (1 Bft) N-NW 327 1 min 0,000 mm 0,3 UV-I 447 W/m 2,1 C 4,7 C 12,9 km/h (3 Bft) 100,00 %
24.02.2016 15:32 4,6 C 82 % 1016,8 hPa 0,0 l/m 6,4 km/h (2 Bft) NW 309 1 min 0,000 mm 0,5 UV-I 398 W/m 1,8 C 4,6 C 14,5 km/h (3 Bft) 100,00 %
24.02.2016 15:33 4,5 C 80 % 1016,8 hPa 0,0 l/m 5,3 km/h (1 Bft) NW 314 1 min 0,000 mm 0,4 UV-I 344 W/m 1,4 C 4,5 C 8,0 km/h (2 Bft) 100,00 %
24.02.2016 15:34 4,4 C 81 % 1016,8 hPa 0,0 l/m 4,0 km/h (1 Bft) W-NW 302 1 min 0,000 mm 0,0 UV-I 288 W/m 1,4 C 4,4 C 8,0 km/h (2 Bft) 96,15 %
24.02.2016 15:35 4,4 C 81 % 1016,7 hPa 0,0 l/m 7,6 km/h (2 Bft) NW 315 1 min 0,000 mm 0,0 UV-I 236 W/m 1,4 C 3,3 C 14,5 km/h (3 Bft) 100,00 %
24.02.2016 15:36 4,2 C 82 % 1016,8 hPa 0,0 l/m 5,1 km/h (1 Bft) NW 319 1 min 0,000 mm 0,0 UV-I 180 W/m 1,4 C 4,2 C 9,7 km/h (2 Bft) 100,00 %
24.02.2016 15:37 4,1 C 81 % 1016,7 hPa 0,0 l/m 3,9 km/h (1 Bft) NW 305 0 min 0,000 mm 0,0 UV-I 137 W/m 1,1 C 4,1 C 4,8 km/h (1 Bft) 100,00 %
24.02.2016 15:38 3,9 C 81 % 1016,7 hPa 0,0 l/m 2,4 km/h (1 Bft) N-NW 333 0 min 0,000 mm 0,0 UV-I 133 W/m 0,9 C 3,9 C 4,8 km/h (1 Bft) 100,00 %
24.02.2016 15:39 3,8 C 83 % 1016,7 hPa 0,0 l/m 3,5 km/h (1 Bft) NW 312 0 min 0,000 mm 0,0 UV-I 144 W/m 1,2 C 3,8 C 6,4 km/h (2 Bft) 96,55 %
24.02.2016 15:40 3,7 C 83 % 1016,7 hPa 0,0 l/m 5,6 km/h (1 Bft) W-NW 296 0 min 0,000 mm 0,0 UV-I 140 W/m 1,1 C 3,7 C 11,3 km/h (2 Bft) 100,00 %
24.02.2016 15:41 3,6 C 84 % 1016,7 hPa 0,0 l/m 3,2 km/h (1 Bft) NW 304 0 min 0,000 mm 0,0 UV-I 142 W/m 1,2 C 3,6 C 6,4 km/h (2 Bft) 100,00 %
24.02.2016 15:42 3,6 C 84 % 1016,7 hPa 0,0 l/m 2,4 km/h (1 Bft) NW 309 1 min 0,000 mm 0,0 UV-I 169 W/m 1,2 C 3,6 C 6,4 km/h (2 Bft) 100,00 %
24.02.2016 15:43 3,5 C 84 % 1016,7 hPa 0,0 l/m 4,0 km/h (1 Bft) W-NW 297 1 min 0,000 mm 0,0 UV-I 171 W/m 1,1 C 3,5 C 6,4 km/h (2 Bft) 96,15 %
24.02.2016 15:44 3,5 C 85 % 1016,7 hPa 0,0 l/m 1,4 km/h (1 Bft) NW 306 1 min 0,000 mm 0,0 UV-I 292 W/m 1,2 C 3,5 C 3,2 km/h (1 Bft) 100,00 %
24.02.2016 15:45 3,6 C 86 % 1016,7 hPa 0,0 l/m 2,6 km/h (1 Bft) N-NW 328 1 min 0,000 mm 0,0 UV-I 315 W/m 1,5 C 3,6 C 4,8 km/h (1 Bft) 100,00 %
24.02.2016 15:46 3,6 C 85 % 1016,6 hPa 0,0 l/m 4,1 km/h (1 Bft) W-NW 300 1 min 0,000 mm 0,0 UV-I 313 W/m 1,3 C 3,6 C 6,4 km/h (2 Bft) 100,00 %
24.02.2016 15:47 3,7 C 83 % 1016,6 hPa 0,0 l/m 5,3 km/h (1 Bft) NW 322 1 min 0,000 mm 0,0 UV-I 306 W/m 1,1 C 3,7 C 8,0 km/h (2 Bft) 100,00 %
24.02.2016 15:48 3,6 C 83 % 1016,6 hPa 0,0 l/m 2,1 km/h (1 Bft) NW 325 1 min 0,000 mm 0,0 UV-I 290 W/m 1,0 C 3,6 C 3,2 km/h (1 Bft) 100,00 %
24.02.2016 15:49 3,6 C 83 % 1016,6 hPa 0,0 l/m 1,8 km/h (1 Bft) NW 323 1 min 0,000 mm 0,0 UV-I 227 W/m 1,0 C 3,6 C 3,2 km/h (1 Bft) 100,00 %
24.02.2016 15:50 3,6 C 84 % 1016,5 hPa 0,0 l/m 1,4 km/h (1 Bft) NW 323 1 min 0,000 mm 0,0 UV-I 225 W/m 1,2 C 3,6 C 3,2 km/h (1 Bft) 100,00 %
24.02.2016 15:51 3,7 C 84 % 1016,6 hPa 0,0 l/m 2,6 km/h (1 Bft) NW 312 1 min 0,000 mm 0,0 UV-I 172 W/m 1,3 C 3,7 C 4,8 km/h (1 Bft) 96,55 %
24.02.2016 15:52 3,7 C 84 % 1016,5 hPa 0,0 l/m 6,3 km/h (2 Bft) N-NW 344 1 min 0,000 mm 0,0 UV-I 153 W/m 1,3 C 3,7 C 11,3 km/h (2 Bft) 100,00 %
24.02.2016 15:53 3,7 C 82 % 1016,5 hPa 0,0 l/m 3,2 km/h (1 Bft) N 349 1 min 0,000 mm 0,0 UV-I 167 W/m 0,9 C 3,7 C 4,8 km/h (1 Bft) 100,00 %
24.02.2016 15:54 3,6 C 82 % 1016,5 hPa 0,0 l/m 2,0 km/h (1 Bft) N-NW 342 1 min 0,000 mm 0,0 UV-I 200 W/m 0,8 C 3,6 C 3,2 km/h (1 Bft) 100,00 %
24.02.2016 15:55 3,5 C 82 % 1016,5 hPa 0,0 l/m 2,3 km/h (1 Bft) NW 320 1 min 0,000 mm 0,0 UV-I 211 W/m 0,7 C 3,5 C 4,8 km/h (1 Bft) 96,30 %
24.02.2016 15:56 3,5 C 82 % 1016,5 hPa 0,0 l/m 2,2 km/h (1 Bft) NW 319 1 min 0,000 mm 0,0 UV-I 223 W/m 0,7 C 3,5 C 3,2 km/h (1 Bft) 100,00 %
24.02.2016 15:57 3,5 C 82 % 1016,5 hPa 0,0 l/m 2,3 km/h (1 Bft) N-NW 328 1 min 0,000 mm 0,0 UV-I 230 W/m 0,7 C 3,5 C 3,2 km/h (1 Bft) 100,00 %
24.02.2016 15:58 3,6 C 82 % 1016,5 hPa 0,0 l/m 2,1 km/h (1 Bft) NW 317 1 min 0,000 mm 0,0 UV-I 229 W/m 0,8 C 3,6 C 4,8 km/h (1 Bft) 96,15 %
24.02.2016 15:59 3,6 C 83 % 1016,5 hPa 0,0 l/m 0,2 km/h (0 Bft) NW 317 1 min 0,000 mm 0,0 UV-I 229 W/m 1,0 C 3,6 C 1,6 km/h (1 Bft) 100,00 %
24.02.2016 16:00 3,7 C 82 % 1016,5 hPa 0,0 l/m 1,1 km/h (1 Bft) NW 317 1 min 0,000 mm 0,0 UV-I 230 W/m 0,9 C 3,7 C 3,2 km/h (1 Bft) 98,52 %
24.02.2016 16:01 3,8 C 82 % 1016,4 hPa 0,0 l/m 1,2 km/h (1 Bft) NW 317 1 min 0,101 mm 0,0 UV-I 229 W/m 1,0 C 3,8 C 1,6 km/h (1 Bft) 97,44 %
24.02.2016 16:02 3,8 C 80 % 1016,4 hPa 0,0 l/m 1,5 km/h (1 Bft) NW 317 1 min 0,000 mm 0,0 UV-I 230 W/m 0,7 C 3,8 C 1,6 km/h (1 Bft) 100,00 %
24.02.2016 16:03 3,9 C 80 % 1016,4 hPa 0,0 l/m 3,6 km/h (1 Bft) W-NW 297 1 min 0,000 mm 0,0 UV-I 230 W/m 0,8 C 3,9 C 6,4 km/h (2 Bft) 95,83 %
24.02.2016 16:04 3,9 C 78 % 1016,4 hPa 0,0 l/m 3,4 km/h (1 Bft) NW 308 1 min 0,000 mm 0,0 UV-I 228 W/m 0,4 C 3,9 C 4,8 km/h (1 Bft) 100,00 %
24.02.2016 16:05 3,9 C 78 % 1016,4 hPa 0,0 l/m 1,7 km/h (1 Bft) NW 308 1 min 0,000 mm 0,0 UV-I 221 W/m 0,4 C 3,9 C 4,8 km/h (1 Bft) 100,00 %
24.02.2016 16:06 4,0 C 78 % 1016,3 hPa 0,0 l/m 1,2 km/h (1 Bft) NW 308 1 min 0,000 mm 0,0 UV-I 214 W/m 0,5 C 4,0 C 3,2 km/h (1 Bft) 95,65 %
24.02.2016 16:07 4,0 C 78 % 1016,3 hPa 0,0 l/m 2,7 km/h (1 Bft) NW 307 1 min 0,000 mm 0,0 UV-I 207 W/m 0,5 C 4,0 C 3,2 km/h (1 Bft) 100,00 %
24.02.2016 16:08 4,0 C 78 % 1016,3 hPa 0,0 l/m 1,7 km/h (1 Bft) NW 307 1 min 0,000 mm 0,0 UV-I 198 W/m 0,5 C 4,0 C 3,2 km/h (1 Bft) 100,00 %
24.02.2016 16:09 4,0 C 77 % 1016,3 hPa 0,0 l/m 1,2 km/h (1 Bft) NW 307 1 min 0,000 mm 0,0 UV-I 192 W/m 0,3 C 4,0 C 3,2 km/h (1 Bft) 100,00 %
24.02.2016 16:10 4,0 C 77 % 1016,3 hPa 0,0 l/m 3,2 km/h (1 Bft) W-NW 285 1 min 0,000 mm 0,0 UV-I 187 W/m 0,3 C 4,0 C 4,8 km/h (1 Bft) 100,00 %
24.02.2016 16:11 3,9 C 76 % 1016,3 hPa 0,0 l/m 1,7 km/h (1 Bft) W-NW 285 1 min 0,000 mm 0,0 UV-I 182 W/m 0,1 C 3,9 C 3,2 km/h (1 Bft) 100,00 %
24.02.2016 16:12 3,9 C 78 % 1016,3 hPa 0,0 l/m 1,0 km/h (0 Bft) N-NO 24 1 min 0,000 mm 0,0 UV-I 175 W/m 0,4 C 3,9 C 3,2 km/h (1 Bft) 100,00 %
24.02.2016 16:13 4,0 C 76 % 1016,3 hPa 0,0 l/m 2,0 km/h (1 Bft) N 355 1 min 0,000 mm 0,0 UV-I 171 W/m 0,2 C 4,0 C 3,2 km/h (1 Bft) 100,00 %
24.02.2016 16:14 3,9 C 76 % 1016,2 hPa 0,0 l/m 0,7 km/h (0 Bft) N 355 1 min 0,000 mm 0,0 UV-I 166 W/m 0,1 C 3,9 C 1,6 km/h (1 Bft) 100,00 %
24.02.2016 16:15 4,0 C 77 % 1016,3 hPa 0,0 l/m 0,2 km/h (0 Bft) N 355 1 min 0,000 mm 0,0 UV-I 162 W/m 0,3 C 4,0 C 1,6 km/h (1 Bft) 100,00 %
24.02.2016 16:16 4,0 C 76 % 1016,3 hPa 0,0 l/m 0,3 km/h (0 Bft) N-NW 342 1 min 0,000 mm 0,0 UV-I 157 W/m 0,2 C 4,0 C 1,6 km/h (1 Bft) 100,00 %
24.02.2016 16:17 4,0 C 76 % 1016,2 hPa 0,0 l/m 2,1 km/h (1 Bft) NW 323 1 min 0,000 mm 0,0 UV-I 152 W/m 0,2 C 4,0 C 4,8 km/h (1 Bft) 96,15 %
24.02.2016 16:18 4,1 C 76 % 1016,2 hPa 0,0 l/m 2,4 km/h (1 Bft) NW 307 1 min 0,000 mm 0,0 UV-I 148 W/m 0,3 C 4,1 C 4,8 km/h (1 Bft) 100,00 %
24.02.2016 16:19 4,1 C 76 % 1016,1 hPa 0,0 l/m 2,3 km/h (1 Bft) NW 307 1 min 0,000 mm 0,0 UV-I 143 W/m 0,3 C 4,1 C 4,8 km/h (1 Bft) 100,00 %
24.02.2016 16:20 4,1 C 76 % 1016,2 hPa 0,0 l/m 1,7 km/h (1 Bft) NW 307 1 min 0,000 mm 0,0 UV-I 137 W/m 0,3 C 4,1 C 3,2 km/h (1 Bft) 100,00 %
24.02.2016 16:21 4,1 C 75 % 1016,2 hPa 0,0 l/m 0,8 km/h (0 Bft) NW 307 1 min 0,000 mm 0,0 UV-I 130 W/m 0,1 C 4,1 C 1,6 km/h (1 Bft) 95,65 %
24.02.2016 16:22 4,1 C 76 % 1016,1 hPa 0,0 l/m 1,3 km/h (1 Bft) NW 307 1 min 0,000 mm 0,0 UV-I 126 W/m 0,3 C 4,1 C 1,6 km/h (1 Bft) 100,00 %
24.02.2016 16:23 4,0 C 77 % 1016,1 hPa 0,0 l/m 0,6 km/h (0 Bft) NW 307 1 min 0,000 mm 0,0 UV-I 124 W/m 0,3 C 4,0 C 1,6 km/h (1 Bft) 100,00 %
24.02.2016 16:24 4,0 C 76 % 1016,1 hPa 0,0 l/m 0,2 km/h (0 Bft) NW 307 1 min 0,000 mm 0,0 UV-I 123 W/m 0,2 C 4,0 C 1,6 km/h (1 Bft) 100,00 %
24.02.2016 16:25 3,9 C 77 % 1016,1 hPa 0,0 l/m 1,3 km/h (1 Bft) W 263 1 min 0,000 mm 0,0 UV-I 120 W/m 0,2 C 3,9 C 4,8 km/h (1 Bft) 100,00 %
24.02.2016 16:26 3,9 C 75 % 1016,1 hPa 0,0 l/m 0,6 km/h (0 Bft) W 263 1 min 0,000 mm 0,0 UV-I 117 W/m -0,1 C 3,9 C 3,2 km/h (1 Bft) 96,30 %
24.02.2016 16:27 3,9 C 76 % 1016,1 hPa 0,0 l/m 0,6 km/h (0 Bft) W 263 1 min 0,000 mm 0,0 UV-I 112 W/m 0,1 C 3,9 C 1,6 km/h (1 Bft) 100,00 %
24.02.2016 16:28 3,9 C 75 % 1016,1 hPa 0,0 l/m 0,3 km/h (0 Bft) W 263 1 min 0,000 mm 0,0 UV-I 109 W/m -0,1 C 3,9 C 1,6 km/h (1 Bft) 94,74 %
24.02.2016 16:29 3,9 C 76 % 1016,1 hPa 0,0 l/m 1,7 km/h (1 Bft) W 263 1 min 0,000 mm 0,0 UV-I 109 W/m 0,1 C 3,9 C 3,2 km/h (1 Bft) 95,65 %
24.02.2016 16:30 3,9 C 75 % 1016,1 hPa 0,0 l/m 0,7 km/h (0 Bft) W 263 1 min 0,000 mm 0,0 UV-I 109 W/m -0,1 C 3,9 C 1,6 km/h (1 Bft) 100,00 %
24.02.2016 16:31 3,9 C 74 % 1016,1 hPa 0,0 l/m 0,5 km/h (0 Bft) W 263 1 min 0,000 mm 0,0 UV-I 109 W/m -0,3 C 3,9 C 1,6 km/h (1 Bft) 95,65 %
24.02.2016 16:32 3,9 C 75 % 1016,1 hPa 0,0 l/m 0,2 km/h (0 Bft) W 263 1 min 0,000 mm 0,0 UV-I 106 W/m -0,1 C 3,9 C 1,6 km/h (1 Bft) 100,00 %
24.02.2016 16:33 4,0 C 75 % 1016,0 hPa 0,0 l/m 1,1 km/h (1 Bft) W 263 1 min 0,000 mm 0,0 UV-I 101 W/m -0,0 C 4,0 C 3,2 km/h (1 Bft) 96,55 %
24.02.2016 16:34 3,9 C 74 % 1016,0 hPa 0,0 l/m 2,0 km/h (1 Bft) W 263 1 min 0,000 mm 0,0 UV-I 95 W/m -0,3 C 3,9 C 3,2 km/h (1 Bft) 100,00 %
24.02.2016 16:35 3,9 C 75 % 1016,0 hPa 0,0 l/m 0,6 km/h (0 Bft) W 263 1 min 0,000 mm 0,0 UV-I 94 W/m -0,1 C 3,9 C 1,6 km/h (1 Bft) 96,30 %
24.02.2016 16:36 3,9 C 75 % 1016,0 hPa 0,0 l/m 0,9 km/h (0 Bft) W 263 1 min 0,000 mm 0,0 UV-I 95 W/m -0,1 C 3,9 C 3,2 km/h (1 Bft) 100,00 %
24.02.2016 16:37 3,9 C 75 % 1016,0 hPa 0,0 l/m 0,8 km/h (0 Bft) W 263 1 min 0,000 mm 0,0 UV-I 93 W/m -0,1 C 3,9 C 1,6 km/h (1 Bft) 95,83 %
24.02.2016 16:38 3,9 C 75 % 1016,1 hPa 0,0 l/m 0,3 km/h (0 Bft) W 263 1 min 0,000 mm 0,0 UV-I 91 W/m -0,1 C 3,9 C 1,6 km/h (1 Bft) 91,30 %
24.02.2016 16:40 3,9 C 76 % 1016,0 hPa 0,0 l/m 1,6 km/h (1 Bft) W 270 2 min 0,000 mm 0,0 UV-I 91 W/m 0,1 C 3,9 C 4,8 km/h (1 Bft) 99,12 %
24.02.2016 16:45 3,8 C 75 % 1016,0 hPa 0,0 l/m 1,6 km/h (1 Bft) W 270 5 min 0,000 mm 0,0 UV-I 75 W/m -0,2 C 3,8 C 4,8 km/h (1 Bft) 100,00 %
24.02.2016 16:50 3,8 C 76 % 1015,9 hPa 0,0 l/m 0,0 km/h (0 Bft) W 270 5 min 0,000 mm 0,0 UV-I 69 W/m -0,0 C 3,8 C 1,6 km/h (1 Bft) 100,00 %
24.02.2016 16:54 3,8 C 76 % 1015,8 hPa 0,0 l/m 5,7 km/h (1 Bft) W-SW 242 4 min 0,000 mm 0,0 UV-I 62 W/m -0,0 C 3,8 C 6,4 km/h (2 Bft) 97,38 %
24.02.2016 16:55 3,8 C 76 % 1015,9 hPa 0,0 l/m 4,3 km/h (1 Bft) W-SW 242 0 min 0,000 mm 0,0 UV-I 56 W/m -0,0 C 3,8 C 6,4 km/h (2 Bft) 100,00 %
24.02.2016 16:56 3,8 C 76 % 1015,8 hPa 0,0 l/m 2,8 km/h (1 Bft) W-SW 242 0 min 0,000 mm 0,0 UV-I 56 W/m -0,0 C 3,8 C 4,8 km/h (1 Bft) 96,15 %
24.02.2016 16:57 3,8 C 75 % 1015,8 hPa 0,0 l/m 2,1 km/h (1 Bft) W-SW 242 0 min 0,000 mm 0,0 UV-I 55 W/m -0,2 C 3,8 C 3,2 km/h (1 Bft) 100,00 %
24.02.2016 16:58 3,8 C 75 % 1015,8 hPa 0,0 l/m 2,1 km/h (1 Bft) W-SW 242 0 min 0,000 mm 0,0 UV-I 53 W/m -0,2 C 3,8 C 3,2 km/h (1 Bft) 95,65 %
24.02.2016 16:59 3,8 C 75 % 1015,8 hPa 0,0 l/m 1,2 km/h (1 Bft) W-SW 242 0 min 0,000 mm 0,0 UV-I 51 W/m -0,2 C 3,8 C 3,2 km/h (1 Bft) 100,00 %
24.02.2016 17:00 3,8 C 76 % 1015,8 hPa 0,0 l/m 0,9 km/h (0 Bft) W-SW 242 0 min 0,051 mm 0,0 UV-I 50 W/m -0,0 C 3,8 C 1,6 km/h (1 Bft) 95,65 %
24.02.2016 17:01 3,8 C 76 % 1015,8 hPa 0,0 l/m 2,0 km/h (1 Bft) W-SW 242 0 min 0,000 mm 0,0 UV-I 45 W/m -0,0 C 3,8 C 3,2 km/h (1 Bft) 100,00 %
24.02.2016 17:02 3,7 C 76 % 1015,7 hPa 0,0 l/m 2,3 km/h (1 Bft) W-SW 242 0 min 0,000 mm 0,0 UV-I 41 W/m -0,1 C 3,7 C 4,8 km/h (1 Bft) 100,00 %
24.02.2016 17:03 3,7 C 76 % 1015,7 hPa 0,0 l/m 1,3 km/h (1 Bft) W-SW 242 0 min 0,000 mm 0,0 UV-I 39 W/m -0,1 C 3,7 C 1,6 km/h (1 Bft) 100,00 %
24.02.2016 17:04 3,7 C 76 % 1015,7 hPa 0,0 l/m 1,6 km/h (1 Bft) W-SW 242 0 min 0,000 mm 0,0 UV-I 39 W/m -0,1 C 3,7 C 3,2 km/h (1 Bft) 95,65 %
24.02.2016 17:05 3,7 C 76 % 1015,7 hPa 0,0 l/m 1,7 km/h (1 Bft) W-SW 242 0 min 0,000 mm 0,0 UV-I 37 W/m -0,1 C 3,7 C 3,2 km/h (1 Bft) 96,30 %
24.02.2016 17:06 3,7 C 77 % 1015,7 hPa 0,0 l/m 2,1 km/h (1 Bft) W-SW 242 0 min 0,000 mm 0,0 UV-I 35 W/m 0,1 C 3,7 C 3,2 km/h (1 Bft) 100,00 %
24.02.2016 17:07 3,7 C 77 % 1015,7 hPa 0,0 l/m 0,9 km/h (0 Bft) W-SW 242 0 min 0,000 mm 0,0 UV-I 35 W/m 0,1 C 3,7 C 1,6 km/h (1 Bft) 100,00 %
24.02.2016 17:08 3,7 C 76 % 1015,7 hPa 0,0 l/m 1,4 km/h (1 Bft) W-SW 242 0 min 0,000 mm 0,0 UV-I 32 W/m -0,1 C 3,7 C 3,2 km/h (1 Bft) 100,00 %
24.02.2016 17:09 3,7 C 76 % 1015,7 hPa 0,0 l/m 0,5 km/h (0 Bft) W-SW 242 0 min 0,000 mm 0,0 UV-I 28 W/m -0,1 C 3,7 C 1,6 km/h (1 Bft) 100,00 %
24.02.2016 17:10 3,7 C 76 % 1015,7 hPa 0,0 l/m 0,0 km/h (0 Bft) W-SW 242 0 min 0,000 mm 0,0 UV-I 25 W/m -0,1 C 3,7 C 0,0 km/h (0 Bft) 100,00 %
24.02.2016 17:11 3,7 C 76 % 1015,7 hPa 0,0 l/m 0,0 km/h (0 Bft) W-SW 242 0 min 0,000 mm 0,0 UV-I 25 W/m -0,1 C 3,7 C 0,0 km/h (0 Bft) 95,65 %
24.02.2016 17:12 3,7 C 77 % 1015,7 hPa 0,0 l/m 0,0 km/h (0 Bft) W-SW 242 0 min 0,000 mm 0,0 UV-I 25 W/m 0,1 C 3,7 C 0,0 km/h (0 Bft) 100,00 %
24.02.2016 17:13 3,7 C 77 % 1015,7 hPa 0,0 l/m 0,0 km/h (0 Bft) W-SW 242 0 min 0,000 mm 0,0 UV-I 23 W/m 0,1 C 3,7 C 0,0 km/h (0 Bft) 100,00 %
24.02.2016 17:14 3,7 C 77 % 1015,7 hPa 0,0 l/m 0,1 km/h (0 Bft) W-SW 242 0 min 0,000 mm 0,0 UV-I 22 W/m 0,1 C 3,7 C 1,6 km/h (1 Bft) 100,00 %
24.02.2016 17:15 3,7 C 77 % 1015,7 hPa 0,0 l/m 0,7 km/h (0 Bft) W-SW 242 0 min 0,000 mm 0,0 UV-I 21 W/m 0,1 C 3,7 C 1,6 km/h (1 Bft) 100,00 %
24.02.2016 17:16 3,7 C 77 % 1015,7 hPa 0,0 l/m 0,0 km/h (0 Bft) W-SW 242 0 min 0,000 mm 0,0 UV-I 21 W/m 0,1 C 3,7 C 0,0 km/h (0 Bft) 100,00 %
24.02.2016 17:19 3,6 C 78 % 1015,7 hPa 0,0 l/m 0,0 km/h (0 Bft) W-SW 242 0 min 0,000 mm 0,0 UV-I 19 W/m 0,1 C 3,6 C 0,0 km/h (0 Bft) 100,00 %
24.02.2016 17:20 3,4 C 79 % 1015,7 hPa 0,0 l/m 0,5 km/h (0 Bft) W-SW 242 0 min 0,000 mm 0,0 UV-I 18 W/m 0,1 C 3,4 C 1,6 km/h (1 Bft) 100,00 %
24.02.2016 17:21 3,4 C 79 % 1015,7 hPa 0,0 l/m 0,4 km/h (0 Bft) W-SW 242 0 min 0,000 mm 0,0 UV-I 18 W/m 0,1 C 3,4 C 1,6 km/h (1 Bft) 100,00 %
24.02.2016 17:22 3,3 C 80 % 1015,7 hPa 0,0 l/m 0,9 km/h (0 Bft) W-SW 242 0 min 0,000 mm 0,0 UV-I 18 W/m 0,2 C 3,3 C 1,6 km/h (1 Bft) 100,00 %
24.02.2016 17:23 3,2 C 81 % 1015,7 hPa 0,0 l/m 1,6 km/h (1 Bft) W-SW 242 0 min 0,000 mm 0,0 UV-I 16 W/m 0,3 C 3,2 C 3,2 km/h (1 Bft) 100,00 %
24.02.2016 17:24 3,1 C 80 % 1015,7 hPa 0,0 l/m 1,3 km/h (1 Bft) W-SW 242 1 min 0,000 mm 0,0 UV-I 16 W/m -0,0 C 3,1 C 1,6 km/h (1 Bft) 100,00 %
24.02.2016 17:25 3,1 C 81 % 1015,6 hPa 0,0 l/m 1,4 km/h (1 Bft) W-SW 242 1 min 0,000 mm 0,0 UV-I 15 W/m 0,2 C 3,1 C 1,6 km/h (1 Bft) 96,15 %
24.02.2016 17:26 3,0 C 81 % 1015,6 hPa 0,0 l/m 0,2 km/h (0 Bft) W-SW 242 1 min 0,000 mm 0,0 UV-I 14 W/m 0,1 C 3,0 C 1,6 km/h (1 Bft) 100,00 %
24.02.2016 17:27 2,9 C 82 % 1015,7 hPa 0,0 l/m 0,2 km/h (0 Bft) W-SW 242 1 min 0,000 mm 0,0 UV-I 14 W/m 0,1 C 2,9 C 1,6 km/h (1 Bft) 100,00 %
24.02.2016 17:28 2,9 C 81 % 1015,7 hPa 0,0 l/m 0,0 km/h (0 Bft) W-SW 242 1 min 0,000 mm 0,0 UV-I 12 W/m -0,0 C 2,9 C 0,0 km/h (0 Bft) 100,00 %
24.02.2016 17:29 2,9 C 82 % 1015,6 hPa 0,0 l/m 0,0 km/h (0 Bft) W-SW 242 0 min 0,000 mm 0,0 UV-I 12 W/m 0,1 C 2,9 C 0,0 km/h (0 Bft) 100,00 %
24.02.2016 17:30 2,8 C 82 % 1015,7 hPa 0,0 l/m 0,8 km/h (0 Bft) W-SW 242 0 min 0,000 mm 0,0 UV-I 12 W/m 0,0 C 2,8 C 1,6 km/h (1 Bft) 95,83 %
24.02.2016 17:31 2,7 C 82 % 1015,6 hPa 0,0 l/m 1,4 km/h (1 Bft) W-SW 242 0 min 0,000 mm 0,0 UV-I 11 W/m -0,1 C 2,7 C 1,6 km/h (1 Bft) 100,00 %
24.02.2016 17:32 2,6 C 82 % 1015,6 hPa 0,0 l/m 1,6 km/h (1 Bft) W-SW 242 0 min 0,000 mm 0,0 UV-I 11 W/m -0,2 C 2,6 C 1,6 km/h (1 Bft) 100,00 %
24.02.2016 17:33 2,4 C 83 % 1015,6 hPa 0,0 l/m 2,0 km/h (1 Bft) W-SW 242 0 min 0,000 mm 0,0 UV-I 10 W/m -0,2 C 2,4 C 3,2 km/h (1 Bft) 100,00 %
24.02.2016 17:34 2,3 C 83 % 1015,6 hPa 0,0 l/m 2,8 km/h (1 Bft) W-SW 242 0 min 0,000 mm 0,0 UV-I 9 W/m -0,3 C 2,3 C 3,2 km/h (1 Bft) 100,00 %
24.02.2016 17:35 2,2 C 83 % 1015,6 hPa 0,0 l/m 3,0 km/h (1 Bft) W-SW 241 0 min 0,000 mm 0,0 UV-I 9 W/m -0,4 C 2,2 C 3,2 km/h (1 Bft) 100,00 %
24.02.2016 17:36 2,1 C 83 % 1015,6 hPa 0,0 l/m 3,3 km/h (1 Bft) W-SW 241 0 min 0,000 mm 0,0 UV-I 7 W/m -0,5 C 2,1 C 4,8 km/h (1 Bft) 95,65 %
24.02.2016 17:37 1,9 C 84 % 1015,6 hPa 0,0 l/m 3,2 km/h (1 Bft) SW 223 0 min 0,000 mm 0,0 UV-I 7 W/m -0,5 C 1,9 C 4,8 km/h (1 Bft) 100,00 %
24.02.2016 17:38 1,9 C 84 % 1015,6 hPa 0,0 l/m 4,8 km/h (1 Bft) S-SO 164 0 min 0,000 mm 0,0 UV-I 7 W/m -0,5 C 1,9 C 6,4 km/h (2 Bft) 96,15 %
24.02.2016 17:39 1,8 C 84 % 1015,5 hPa 0,0 l/m 5,8 km/h (2 Bft) S-SO 164 0 min 0,000 mm 0,0 UV-I 7 W/m -0,6 C 1,8 C 6,4 km/h (2 Bft) 100,00 %
24.02.2016 17:40 1,8 C 85 % 1015,6 hPa 0,0 l/m 4,0 km/h (1 Bft) S-SO 163 0 min 0,000 mm 0,0 UV-I 6 W/m -0,4 C 1,8 C 6,4 km/h (2 Bft) 96,15 %
24.02.2016 17:41 1,8 C 85 % 1015,5 hPa 0,0 l/m 4,2 km/h (1 Bft) S-SO 150 0 min 0,000 mm 0,0 UV-I 5 W/m -0,4 C 1,8 C 6,4 km/h (2 Bft) 100,00 %
24.02.2016 17:42 1,7 C 85 % 1015,6 hPa 0,0 l/m 4,1 km/h (1 Bft) S-SO 150 0 min 0,000 mm 0,0 UV-I 4 W/m -0,5 C 1,7 C 4,8 km/h (1 Bft) 100,00 %
24.02.2016 17:43 1,7 C 85 % 1015,6 hPa 0,0 l/m 3,6 km/h (1 Bft) S-SO 150 0 min 0,000 mm 0,0 UV-I 0 W/m -0,5 C 1,7 C 4,8 km/h (1 Bft) 100,00 %
24.02.2016 17:44 1,8 C 85 % 1015,5 hPa 0,0 l/m 3,7 km/h (1 Bft) S-SO 150 0 min 0,000 mm 0,0 UV-I 0 W/m -0,4 C 1,8 C 4,8 km/h (1 Bft) 100,00 %
24.02.2016 17:45 1,7 C 85 % 1015,5 hPa 0,0 l/m 3,6 km/h (1 Bft) S-SO 150 0 min 0,000 mm 0,0 UV-I 0 W/m -0,5 C 1,7 C 4,8 km/h (1 Bft) 100,00 %
24.02.2016 17:46 1,7 C 85 % 1015,5 hPa 0,0 l/m 3,8 km/h (1 Bft) S-SO 150 0 min 0,000 mm 0,0 UV-I 0 W/m -0,5 C 1,7 C 4,8 km/h (1 Bft) 95,65 %
24.02.2016 17:47 1,7 C 85 % 1015,5 hPa 0,0 l/m 3,2 km/h (1 Bft) S-SO 150 0 min 0,000 mm 0,0 UV-I 0 W/m -0,5 C 1,7 C 3,2 km/h (1 Bft) 91,67 %
24.02.2016 17:48 1,7 C 85 % 1015,5 hPa 0,0 l/m 2,7 km/h (1 Bft) S-SO 150 0 min 0,000 mm 0,0 UV-I 0 W/m -0,5 C 1,7 C 4,8 km/h (1 Bft) 100,00 %
24.02.2016 17:49 1,7 C 85 % 1015,5 hPa 0,0 l/m 2,7 km/h (1 Bft) S-SO 150 0 min 0,000 mm 0,0 UV-I 0 W/m -0,5 C 1,7 C 3,2 km/h (1 Bft) 98,52 %
24.02.2016 17:50 1,7 C 85 % 1015,5 hPa 0,0 l/m 2,3 km/h (1 Bft) S-SO 150 0 min 0,000 mm 0,0 UV-I 0 W/m -0,5 C 1,7 C 3,2 km/h (1 Bft) 97,73 %
24.02.2016 17:51 1,7 C 85 % 1015,5 hPa 0,0 l/m 2,1 km/h (1 Bft) S-SO 150 0 min 0,000 mm 0,0 UV-I 0 W/m -0,5 C 1,7 C 3,2 km/h (1 Bft) 100,00 %
24.02.2016 17:52 1,6 C 85 % 1015,5 hPa 0,0 l/m 2,4 km/h (1 Bft) S-SO 150 0 min 0,000 mm 0,0 UV-I 0 W/m -0,6 C 1,6 C 3,2 km/h (1 Bft) 100,00 %
24.02.2016 17:53 1,7 C 85 % 1015,5 hPa 0,0 l/m 2,0 km/h (1 Bft) S-SO 150 0 min 0,000 mm 0,0 UV-I 0 W/m -0,5 C 1,7 C 3,2 km/h (1 Bft) 100,00 %
24.02.2016 17:54 1,7 C 85 % 1015,5 hPa 0,0 l/m 2,1 km/h (1 Bft) S-SO 150 0 min 0,000 mm 0,0 UV-I 0 W/m -0,5 C 1,7 C 3,2 km/h (1 Bft) 100,00 %
24.02.2016 17:55 1,7 C 85 % 1015,4 hPa 0,0 l/m 1,8 km/h (1 Bft) S-SO 150 0 min 0,000 mm 0,0 UV-I 0 W/m -0,5 C 1,7 C 3,2 km/h (1 Bft) 100,00 %
24.02.2016 17:56 1,7 C 85 % 1015,4 hPa 0,0 l/m 2,1 km/h (1 Bft) S-SO 150 0 min 0,000 mm 0,0 UV-I 0 W/m -0,5 C 1,7 C 3,2 km/h (1 Bft) 96,30 %
24.02.2016 17:57 1,7 C 85 % 1015,4 hPa 0,0 l/m 2,2 km/h (1 Bft) S-SO 150 0 min 0,000 mm 0,0 UV-I 0 W/m -0,5 C 1,7 C 3,2 km/h (1 Bft) 90,91 %
24.02.2016 17:58 1,6 C 85 % 1015,4 hPa 0,0 l/m 1,7 km/h (1 Bft) S-SO 150 0 min 0,000 mm 0,0 UV-I 0 W/m -0,6 C 1,6 C 3,2 km/h (1 Bft) 100,00 %
24.02.2016 17:59 1,6 C 85 % 1015,4 hPa 0,0 l/m 2,5 km/h (1 Bft) S-SO 150 0 min 0,000 mm 0,0 UV-I 0 W/m -0,6 C 1,6 C 3,2 km/h (1 Bft) 100,00 %
24.02.2016 18:00 1,5 C 85 % 1015,4 hPa 0,0 l/m 1,7 km/h (1 Bft) S-SO 150 0 min 0,000 mm 0,0 UV-I 0 W/m -0,7 C 1,5 C 3,2 km/h (1 Bft) 100,00 %
24.02.2016 18:01 1,6 C 85 % 1015,3 hPa 0,0 l/m 1,6 km/h (1 Bft) S-SO 150 0 min 0,000 mm 0,0 UV-I 0 W/m -0,6 C 1,6 C 3,2 km/h (1 Bft) 100,00 %
24.02.2016 18:02 1,6 C 85 % 1015,4 hPa 0,0 l/m 1,3 km/h (1 Bft) S-SO 150 0 min 0,000 mm 0,0 UV-I 0 W/m -0,6 C 1,6 C 3,2 km/h (1 Bft) 100,00 %
24.02.2016 18:03 1,6 C 85 % 1015,4 hPa 0,0 l/m 0,7 km/h (0 Bft) S-SO 150 0 min 0,000 mm 0,0 UV-I 0 W/m -0,6 C 1,6 C 1,6 km/h (1 Bft) 100,00 %
24.02.2016 18:04 1,6 C 85 % 1015,3 hPa 0,0 l/m 0,9 km/h (0 Bft) S-SO 150 0 min 0,000 mm 0,0 UV-I 0 W/m -0,6 C 1,6 C 3,2 km/h (1 Bft) 100,00 %
24.02.2016 18:05 1,5 C 85 % 1015,4 hPa 0,0 l/m 3,0 km/h (1 Bft) O 80 0 min 0,000 mm 0,0 UV-I 0 W/m -0,7 C 1,5 C 4,8 km/h (1 Bft) 100,00 %
24.02.2016 18:06 1,5 C 85 % 1015,4 hPa 0,0 l/m 4,1 km/h (1 Bft) O-NO 77 0 min 0,000 mm 0,0 UV-I 0 W/m -0,7 C 1,5 C 4,8 km/h (1 Bft) 100,00 %
24.02.2016 18:07 1,6 C 85 % 1015,4 hPa 0,0 l/m 4,4 km/h (1 Bft) O-NO 72 0 min 0,000 mm 0,0 UV-I 0 W/m -0,6 C 1,6 C 6,4 km/h (2 Bft) 100,00 %
24.02.2016 18:08 1,7 C 84 % 1015,3 hPa 0,0 l/m 4,5 km/h (1 Bft) O-NO 69 0 min 0,000 mm 0,0 UV-I 0 W/m -0,7 C 1,7 C 6,4 km/h (2 Bft) 95,83 %
24.02.2016 18:09 1,9 C 84 % 1015,3 hPa 0,0 l/m 5,2 km/h (1 Bft) O 79 0 min 0,000 mm 0,0 UV-I 0 W/m -0,5 C 1,9 C 6,4 km/h (2 Bft) 96,55 %
24.02.2016 18:10 2,0 C 84 % 1015,3 hPa 0,0 l/m 5,1 km/h (1 Bft) O-NO 65 0 min 0,000 mm 0,0 UV-I 0 W/m -0,4 C 2,0 C 6,4 km/h (2 Bft) 100,00 %
24.02.2016 18:11 2,1 C 83 % 1015,3 hPa 0,0 l/m 5,3 km/h (1 Bft) O-NO 77 0 min 0,000 mm 0,0 UV-I 0 W/m -0,5 C 2,1 C 6,4 km/h (2 Bft) 100,00 %
24.02.2016 18:12 2,2 C 83 % 1015,3 hPa 0,0 l/m 6,0 km/h (2 Bft) O-NO 62 0 min 0,000 mm 0,0 UV-I 0 W/m -0,4 C 2,2 C 8,0 km/h (2 Bft) 100,00 %
24.02.2016 18:13 2,2 C 83 % 1015,3 hPa 0,0 l/m 5,4 km/h (1 Bft) O-NO 67 0 min 0,000 mm 0,0 UV-I 0 W/m -0,4 C 2,2 C 8,0 km/h (2 Bft) 100,00 %
24.02.2016 18:14 2,2 C 82 % 1015,3 hPa 0,0 l/m 6,3 km/h (2 Bft) O-NO 57 0 min 0,000 mm 0,0 UV-I 0 W/m -0,5 C 2,2 C 8,0 km/h (2 Bft) 100,00 %
24.02.2016 18:15 2,3 C 82 % 1015,3 hPa 0,0 l/m 5,2 km/h (1 Bft) NO 52 0 min 0,000 mm 0,0 UV-I 0 W/m -0,4 C 2,3 C 8,0 km/h (2 Bft) 100,00 %
24.02.2016 18:16 2,3 C 82 % 1015,3 hPa 0,0 l/m 5,2 km/h (1 Bft) O-NO 71 0 min 0,000 mm 0,0 UV-I 0 W/m -0,4 C 2,3 C 6,4 km/h (2 Bft) 100,00 %
24.02.2016 18:17 2,3 C 82 % 1015,3 hPa 0,0 l/m 3,7 km/h (1 Bft) O-NO 71 0 min 0,000 mm 0,0 UV-I 0 W/m -0,4 C 2,3 C 4,8 km/h (1 Bft) 100,00 %
24.02.2016 18:18 2,3 C 82 % 1015,3 hPa 0,0 l/m 4,2 km/h (1 Bft) O-NO 71 0 min 0,000 mm 0,0 UV-I 0 W/m -0,4 C 2,3 C 6,4 km/h (2 Bft) 100,00 %
24.02.2016 18:19 2,3 C 82 % 1015,3 hPa 0,0 l/m 3,6 km/h (1 Bft) O-NO 71 0 min 0,000 mm 0,0 UV-I 0 W/m -0,4 C 2,3 C 4,8 km/h (1 Bft) 100,00 %
24.02.2016 18:20 2,3 C 82 % 1015,4 hPa 0,0 l/m 3,3 km/h (1 Bft) O-NO 71 0 min 0,000 mm 0,0 UV-I 0 W/m -0,4 C 2,3 C 6,4 km/h (2 Bft) 100,00 %
24.02.2016 18:21 2,3 C 82 % 1015,4 hPa 0,0 l/m 3,4 km/h (1 Bft) O-NO 71 0 min 0,000 mm 0,0 UV-I 0 W/m -0,4 C 2,3 C 4,8 km/h (1 Bft) 100,00 %
24.02.2016 18:22 2,3 C 82 % 1015,4 hPa 0,0 l/m 2,9 km/h (1 Bft) O-NO 71 0 min 0,000 mm 0,0 UV-I 0 W/m -0,4 C 2,3 C 3,2 km/h (1 Bft) 100,00 %
24.02.2016 18:23 2,3 C 82 % 1015,4 hPa 0,0 l/m 3,6 km/h (1 Bft) O-NO 71 0 min 0,000 mm 0,0 UV-I 0 W/m -0,4 C 2,3 C 4,8 km/h (1 Bft) 100,00 %
24.02.2016 18:24 2,2 C 82 % 1015,4 hPa 0,0 l/m 3,8 km/h (1 Bft) NO 54 0 min 0,000 mm 0,0 UV-I 0 W/m -0,5 C 2,2 C 4,8 km/h (1 Bft) 100,00 %
24.02.2016 18:25 2,2 C 83 % 1015,4 hPa 0,0 l/m 4,7 km/h (1 Bft) O-NO 65 0 min 0,000 mm 0,0 UV-I 0 W/m -0,4 C 2,2 C 4,8 km/h (1 Bft) 100,00 %
24.02.2016 18:26 2,1 C 83 % 1015,4 hPa 0,0 l/m 5,2 km/h (1 Bft) O-NO 73 0 min 0,000 mm 0,0 UV-I 0 W/m -0,5 C 2,1 C 6,4 km/h (2 Bft) 100,00 %
24.02.2016 18:27 2,1 C 83 % 1015,4 hPa 0,0 l/m 5,2 km/h (1 Bft) O-NO 77 0 min 0,000 mm 0,0 UV-I 0 W/m -0,5 C 2,1 C 6,4 km/h (2 Bft) 95,83 %
24.02.2016 18:28 2,0 C 83 % 1015,4 hPa 0,0 l/m 4,0 km/h (1 Bft) O-NO 78 0 min 0,000 mm 0,0 UV-I 0 W/m -0,6 C 2,0 C 4,8 km/h (1 Bft) 100,00 %
24.02.2016 18:29 1,9 C 83 % 1015,4 hPa 0,0 l/m 3,5 km/h (1 Bft) O-NO 78 0 min 0,000 mm 0,0 UV-I 0 W/m -0,7 C 1,9 C 4,8 km/h (1 Bft) 100,00 %
24.02.2016 18:30 1,8 C 83 % 1015,5 hPa 0,0 l/m 4,1 km/h (1 Bft) O-NO 77 0 min 0,000 mm 0,0 UV-I 0 W/m -0,8 C 1,8 C 4,8 km/h (1 Bft) 100,00 %
24.02.2016 18:31 1,8 C 84 % 1015,4 hPa 0,0 l/m 4,4 km/h (1 Bft) O-NO 77 0 min 0,000 mm 0,0 UV-I 0 W/m -0,6 C 1,8 C 6,4 km/h (2 Bft) 100,00 %
24.02.2016 18:32 1,7 C 84 % 1015,4 hPa 0,0 l/m 3,9 km/h (1 Bft) O-NO 77 0 min 0,000 mm 0,0 UV-I 0 W/m -0,7 C 1,7 C 6,4 km/h (2 Bft) 100,00 %
24.02.2016 18:33 1,6 C 84 % 1015,4 hPa 0,0 l/m 3,9 km/h (1 Bft) O-NO 77 0 min 0,000 mm 0,0 UV-I 0 W/m -0,8 C 1,6 C 4,8 km/h (1 Bft) 96,15 %
24.02.2016 18:34 1,6 C 84 % 1015,4 hPa 0,0 l/m 3,6 km/h (1 Bft) O-NO 77 0 min 0,000 mm 0,0 UV-I 0 W/m -0,8 C 1,6 C 4,8 km/h (1 Bft) 100,00 %
24.02.2016 18:35 1,6 C 85 % 1015,4 hPa 0,0 l/m 5,0 km/h (1 Bft) O-NO 75 0 min 0,000 mm 0,0 UV-I 0 W/m -0,6 C 1,6 C 6,4 km/h (2 Bft) 85,71 %
24.02.2016 18:36 1,6 C 85 % 1015,4 hPa 0,0 l/m 5,7 km/h (1 Bft) O-NO 76 0 min 0,000 mm 0,0 UV-I 0 W/m -0,6 C 1,6 C 8,0 km/h (2 Bft) 96,55 %
24.02.2016 18:37 1,6 C 85 % 1015,4 hPa 0,0 l/m 6,4 km/h (2 Bft) O-NO 75 0 min 0,000 mm 0,0 UV-I 0 W/m -0,6 C 1,6 C 8,0 km/h (2 Bft) 96,15 %
24.02.2016 18:38 1,7 C 85 % 1015,4 hPa 0,0 l/m 5,8 km/h (2 Bft) O 82 0 min 0,000 mm 0,0 UV-I 0 W/m -0,5 C 1,7 C 6,4 km/h (2 Bft) 96,30 %
24.02.2016 18:39 1,8 C 85 % 1015,4 hPa 0,0 l/m 6,2 km/h (2 Bft) O 84 0 min 0,000 mm 0,0 UV-I 0 W/m -0,4 C 1,8 C 8,0 km/h (2 Bft) 92,86 %
24.02.2016 18:40 1,8 C 85 % 1015,4 hPa 0,0 l/m 5,0 km/h (1 Bft) O-NO 74 0 min 0,000 mm 0,0 UV-I 0 W/m -0,4 C 1,8 C 6,4 km/h (2 Bft) 96,30 %
24.02.2016 18:41 1,8 C 85 % 1015,4 hPa 0,0 l/m 2,9 km/h (1 Bft) O-NO 74 0 min 0,000 mm 0,0 UV-I 0 W/m -0,4 C 1,8 C 4,8 km/h (1 Bft) 100,00 %
24.02.2016 18:42 1,8 C 85 % 1015,4 hPa 0,0 l/m 3,5 km/h (1 Bft) O-NO 74 0 min 0,000 mm 0,0 UV-I 0 W/m -0,4 C 1,8 C 6,4 km/h (2 Bft) 95,83 %
24.02.2016 18:43 1,9 C 85 % 1015,4 hPa 0,0 l/m 4,5 km/h (1 Bft) O-NO 74 0 min 0,000 mm 0,0 UV-I 0 W/m -0,3 C 1,9 C 6,4 km/h (2 Bft) 100,00 %
24.02.2016 18:44 1,9 C 85 % 1015,4 hPa 0,0 l/m 4,0 km/h (1 Bft) O-NO 74 0 min 0,000 mm 0,0 UV-I 0 W/m -0,3 C 1,9 C 4,8 km/h (1 Bft) 91,67 %
24.02.2016 18:45 1,9 C 85 % 1015,4 hPa 0,0 l/m 5,8 km/h (2 Bft) O-NO 78 0 min 0,000 mm 0,0 UV-I 0 W/m -0,3 C 1,9 C 6,4 km/h (2 Bft) 92,31 %
24.02.2016 18:46 1,9 C 84 % 1015,4 hPa 0,0 l/m 5,5 km/h (1 Bft) O 94 0 min 0,000 mm 0,0 UV-I 0 W/m -0,5 C 1,9 C 6,4 km/h (2 Bft) 93,33 %
24.02.2016 18:47 1,8 C 84 % 1015,4 hPa 0,0 l/m 4,9 km/h (1 Bft) O 96 0 min 0,000 mm 0,0 UV-I 0 W/m -0,6 C 1,8 C 6,4 km/h (2 Bft) 92,31 %
24.02.2016 18:48 1,8 C 85 % 1015,4 hPa 0,0 l/m 4,0 km/h (1 Bft) O 96 0 min 0,000 mm 0,0 UV-I 0 W/m -0,4 C 1,8 C 4,8 km/h (1 Bft) 100,00 %
24.02.2016 18:49 1,7 C 85 % 1015,4 hPa 0,0 l/m 4,0 km/h (1 Bft) O 96 0 min 0,000 mm 0,0 UV-I 0 W/m -0,5 C 1,7 C 4,8 km/h (1 Bft) 96,15 %
24.02.2016 18:50 1,6 C 85 % 1015,4 hPa 0,0 l/m 4,9 km/h (1 Bft) O 99 0 min 0,000 mm 0,0 UV-I 0 W/m -0,6 C 1,6 C 6,4 km/h (2 Bft) 100,00 %
24.02.2016 18:51 1,5 C 85 % 1015,4 hPa 0,0 l/m 4,9 km/h (1 Bft) O-SO 102 0 min 0,000 mm 0,0 UV-I 0 W/m -0,7 C 1,5 C 6,4 km/h (2 Bft) 86,67 %
24.02.2016 18:52 1,4 C 86 % 1015,4 hPa 0,0 l/m 5,6 km/h (1 Bft) O-SO 103 0 min 0,000 mm 0,0 UV-I 0 W/m -0,7 C 1,4 C 9,7 km/h (2 Bft) 96,15 %
24.02.2016 18:53 1,3 C 86 % 1015,4 hPa 0,0 l/m 5,4 km/h (1 Bft) O-SO 105 0 min 0,000 mm 0,0 UV-I 0 W/m -0,8 C 1,3 C 6,4 km/h (2 Bft) 96,30 %
24.02.2016 18:54 1,2 C 86 % 1015,4 hPa 0,0 l/m 6,1 km/h (2 Bft) O 88 0 min 0,000 mm 0,0 UV-I 0 W/m -0,9 C 1,2 C 9,7 km/h (2 Bft) 96,15 %
24.02.2016 18:55 1,2 C 87 % 1015,4 hPa 0,0 l/m 8,2 km/h (2 Bft) O 88 0 min 0,000 mm 0,0 UV-I 0 W/m -0,7 C -0,6 C 11,3 km/h (2 Bft) 93,33 %
24.02.2016 18:56 1,1 C 87 % 1015,4 hPa 0,0 l/m 8,5 km/h (2 Bft) O 90 0 min 0,000 mm 0,0 UV-I 0 W/m -0,8 C -1,0 C 12,9 km/h (3 Bft) 96,15 %
24.02.2016 18:57 1,1 C 87 % 1015,4 hPa 0,0 l/m 7,2 km/h (2 Bft) O 99 0 min 0,000 mm 0,0 UV-I 0 W/m -0,8 C 0,3 C 11,3 km/h (2 Bft) 100,00 %
24.02.2016 18:58 1,1 C 87 % 1015,3 hPa 0,0 l/m 8,1 km/h (2 Bft) O 98 0 min 0,000 mm 0,0 UV-I 0 W/m -0,8 C -0,6 C 11,3 km/h (2 Bft) 95,65 %
24.02.2016 18:59 1,2 C 88 % 1015,3 hPa 0,0 l/m 8,2 km/h (2 Bft) O 98 0 min 0,000 mm 0,0 UV-I 0 W/m -0,6 C -0,6 C 12,9 km/h (3 Bft) 95,83 %
24.02.2016 19:00 1,2 C 88 % 1015,3 hPa 0,0 l/m 8,2 km/h (2 Bft) O 91 0 min 0,000 mm 0,0 UV-I 0 W/m -0,6 C -0,6 C 11,3 km/h (2 Bft) 95,65 %
24.02.2016 19:01 1,3 C 87 % 1015,3 hPa 0,0 l/m 7,7 km/h (2 Bft) O-SO 122 0 min 0,000 mm 0,0 UV-I 0 W/m -0,6 C 0,0 C 9,7 km/h (2 Bft) 100,00 %
24.02.2016 19:02 1,4 C 87 % 1015,3 hPa 0,0 l/m 9,7 km/h (2 Bft) O 101 0 min 0,000 mm 0,0 UV-I 0 W/m -0,5 C -1,7 C 12,9 km/h (3 Bft) 94,12 %
24.02.2016 19:03 1,4 C 87 % 1015,3 hPa 0,0 l/m 4,9 km/h (1 Bft) O 100 0 min 0,000 mm 0,0 UV-I 0 W/m -0,5 C 1,4 C 6,4 km/h (2 Bft) 96,30 %
24.02.2016 19:04 1,5 C 87 % 1015,3 hPa 0,0 l/m 5,3 km/h (1 Bft) O-SO 106 0 min 0,000 mm 0,0 UV-I 0 W/m -0,4 C 1,5 C 6,4 km/h (2 Bft) 100,00 %
24.02.2016 19:05 1,5 C 87 % 1015,3 hPa 0,0 l/m 4,8 km/h (1 Bft) O-SO 106 0 min 0,000 mm 0,0 UV-I 0 W/m -0,4 C 1,5 C 6,4 km/h (2 Bft) 91,67 %
24.02.2016 19:06 1,5 C 87 % 1015,3 hPa 0,0 l/m 4,8 km/h (1 Bft) O-SO 106 0 min 0,000 mm 0,0 UV-I 0 W/m -0,4 C 1,5 C 6,4 km/h (2 Bft) 100,00 %
24.02.2016 19:07 1,4 C 87 % 1015,3 hPa 0,0 l/m 3,8 km/h (1 Bft) SO 130 0 min 0,000 mm 0,0 UV-I 0 W/m -0,5 C 1,4 C 6,4 km/h (2 Bft) 87,50 %
24.02.2016 19:08 1,4 C 87 % 1015,3 hPa 0,0 l/m 6,5 km/h (2 Bft) O-SO 118 0 min 0,000 mm 0,0 UV-I 0 W/m -0,5 C 1,3 C 9,7 km/h (2 Bft) 100,00 %
24.02.2016 19:09 1,4 C 88 % 1015,3 hPa 0,0 l/m 7,0 km/h (2 Bft) O-SO 119 0 min 0,000 mm 0,0 UV-I 0 W/m -0,4 C 0,8 C 8,0 km/h (2 Bft) 96,30 %
24.02.2016 19:10 1,4 C 88 % 1015,3 hPa 0,0 l/m 4,9 km/h (1 Bft) SO 130 0 min 0,000 mm 0,0 UV-I 0 W/m -0,4 C 1,4 C 6,4 km/h (2 Bft) 100,00 %
24.02.2016 19:11 1,5 C 88 % 1015,3 hPa 0,0 l/m 4,1 km/h (1 Bft) O-SO 120 0 min 0,000 mm 0,0 UV-I 0 W/m -0,3 C 1,5 C 6,4 km/h (2 Bft) 87,50 %
24.02.2016 19:12 1,5 C 88 % 1015,3 hPa 0,0 l/m 6,0 km/h (2 Bft) SO 135 0 min 0,000 mm 0,0 UV-I 0 W/m -0,3 C 1,5 C 9,7 km/h (2 Bft) 100,00 %
24.02.2016 19:13 1,5 C 88 % 1015,3 hPa 0,0 l/m 4,0 km/h (1 Bft) SO 134 0 min 0,000 mm 0,0 UV-I 0 W/m -0,3 C 1,5 C 6,4 km/h (2 Bft) 100,00 %
24.02.2016 19:14 1,5 C 87 % 1015,3 hPa 0,0 l/m 4,8 km/h (1 Bft) O-SO 115 0 min 0,000 mm 0,0 UV-I 0 W/m -0,4 C 1,5 C 6,4 km/h (2 Bft) 93,33 %
24.02.2016 19:15 1,4 C 87 % 1015,2 hPa 0,0 l/m 3,8 km/h (1 Bft) O-SO 104 0 min 0,000 mm 0,0 UV-I 0 W/m -0,5 C 1,4 C 6,4 km/h (2 Bft) 100,00 %
24.02.2016 19:16 1,3 C 87 % 1015,2 hPa 0,0 l/m 4,6 km/h (1 Bft) O-SO 119 0 min 0,000 mm 0,0 UV-I 0 W/m -0,6 C 1,3 C 6,4 km/h (2 Bft) 100,00 %
24.02.2016 19:17 1,3 C 87 % 1015,2 hPa 0,0 l/m 5,6 km/h (1 Bft) SO 137 0 min 0,000 mm 0,0 UV-I 0 W/m -0,6 C 1,3 C 8,0 km/h (2 Bft) 100,00 %
24.02.2016 19:18 1,3 C 88 % 1015,2 hPa 0,0 l/m 6,9 km/h (2 Bft) O-SO 104 0 min 0,000 mm 0,0 UV-I 0 W/m -0,5 C 0,8 C 11,3 km/h (2 Bft) 96,30 %
24.02.2016 19:19 1,2 C 88 % 1015,2 hPa 0,0 l/m 6,1 km/h (2 Bft) SO 129 0 min 0,000 mm 0,0 UV-I 0 W/m -0,6 C 1,2 C 9,7 km/h (2 Bft) 100,00 %
24.02.2016 19:20 1,2 C 88 % 1015,2 hPa 0,0 l/m 5,5 km/h (1 Bft) SO 126 0 min 0,000 mm 0,0 UV-I 0 W/m -0,6 C 1,2 C 6,4 km/h (2 Bft) 96,30 %
24.02.2016 19:21 1,2 C 88 % 1015,2 hPa 0,0 l/m 5,1 km/h (1 Bft) O-SO 109 0 min 0,000 mm 0,0 UV-I 0 W/m -0,6 C 1,2 C 6,4 km/h (2 Bft) 96,15 %
24.02.2016 19:22 1,2 C 88 % 1015,2 hPa 0,0 l/m 7,0 km/h (2 Bft) O 98 0 min 0,000 mm 0,0 UV-I 0 W/m -0,6 C 0,6 C 11,3 km/h (2 Bft) 100,00 %
24.02.2016 19:23 1,1 C 88 % 1015,2 hPa 0,0 l/m 6,7 km/h (2 Bft) O-SO 121 0 min 0,000 mm 0,0 UV-I 0 W/m -0,7 C 0,8 C 11,3 km/h (2 Bft) 100,00 %
24.02.2016 19:24 1,1 C 89 % 1015,2 hPa 0,0 l/m 6,0 km/h (2 Bft) O-SO 111 0 min 0,000 mm 0,0 UV-I 0 W/m -0,5 C 1,1 C 9,7 km/h (2 Bft) 95,83 %
24.02.2016 19:25 1,1 C 88 % 1015,2 hPa 0,0 l/m 5,3 km/h (1 Bft) O-SO 107 0 min 0,000 mm 0,0 UV-I 0 W/m -0,7 C 1,1 C 9,7 km/h (2 Bft) 100,00 %
24.02.2016 19:26 1,0 C 89 % 1015,2 hPa 0,0 l/m 5,2 km/h (1 Bft) O-SO 118 0 min 0,000 mm 0,0 UV-I 0 W/m -0,6 C 1,0 C 6,4 km/h (2 Bft) 100,00 %
24.02.2016 19:27 1,0 C 89 % 1015,2 hPa 0,0 l/m 6,2 km/h (2 Bft) O-SO 117 0 min 0,000 mm 0,0 UV-I 0 W/m -0,6 C 1,0 C 9,7 km/h (2 Bft) 95,65 %
24.02.2016 19:28 1,0 C 89 % 1015,2 hPa 0,0 l/m 6,0 km/h (2 Bft) O-SO 107 0 min 0,000 mm 0,0 UV-I 0 W/m -0,6 C 1,0 C 8,0 km/h (2 Bft) 100,00 %
24.02.2016 19:29 0,9 C 89 % 1015,2 hPa 0,0 l/m 7,0 km/h (2 Bft) O-SO 113 0 min 0,000 mm 0,0 UV-I 0 W/m -0,7 C 0,3 C 9,7 km/h (2 Bft) 100,00 %
24.02.2016 19:30 0,9 C 89 % 1015,2 hPa 0,0 l/m 7,1 km/h (2 Bft) O-SO 121 0 min 0,000 mm 0,0 UV-I 0 W/m -0,7 C 0,2 C 9,7 km/h (2 Bft) 100,00 %
24.02.2016 19:31 0,9 C 90 % 1015,2 hPa 0,0 l/m 5,1 km/h (1 Bft) O-SO 113 0 min 0,000 mm 0,0 UV-I 0 W/m -0,6 C 0,9 C 6,4 km/h (2 Bft) 100,00 %
24.02.2016 19:32 0,9 C 89 % 1015,2 hPa 0,0 l/m 4,6 km/h (1 Bft) O-SO 111 0 min 0,000 mm 0,0 UV-I 0 W/m -0,7 C 0,9 C 6,4 km/h (2 Bft) 100,00 %
24.02.2016 19:33 0,9 C 89 % 1015,2 hPa 0,0 l/m 3,6 km/h (1 Bft) O-SO 118 0 min 0,000 mm 0,0 UV-I 0 W/m -0,7 C 0,9 C 4,8 km/h (1 Bft) 100,00 %
24.02.2016 19:34 0,9 C 89 % 1015,2 hPa 0,0 l/m 4,7 km/h (1 Bft) O-SO 118 0 min 0,000 mm 0,0 UV-I 0 W/m -0,7 C 0,9 C 6,4 km/h (2 Bft) 100,00 %
24.02.2016 19:35 0,9 C 89 % 1015,2 hPa 0,0 l/m 3,4 km/h (1 Bft) O-SO 119 0 min 0,000 mm 0,0 UV-I 0 W/m -0,7 C 0,9 C 4,8 km/h (1 Bft) 100,00 %
24.02.2016 19:36 0,9 C 90 % 1015,2 hPa 0,0 l/m 5,5 km/h (1 Bft) SO 129 0 min 0,000 mm 0,0 UV-I 0 W/m -0,6 C 0,9 C 6,4 km/h (2 Bft) 100,00 %
24.02.2016 19:37 1,0 C 90 % 1015,2 hPa 0,0 l/m 4,2 km/h (1 Bft) SO 129 0 min 0,000 mm 0,0 UV-I 0 W/m -0,5 C 1,0 C 4,8 km/h (1 Bft) 100,00 %
24.02.2016 19:38 1,0 C 90 % 1015,2 hPa 0,0 l/m 3,7 km/h (1 Bft) SO 134 0 min 0,000 mm 0,0 UV-I 0 W/m -0,5 C 1,0 C 4,8 km/h (1 Bft) 100,00 %
24.02.2016 19:39 1,0 C 89 % 1015,2 hPa 0,0 l/m 4,6 km/h (1 Bft) SO 132 0 min 0,000 mm 0,0 UV-I 0 W/m -0,6 C 1,0 C 6,4 km/h (2 Bft) 100,00 %
24.02.2016 19:40 0,9 C 89 % 1015,2 hPa 0,0 l/m 4,5 km/h (1 Bft) SO 126 0 min 0,000 mm 0,0 UV-I 0 W/m -0,7 C 0,9 C 6,4 km/h (2 Bft) 100,00 %
24.02.2016 19:41 0,9 C 89 % 1015,1 hPa 0,0 l/m 4,0 km/h (1 Bft) SO 128 0 min 0,000 mm 0,0 UV-I 0 W/m -0,7 C 0,9 C 4,8 km/h (1 Bft) 100,00 %
24.02.2016 19:42 0,8 C 89 % 1015,1 hPa 0,0 l/m 5,3 km/h (1 Bft) O-SO 117 0 min 0,000 mm 0,0 UV-I 0 W/m -0,8 C 0,8 C 6,4 km/h (2 Bft) 100,00 %
24.02.2016 19:43 0,8 C 89 % 1015,1 hPa 0,0 l/m 5,6 km/h (1 Bft) SO 132 0 min 0,000 mm 0,0 UV-I 0 W/m -0,8 C 0,8 C 8,0 km/h (2 Bft) 100,00 %
24.02.2016 19:44 0,7 C 90 % 1015,1 hPa 0,0 l/m 6,1 km/h (2 Bft) O-SO 106 0 min 0,000 mm 0,0 UV-I 0 W/m -0,7 C 0,7 C 9,7 km/h (2 Bft) 100,00 %
24.02.2016 19:45 0,7 C 90 % 1015,1 hPa 0,0 l/m 5,1 km/h (1 Bft) SO 130 0 min 0,000 mm 0,0 UV-I 0 W/m -0,7 C 0,7 C 6,4 km/h (2 Bft) 100,00 %
24.02.2016 19:46 0,7 C 90 % 1015,0 hPa 0,0 l/m 4,8 km/h (1 Bft) O-SO 115 0 min 0,000 mm 0,0 UV-I 0 W/m -0,7 C 0,7 C 6,4 km/h (2 Bft) 100,00 %
24.02.2016 19:47 0,7 C 90 % 1015,0 hPa 0,0 l/m 5,9 km/h (2 Bft) O-SO 114 0 min 0,000 mm 0,0 UV-I 0 W/m -0,7 C 0,7 C 9,7 km/h (2 Bft) 100,00 %
24.02.2016 19:48 0,7 C 90 % 1015,0 hPa 0,0 l/m 5,1 km/h (1 Bft) O-SO 112 0 min 0,000 mm 0,0 UV-I 0 W/m -0,7 C 0,7 C 6,4 km/h (2 Bft) 100,00 %
24.02.2016 19:49 0,7 C 90 % 1015,0 hPa 0,0 l/m 3,9 km/h (1 Bft) SO 127 0 min 0,000 mm 0,0 UV-I 0 W/m -0,7 C 0,7 C 4,8 km/h (1 Bft) 100,00 %
24.02.2016 19:50 0,8 C 90 % 1014,9 hPa 0,0 l/m 5,8 km/h (2 Bft) SO 127 0 min 0,000 mm 0,0 UV-I 0 W/m -0,6 C 0,8 C 8,0 km/h (2 Bft) 100,00 %
24.02.2016 19:51 0,8 C 90 % 1015,0 hPa 0,0 l/m 5,0 km/h (1 Bft) O-SO 116 0 min 0,000 mm 0,0 UV-I 0 W/m -0,6 C 0,8 C 6,4 km/h (2 Bft) 100,00 %
24.02.2016 19:52 0,8 C 90 % 1015,0 hPa 0,0 l/m 5,3 km/h (1 Bft) O 80 0 min 0,000 mm 0,0 UV-I 0 W/m -0,6 C 0,8 C 6,4 km/h (2 Bft) 100,00 %
24.02.2016 19:53 0,8 C 90 % 1014,9 hPa 0,0 l/m 5,2 km/h (1 Bft) SO 125 0 min 0,000 mm 0,0 UV-I 0 W/m -0,6 C 0,8 C 8,0 km/h (2 Bft) 96,30 %
24.02.2016 19:54 0,7 C 89 % 1014,9 hPa 0,0 l/m 4,6 km/h (1 Bft) SO 125 0 min 0,000 mm 0,0 UV-I 0 W/m -0,9 C 0,7 C 6,4 km/h (2 Bft) 100,00 %
24.02.2016 19:55 0,6 C 90 % 1014,9 hPa 0,0 l/m 5,2 km/h (1 Bft) O-SO 111 0 min 0,000 mm 0,0 UV-I 0 W/m -0,8 C 0,6 C 6,4 km/h (2 Bft) 95,65 %
24.02.2016 19:56 0,6 C 90 % 1014,9 hPa 0,0 l/m 3,1 km/h (1 Bft) O-SO 111 0 min 0,000 mm 0,0 UV-I 0 W/m -0,8 C 0,6 C 4,8 km/h (1 Bft) 100,00 %
24.02.2016 19:57 0,6 C 90 % 1014,9 hPa 0,0 l/m 3,4 km/h (1 Bft) O-SO 111 0 min 0,000 mm 0,0 UV-I 0 W/m -0,8 C 0,6 C 4,8 km/h (1 Bft) 100,00 %
24.02.2016 19:58 0,5 C 90 % 1014,8 hPa 0,0 l/m 4,3 km/h (1 Bft) O-SO 105 0 min 0,000 mm 0,0 UV-I 0 W/m -0,9 C 0,5 C 6,4 km/h (2 Bft) 95,83 %
24.02.2016 19:59 0,6 C 91 % 1014,9 hPa 0,0 l/m 2,7 km/h (1 Bft) O-SO 109 0 min 0,000 mm 0,0 UV-I 0 W/m -0,7 C 0,6 C 4,8 km/h (1 Bft) 100,00 %
24.02.2016 20:00 0,6 C 91 % 1014,9 hPa 0,0 l/m 3,3 km/h (1 Bft) O-SO 117 0 min 0,000 mm 0,0 UV-I 0 W/m -0,7 C 0,6 C 6,4 km/h (2 Bft) 95,83 %
24.02.2016 20:01 0,6 C 91 % 1014,9 hPa 0,0 l/m 3,5 km/h (1 Bft) O-SO 117 0 min 0,000 mm 0,0 UV-I 0 W/m -0,7 C 0,6 C 4,8 km/h (1 Bft) 96,15 %
24.02.2016 20:02 0,6 C 90 % 1014,8 hPa 0,0 l/m 3,4 km/h (1 Bft) O-SO 110 0 min 0,000 mm 0,0 UV-I 0 W/m -0,8 C 0,6 C 4,8 km/h (1 Bft) 100,00 %
24.02.2016 20:03 0,6 C 90 % 1014,8 hPa 0,0 l/m 4,8 km/h (1 Bft) O-SO 118 0 min 0,000 mm 0,0 UV-I 0 W/m -0,8 C 0,6 C 6,4 km/h (2 Bft) 100,00 %
24.02.2016 20:05 0,7 C 91 % 1014,8 hPa 0,0 l/m 3,2 km/h (1 Bft) O-SO 112 0 min 0,000 mm 0,0 UV-I 0 W/m -0,6 C 0,7 C 6,4 km/h (2 Bft) 100,00 %
24.02.2016 20:09 0,7 C 90 % 1014,8 hPa 0,0 l/m 3,7 km/h (1 Bft) SO 140 0 min 0,000 mm 0,0 UV-I 0 W/m -0,7 C 0,7 C 4,8 km/h (1 Bft) 100,00 %
24.02.2016 20:10 0,7 C 90 % 1014,8 hPa 0,0 l/m 3,9 km/h (1 Bft) O-SO 121 0 min 0,000 mm 0,0 UV-I 0 W/m -0,7 C 0,7 C 6,4 km/h (2 Bft) 100,00 %
24.02.2016 20:11 0,7 C 90 % 1014,8 hPa 0,0 l/m 3,3 km/h (1 Bft) SO 133 0 min 0,000 mm 0,0 UV-I 0 W/m -0,7 C 0,7 C 4,8 km/h (1 Bft) 100,00 %
24.02.2016 20:12 0,7 C 90 % 1014,8 hPa 0,0 l/m 3,7 km/h (1 Bft) SO 132 0 min 0,000 mm 0,0 UV-I 0 W/m -0,7 C 0,7 C 4,8 km/h (1 Bft) 100,00 %
24.02.2016 20:13 0,6 C 90 % 1014,8 hPa 0,0 l/m 3,8 km/h (1 Bft) S-SO 150 0 min 0,000 mm 0,0 UV-I 0 W/m -0,8 C 0,6 C 6,4 km/h (2 Bft) 100,00 %
24.02.2016 20:14 0,6 C 90 % 1014,8 hPa 0,0 l/m 3,4 km/h (1 Bft) S-SO 155 0 min 0,000 mm 0,0 UV-I 0 W/m -0,8 C 0,6 C 8,0 km/h (2 Bft) 100,00 %
24.02.2016 20:15 0,5 C 90 % 1014,8 hPa 0,0 l/m 5,9 km/h (2 Bft) S-SO 155 0 min 0,000 mm 0,0 UV-I 0 W/m -0,9 C 0,5 C 11,3 km/h (2 Bft) 100,00 %
24.02.2016 20:16 0,5 C 90 % 1014,8 hPa 0,0 l/m 3,3 km/h (1 Bft) SO 139 0 min 0,000 mm 0,0 UV-I 0 W/m -0,9 C 0,5 C 4,8 km/h (1 Bft) 100,00 %
24.02.2016 20:17 0,6 C 90 % 1014,8 hPa 0,0 l/m 6,8 km/h (2 Bft) O-SO 119 0 min 0,000 mm 0,0 UV-I 0 W/m -0,8 C 0,2 C 11,3 km/h (2 Bft) 95,65 %
24.02.2016 20:18 0,5 C 90 % 1014,8 hPa 0,0 l/m 5,0 km/h (1 Bft) O-SO 123 0 min 0,000 mm 0,0 UV-I 0 W/m -0,9 C 0,5 C 11,3 km/h (2 Bft) 100,00 %
24.02.2016 20:19 0,6 C 90 % 1014,8 hPa 0,0 l/m 5,8 km/h (2 Bft) O-SO 115 0 min 0,000 mm 0,0 UV-I 0 W/m -0,8 C 0,6 C 8,0 km/h (2 Bft) 96,15 %
24.02.2016 20:20 0,6 C 90 % 1014,8 hPa 0,0 l/m 6,0 km/h (2 Bft) SO 126 0 min 0,000 mm 0,0 UV-I 0 W/m -0,8 C 0,6 C 8,0 km/h (2 Bft) 100,00 %
24.02.2016 20:21 0,6 C 90 % 1014,8 hPa 0,0 l/m 4,8 km/h (1 Bft) O-SO 119 0 min 0,000 mm 0,0 UV-I 0 W/m -0,8 C 0,6 C 6,4 km/h (2 Bft) 100,00 %
24.02.2016 20:22 0,6 C 90 % 1014,7 hPa 0,0 l/m 3,7 km/h (1 Bft) SO 125 0 min 0,000 mm 0,0 UV-I 0 W/m -0,8 C 0,6 C 4,8 km/h (1 Bft) 100,00 %
24.02.2016 20:23 0,6 C 90 % 1014,8 hPa 0,0 l/m 5,2 km/h (1 Bft) O-SO 119 0 min 0,000 mm 0,0 UV-I 0 W/m -0,8 C 0,6 C 6,4 km/h (2 Bft) 100,00 %
24.02.2016 20:24 0,6 C 90 % 1014,7 hPa 0,0 l/m 4,7 km/h (1 Bft) O-SO 121 0 min 0,000 mm 0,0 UV-I 0 W/m -0,8 C 0,6 C 8,0 km/h (2 Bft) 100,00 %
24.02.2016 20:25 0,6 C 90 % 1014,7 hPa 0,0 l/m 4,1 km/h (1 Bft) O 89 0 min 0,000 mm 0,0 UV-I 0 W/m -0,8 C 0,6 C 6,4 km/h (2 Bft) 100,00 %
24.02.2016 20:26 0,6 C 90 % 1014,7 hPa 0,0 l/m 5,8 km/h (2 Bft) O-SO 117 0 min 0,000 mm 0,0 UV-I 0 W/m -0,8 C 0,6 C 11,3 km/h (2 Bft) 100,00 %
24.02.2016 20:27 0,6 C 90 % 1014,7 hPa 0,0 l/m 3,2 km/h (1 Bft) O-SO 104 0 min 0,000 mm 0,0 UV-I 0 W/m -0,8 C 0,6 C 4,8 km/h (1 Bft) 100,00 %
24.02.2016 20:28 0,6 C 90 % 1014,7 hPa 0,0 l/m 3,4 km/h (1 Bft) O-SO 107 0 min 0,000 mm 0,0 UV-I 0 W/m -0,8 C 0,6 C 4,8 km/h (1 Bft) 100,00 %
24.02.2016 20:29 0,6 C 91 % 1014,6 hPa 0,0 l/m 3,6 km/h (1 Bft) O-SO 103 0 min 0,000 mm 0,0 UV-I 0 W/m -0,7 C 0,6 C 4,8 km/h (1 Bft) 100,00 %
24.02.2016 20:30 0,6 C 90 % 1014,6 hPa 0,0 l/m 4,2 km/h (1 Bft) O-SO 114 0 min 0,000 mm 0,0 UV-I 0 W/m -0,8 C 0,6 C 6,4 km/h (2 Bft) 100,00 %
24.02.2016 20:31 0,6 C 90 % 1014,6 hPa 0,0 l/m 5,1 km/h (1 Bft) O 94 0 min 0,000 mm 0,0 UV-I 0 W/m -0,8 C 0,6 C 9,7 km/h (2 Bft) 100,00 %
24.02.2016 20:32 0,7 C 90 % 1014,6 hPa 0,0 l/m 6,5 km/h (2 Bft) O-SO 103 0 min 0,000 mm 0,0 UV-I 0 W/m -0,7 C 0,6 C 9,7 km/h (2 Bft) 100,00 %
24.02.2016 20:33 0,7 C 90 % 1014,6 hPa 0,0 l/m 7,7 km/h (2 Bft) O-SO 117 0 min 0,000 mm 0,0 UV-I 0 W/m -0,7 C -0,6 C 11,3 km/h (2 Bft) 100,00 %
24.02.2016 20:34 0,7 C 90 % 1014,6 hPa 0,0 l/m 5,2 km/h (1 Bft) O-SO 116 0 min 0,000 mm 0,0 UV-I 0 W/m -0,7 C 0,7 C 6,4 km/h (2 Bft) 100,00 %
24.02.2016 20:35 0,7 C 90 % 1014,5 hPa 0,0 l/m 4,3 km/h (1 Bft) SO 124 0 min 0,000 mm 0,0 UV-I 0 W/m -0,7 C 0,7 C 6,4 km/h (2 Bft) 91,67 %
24.02.2016 20:36 0,8 C 90 % 1014,6 hPa 0,0 l/m 4,8 km/h (1 Bft) O-SO 119 0 min 0,000 mm 0,0 UV-I 0 W/m -0,6 C 0,8 C 6,4 km/h (2 Bft) 100,00 %
24.02.2016 20:37 0,7 C 89 % 1014,6 hPa 0,0 l/m 3,6 km/h (1 Bft) SO 128 0 min 0,000 mm 0,0 UV-I 0 W/m -0,9 C 0,7 C 4,8 km/h (1 Bft) 91,67 %
24.02.2016 20:40 0,7 C 89 % 1014,5 hPa 0,0 l/m 3,2 km/h (1 Bft) O-SO 119 0 min 0,000 mm 0,0 UV-I 0 W/m -0,9 C 0,7 C 3,2 km/h (1 Bft) 97,26 %
24.02.2016 20:41 0,6 C 89 % 1014,5 hPa 0,0 l/m 4,0 km/h (1 Bft) O-SO 105 0 min 0,000 mm 0,0 UV-I 0 W/m -1,0 C 0,6 C 6,4 km/h (2 Bft) 100,00 %
24.02.2016 20:42 0,5 C 90 % 1014,5 hPa 0,0 l/m 2,6 km/h (1 Bft) O-SO 108 0 min 0,000 mm 0,0 UV-I 0 W/m -0,9 C 0,5 C 6,4 km/h (2 Bft) 95,65 %
24.02.2016 20:43 0,4 C 90 % 1014,5 hPa 0,0 l/m 1,0 km/h (0 Bft) O-SO 108 0 min 0,000 mm 0,0 UV-I 0 W/m -1,0 C 0,4 C 3,2 km/h (1 Bft) 100,00 %
24.02.2016 20:44 0,4 C 90 % 1014,6 hPa 0,0 l/m 1,0 km/h (0 Bft) O-SO 108 0 min 0,000 mm 0,0 UV-I 0 W/m -1,0 C 0,4 C 3,2 km/h (1 Bft) 91,30 %
24.02.2016 20:45 0,3 C 90 % 1014,6 hPa 0,0 l/m 0,5 km/h (0 Bft) O-SO 108 0 min 0,000 mm 0,0 UV-I 0 W/m -1,1 C 0,3 C 1,6 km/h (1 Bft) 100,00 %
24.02.2016 20:46 0,3 C 90 % 1014,6 hPa 0,0 l/m 1,1 km/h (1 Bft) O-SO 108 0 min 0,000 mm 0,0 UV-I 0 W/m -1,1 C 0,3 C 3,2 km/h (1 Bft) 96,55 %
24.02.2016 20:47 0,3 C 90 % 1014,6 hPa 0,0 l/m 2,3 km/h (1 Bft) O-SO 108 0 min 0,000 mm 0,0 UV-I 0 W/m -1,1 C 0,3 C 3,2 km/h (1 Bft) 100,00 %
24.02.2016 20:48 0,3 C 91 % 1014,6 hPa 0,0 l/m 0,8 km/h (0 Bft) O-SO 108 0 min 0,000 mm 0,0 UV-I 0 W/m -1,0 C 0,3 C 3,2 km/h (1 Bft) 96,15 %
24.02.2016 20:49 0,3 C 91 % 1014,6 hPa 0,0 l/m 0,9 km/h (0 Bft) O-SO 108 0 min 0,000 mm 0,0 UV-I 0 W/m -1,0 C 0,3 C 3,2 km/h (1 Bft) 95,83 %
24.02.2016 20:50 0,3 C 91 % 1014,6 hPa 0,0 l/m 2,6 km/h (1 Bft) O-SO 108 0 min 0,000 mm 0,0 UV-I 0 W/m -1,0 C 0,3 C 4,8 km/h (1 Bft) 96,15 %
24.02.2016 20:51 0,2 C 91 % 1014,6 hPa 0,0 l/m 1,9 km/h (1 Bft) O-SO 108 0 min 0,000 mm 0,0 UV-I 0 W/m -1,1 C 0,2 C 3,2 km/h (1 Bft) 93,33 %
24.02.2016 20:52 0,1 C 90 % 1014,5 hPa 0,0 l/m 2,2 km/h (1 Bft) O-SO 108 0 min 0,000 mm 0,0 UV-I 0 W/m -1,3 C 0,1 C 3,2 km/h (1 Bft) 100,00 %
24.02.2016 20:53 0,0 C 90 % 1014,5 hPa 0,0 l/m 2,4 km/h (1 Bft) O-SO 110 0 min 0,000 mm 0,0 UV-I 0 W/m -1,4 C 0,0 C 4,8 km/h (1 Bft) 95,65 %
24.02.2016 20:54 -0,1 C 90 % 1014,5 hPa 0,0 l/m 1,3 km/h (1 Bft) O-SO 110 0 min 0,000 mm 0,0 UV-I 0 W/m -1,5 C -0,1 C 3,2 km/h (1 Bft) 100,00 %
24.02.2016 20:55 -0,2 C 90 % 1014,6 hPa 0,0 l/m 1,6 km/h (1 Bft) O-SO 110 0 min 0,000 mm 0,0 UV-I 0 W/m -1,6 C -0,2 C 3,2 km/h (1 Bft) 95,65 %
24.02.2016 20:56 -0,2 C 91 % 1014,6 hPa 0,0 l/m 1,9 km/h (1 Bft) O-SO 110 0 min 0,000 mm 0,0 UV-I 0 W/m -1,5 C -0,2 C 3,2 km/h (1 Bft) 100,00 %
24.02.2016 20:57 -0,3 C 91 % 1014,5 hPa 0,0 l/m 2,3 km/h (1 Bft) O-SO 110 0 min 0,000 mm 0,0 UV-I 0 W/m -1,6 C -0,3 C 3,2 km/h (1 Bft) 95,65 %
24.02.2016 20:58 -0,3 C 92 % 1014,6 hPa 0,0 l/m 2,1 km/h (1 Bft) O-SO 111 0 min 0,000 mm 0,0 UV-I 0 W/m -1,4 C -0,3 C 4,8 km/h (1 Bft) 91,67 %
24.02.2016 20:59 -0,3 C 92 % 1014,6 hPa 0,0 l/m 1,8 km/h (1 Bft) O-SO 111 0 min 0,000 mm 0,0 UV-I 0 W/m -1,4 C -0,3 C 3,2 km/h (1 Bft) 100,00 %
24.02.2016 21:00 -0,3 C 92 % 1014,5 hPa 0,0 l/m 1,9 km/h (1 Bft) O-SO 111 0 min 0,000 mm 0,0 UV-I 0 W/m -1,4 C -0,3 C 3,2 km/h (1 Bft) 91,67 %
24.02.2016 21:01 -0,3 C 92 % 1014,5 hPa 0,0 l/m 2,5 km/h (1 Bft) O 96 0 min 0,000 mm 0,0 UV-I 0 W/m -1,4 C -0,3 C 4,8 km/h (1 Bft) 100,00 %
24.02.2016 21:02 -0,3 C 92 % 1014,4 hPa 0,0 l/m 2,0 km/h (1 Bft) O 96 0 min 0,000 mm 0,0 UV-I 0 W/m -1,4 C -0,3 C 3,2 km/h (1 Bft) 91,67 %
24.02.2016 21:03 -0,3 C 92 % 1014,5 hPa 0,0 l/m 3,7 km/h (1 Bft) O 97 0 min 0,000 mm 0,0 UV-I 0 W/m -1,4 C -0,3 C 4,8 km/h (1 Bft) 100,00 %
24.02.2016 21:04 -0,3 C 92 % 1014,5 hPa 0,0 l/m 4,9 km/h (1 Bft) O 84 0 min 0,000 mm 0,0 UV-I 0 W/m -1,4 C -0,3 C 6,4 km/h (2 Bft) 88,89 %
24.02.2016 21:05 -0,3 C 92 % 1014,5 hPa 0,0 l/m 4,4 km/h (1 Bft) O 83 0 min 0,000 mm 0,0 UV-I 0 W/m -1,4 C -0,3 C 4,8 km/h (1 Bft) 95,65 %
24.02.2016 21:06 -0,2 C 92 % 1014,4 hPa 0,0 l/m 1,9 km/h (1 Bft) O 83 0 min 0,000 mm 0,0 UV-I 0 W/m -1,3 C -0,2 C 4,8 km/h (1 Bft) 100,00 %
24.02.2016 21:07 -0,1 C 92 % 1014,4 hPa 0,0 l/m 2,5 km/h (1 Bft) O 83 0 min 0,000 mm 0,0 UV-I 0 W/m -1,2 C -0,1 C 3,2 km/h (1 Bft) 96,15 %
24.02.2016 21:08 0,1 C 93 % 1014,4 hPa 0,0 l/m 3,7 km/h (1 Bft) O 83 0 min 0,000 mm 0,0 UV-I 0 W/m -0,9 C 0,1 C 4,8 km/h (1 Bft) 100,00 %
24.02.2016 21:09 0,1 C 92 % 1014,4 hPa 0,0 l/m 4,4 km/h (1 Bft) O-NO 69 0 min 0,000 mm 0,0 UV-I 0 W/m -1,0 C 0,1 C 6,4 km/h (2 Bft) 95,65 %
24.02.2016 21:10 0,2 C 92 % 1014,4 hPa 0,0 l/m 4,0 km/h (1 Bft) O-NO 69 0 min 0,000 mm 0,0 UV-I 0 W/m -0,9 C 0,2 C 4,8 km/h (1 Bft) 100,00 %
24.02.2016 21:11 0,2 C 92 % 1014,4 hPa 0,0 l/m 4,8 km/h (1 Bft) O-NO 60 0 min 0,000 mm 0,0 UV-I 0 W/m -0,9 C 0,2 C 6,4 km/h (2 Bft) 95,65 %
24.02.2016 21:12 0,3 C 91 % 1014,4 hPa 0,0 l/m 4,1 km/h (1 Bft) O-NO 60 0 min 0,000 mm 0,0 UV-I 0 W/m -1,0 C 0,3 C 6,4 km/h (2 Bft) 91,67 %
24.02.2016 21:13 0,3 C 92 % 1014,4 hPa 0,0 l/m 3,9 km/h (1 Bft) O-NO 60 0 min 0,000 mm 0,0 UV-I 0 W/m -0,8 C 0,3 C 4,8 km/h (1 Bft) 100,00 %
24.02.2016 21:14 0,3 C 91 % 1014,4 hPa 0,0 l/m 4,9 km/h (1 Bft) O-NO 60 0 min 0,000 mm 0,0 UV-I 0 W/m -1,0 C 0,3 C 6,4 km/h (2 Bft) 100,00 %
24.02.2016 21:15 0,3 C 91 % 1014,3 hPa 0,0 l/m 4,6 km/h (1 Bft) O-NO 62 0 min 0,000 mm 0,0 UV-I 0 W/m -1,0 C 0,3 C 6,4 km/h (2 Bft) 96,30 %
24.02.2016 21:16 0,4 C 91 % 1014,4 hPa 0,0 l/m 3,5 km/h (1 Bft) O-NO 62 0 min 0,000 mm 0,0 UV-I 0 W/m -0,9 C 0,4 C 4,8 km/h (1 Bft) 92,31 %
24.02.2016 21:17 0,3 C 91 % 1014,4 hPa 0,0 l/m 3,4 km/h (1 Bft) O-NO 62 0 min 0,000 mm 0,0 UV-I 0 W/m -1,0 C 0,3 C 4,8 km/h (1 Bft) 93,33 %
24.02.2016 21:18 0,3 C 91 % 1014,4 hPa 0,0 l/m 3,8 km/h (1 Bft) O-NO 62 0 min 0,000 mm 0,0 UV-I 0 W/m -1,0 C 0,3 C 4,8 km/h (1 Bft) 96,30 %
24.02.2016 21:19 0,3 C 91 % 1014,4 hPa 0,0 l/m 3,8 km/h (1 Bft) O-NO 62 0 min 0,000 mm 0,0 UV-I 0 W/m -1,0 C 0,3 C 4,8 km/h (1 Bft) 95,83 %
24.02.2016 21:20 0,3 C 91 % 1014,4 hPa 0,0 l/m 2,8 km/h (1 Bft) O-NO 62 0 min 0,000 mm 0,0 UV-I 0 W/m -1,0 C 0,3 C 3,2 km/h (1 Bft) 100,00 %
24.02.2016 21:21 0,3 C 91 % 1014,4 hPa 0,0 l/m 3,4 km/h (1 Bft) O-NO 62 0 min 0,000 mm 0,0 UV-I 0 W/m -1,0 C 0,3 C 4,8 km/h (1 Bft) 96,30 %
24.02.2016 21:22 0,3 C 91 % 1014,4 hPa 0,0 l/m 3,1 km/h (1 Bft) O-NO 62 0 min 0,000 mm 0,0 UV-I 0 W/m -1,0 C 0,3 C 4,8 km/h (1 Bft) 100,00 %
24.02.2016 21:23 0,3 C 91 % 1014,4 hPa 0,0 l/m 3,5 km/h (1 Bft) O-NO 62 0 min 0,000 mm 0,0 UV-I 0 W/m -1,0 C 0,3 C 4,8 km/h (1 Bft) 95,83 %
24.02.2016 21:24 0,3 C 91 % 1014,4 hPa 0,0 l/m 3,0 km/h (1 Bft) O-NO 62 0 min 0,000 mm 0,0 UV-I 0 W/m -1,0 C 0,3 C 4,8 km/h (1 Bft) 100,00 %
24.02.2016 21:25 0,2 C 91 % 1014,4 hPa 0,0 l/m 2,9 km/h (1 Bft) O-NO 62 0 min 0,000 mm 0,0 UV-I 0 W/m -1,1 C 0,2 C 3,2 km/h (1 Bft) 95,83 %
24.02.2016 21:26 0,2 C 91 % 1014,4 hPa 0,0 l/m 2,5 km/h (1 Bft) O-NO 62 0 min 0,000 mm 0,0 UV-I 0 W/m -1,1 C 0,2 C 3,2 km/h (1 Bft) 100,00 %
24.02.2016 21:27 0,2 C 91 % 1014,4 hPa 0,0 l/m 3,2 km/h (1 Bft) O-NO 62 0 min 0,000 mm 0,0 UV-I 0 W/m -1,1 C 0,2 C 4,8 km/h (1 Bft) 100,00 %
24.02.2016 21:28 0,2 C 91 % 1014,4 hPa 0,0 l/m 2,7 km/h (1 Bft) O-NO 62 0 min 0,000 mm 0,0 UV-I 0 W/m -1,1 C 0,2 C 3,2 km/h (1 Bft) 95,65 %
24.02.2016 21:29 0,1 C 91 % 1014,3 hPa 0,0 l/m 2,9 km/h (1 Bft) O-NO 62 0 min 0,000 mm 0,0 UV-I 0 W/m -1,2 C 0,1 C 3,2 km/h (1 Bft) 100,00 %
24.02.2016 21:30 0,1 C 91 % 1014,3 hPa 0,0 l/m 3,5 km/h (1 Bft) O-NO 62 0 min 0,000 mm 0,0 UV-I 0 W/m -1,2 C 0,1 C 4,8 km/h (1 Bft) 100,00 %
24.02.2016 21:31 -0,1 C 91 % 1014,3 hPa 0,0 l/m 3,3 km/h (1 Bft) O-NO 62 0 min 0,000 mm 0,0 UV-I 0 W/m -1,4 C -0,1 C 4,8 km/h (1 Bft) 100,00 %
24.02.2016 21:32 -0,1 C 91 % 1014,3 hPa 0,0 l/m 3,2 km/h (1 Bft) O-NO 62 0 min 0,000 mm 0,0 UV-I 0 W/m -1,4 C -0,1 C 3,2 km/h (1 Bft) 100,00 %
24.02.2016 21:33 -0,2 C 91 % 1014,3 hPa 0,0 l/m 3,4 km/h (1 Bft) O-NO 62 0 min 0,000 mm 0,0 UV-I 0 W/m -1,5 C -0,2 C 4,8 km/h (1 Bft) 100,00 %
24.02.2016 21:34 -0,2 C 91 % 1014,3 hPa 0,0 l/m 3,6 km/h (1 Bft) O-NO 62 0 min 0,000 mm 0,0 UV-I 0 W/m -1,5 C -0,2 C 4,8 km/h (1 Bft) 100,00 %
24.02.2016 21:35 -0,3 C 91 % 1014,3 hPa 0,0 l/m 3,3 km/h (1 Bft) O-NO 62 0 min 0,000 mm 0,0 UV-I 0 W/m -1,6 C -0,3 C 4,8 km/h (1 Bft) 100,00 %
24.02.2016 21:36 -0,3 C 92 % 1014,2 hPa 0,0 l/m 3,0 km/h (1 Bft) O-NO 62 0 min 0,000 mm 0,0 UV-I 0 W/m -1,4 C -0,3 C 3,2 km/h (1 Bft) 100,00 %
24.02.2016 21:37 -0,2 C 92 % 1014,2 hPa 0,0 l/m 3,0 km/h (1 Bft) O-NO 62 0 min 0,000 mm 0,0 UV-I 0 W/m -1,3 C -0,2 C 4,8 km/h (1 Bft) 95,65 %
24.02.2016 21:38 -0,2 C 92 % 1014,2 hPa 0,0 l/m 4,3 km/h (1 Bft) O-NO 62 0 min 0,000 mm 0,0 UV-I 0 W/m -1,3 C -0,2 C 6,4 km/h (2 Bft) 100,00 %
24.02.2016 21:39 -0,2 C 92 % 1014,2 hPa 0,0 l/m 4,0 km/h (1 Bft) O-NO 62 0 min 0,000 mm 0,0 UV-I 0 W/m -1,3 C -0,2 C 4,8 km/h (1 Bft) 100,00 %
24.02.2016 21:40 -0,2 C 92 % 1014,2 hPa 0,0 l/m 3,6 km/h (1 Bft) O-NO 62 0 min 0,000 mm 0,0 UV-I 0 W/m -1,3 C -0,2 C 4,8 km/h (1 Bft) 100,00 %
24.02.2016 21:41 -0,2 C 92 % 1014,1 hPa 0,0 l/m 3,6 km/h (1 Bft) O-NO 62 0 min 0,000 mm 0,0 UV-I 0 W/m -1,3 C -0,2 C 4,8 km/h (1 Bft) 100,00 %
24.02.2016 21:42 -0,2 C 92 % 1014,2 hPa 0,0 l/m 3,4 km/h (1 Bft) O-NO 62 0 min 0,000 mm 0,0 UV-I 0 W/m -1,3 C -0,2 C 4,8 km/h (1 Bft) 95,83 %
24.02.2016 21:43 -0,3 C 92 % 1014,2 hPa 0,0 l/m 3,3 km/h (1 Bft) O-NO 62 0 min 0,000 mm 0,0 UV-I 0 W/m -1,4 C -0,3 C 4,8 km/h (1 Bft) 95,65 %
24.02.2016 21:44 -0,3 C 92 % 1014,2 hPa 0,0 l/m 3,4 km/h (1 Bft) O-NO 62 0 min 0,000 mm 0,0 UV-I 0 W/m -1,4 C -0,3 C 4,8 km/h (1 Bft) 100,00 %
24.02.2016 21:45 -0,3 C 92 % 1014,1 hPa 0,0 l/m 2,9 km/h (1 Bft) O-NO 62 0 min 0,000 mm 0,0 UV-I 0 W/m -1,4 C -0,3 C 4,8 km/h (1 Bft) 100,00 %
24.02.2016 21:46 -0,4 C 92 % 1014,1 hPa 0,0 l/m 2,8 km/h (1 Bft) O-NO 62 0 min 0,000 mm 0,0 UV-I 0 W/m -1,5 C -0,4 C 3,2 km/h (1 Bft) 96,30 %
24.02.2016 21:47 -0,4 C 92 % 1014,1 hPa 0,0 l/m 3,2 km/h (1 Bft) O-NO 62 0 min 0,000 mm 0,0 UV-I 0 W/m -1,5 C -0,4 C 4,8 km/h (1 Bft) 100,00 %
24.02.2016 21:48 -0,4 C 92 % 1014,1 hPa 0,0 l/m 3,0 km/h (1 Bft) O-NO 62 0 min 0,000 mm 0,0 UV-I 0 W/m -1,5 C -0,4 C 4,8 km/h (1 Bft) 96,30 %
24.02.2016 21:49 -0,4 C 93 % 1014,1 hPa 0,0 l/m 3,5 km/h (1 Bft) O-NO 62 0 min 0,000 mm 0,0 UV-I 0 W/m -1,4 C -0,4 C 4,8 km/h (1 Bft) 100,00 %
24.02.2016 21:50 -0,3 C 93 % 1014,1 hPa 0,0 l/m 3,0 km/h (1 Bft) O-NO 62 0 min 0,000 mm 0,0 UV-I 0 W/m -1,3 C -0,3 C 3,2 km/h (1 Bft) 96,30 %
24.02.2016 21:51 -0,3 C 93 % 1014,1 hPa 0,0 l/m 2,6 km/h (1 Bft) O-NO 62 0 min 0,000 mm 0,0 UV-I 0 W/m -1,3 C -0,3 C 3,2 km/h (1 Bft) 100,00 %
24.02.2016 21:52 -0,3 C 93 % 1014,0 hPa 0,0 l/m 2,6 km/h (1 Bft) O-NO 62 0 min 0,000 mm 0,0 UV-I 0 W/m -1,3 C -0,3 C 3,2 km/h (1 Bft) 100,00 %
24.02.2016 21:53 -0,2 C 93 % 1014,0 hPa 0,0 l/m 2,3 km/h (1 Bft) O-NO 62 0 min 0,000 mm 0,0 UV-I 0 W/m -1,2 C -0,2 C 3,2 km/h (1 Bft) 95,83 %
24.02.2016 21:54 -0,2 C 93 % 1014,0 hPa 0,0 l/m 3,0 km/h (1 Bft) O-NO 62 0 min 0,000 mm 0,0 UV-I 0 W/m -1,2 C -0,2 C 3,2 km/h (1 Bft) 100,00 %
24.02.2016 21:55 -0,3 C 92 % 1014,1 hPa 0,0 l/m 3,4 km/h (1 Bft) O-NO 62 0 min 0,000 mm 0,0 UV-I 0 W/m -1,4 C -0,3 C 4,8 km/h (1 Bft) 100,00 %
24.02.2016 21:56 -0,3 C 93 % 1014,0 hPa 0,0 l/m 3,3 km/h (1 Bft) O-NO 62 0 min 0,000 mm 0,0 UV-I 0 W/m -1,3 C -0,3 C 4,8 km/h (1 Bft) 95,65 %
24.02.2016 21:57 -0,3 C 93 % 1014,0 hPa 0,0 l/m 2,9 km/h (1 Bft) O-NO 62 0 min 0,000 mm 0,0 UV-I 0 W/m -1,3 C -0,3 C 3,2 km/h (1 Bft) 95,83 %
24.02.2016 21:58 -0,3 C 93 % 1014,0 hPa 0,0 l/m 2,7 km/h (1 Bft) O-NO 62 0 min 0,000 mm 0,0 UV-I 0 W/m -1,3 C -0,3 C 3,2 km/h (1 Bft) 100,00 %
24.02.2016 21:59 -0,2 C 93 % 1014,0 hPa 0,0 l/m 2,6 km/h (1 Bft) O-NO 62 0 min 0,000 mm 0,0 UV-I 0 W/m -1,2 C -0,2 C 3,2 km/h (1 Bft) 100,00 %
24.02.2016 22:00 -0,2 C 93 % 1013,9 hPa 0,0 l/m 3,1 km/h (1 Bft) O-NO 62 0 min 0,000 mm 0,0 UV-I 0 W/m -1,2 C -0,2 C 3,2 km/h (1 Bft) 100,00 %
24.02.2016 22:01 -0,3 C 92 % 1013,9 hPa 0,0 l/m 2,9 km/h (1 Bft) O-NO 62 0 min 0,000 mm 0,0 UV-I 0 W/m -1,4 C -0,3 C 4,8 km/h (1 Bft) 100,00 %
24.02.2016 22:02 -0,3 C 92 % 1013,9 hPa 0,0 l/m 3,8 km/h (1 Bft) O-NO 62 0 min 0,000 mm 0,0 UV-I 0 W/m -1,4 C -0,3 C 4,8 km/h (1 Bft) 100,00 %
24.02.2016 22:03 -0,3 C 92 % 1013,9 hPa 0,0 l/m 3,6 km/h (1 Bft) O-NO 62 0 min 0,000 mm 0,0 UV-I 0 W/m -1,4 C -0,3 C 4,8 km/h (1 Bft) 100,00 %
24.02.2016 22:04 -0,3 C 92 % 1013,9 hPa 0,0 l/m 3,9 km/h (1 Bft) O-NO 62 0 min 0,000 mm 0,0 UV-I 0 W/m -1,4 C -0,3 C 4,8 km/h (1 Bft) 100,00 %
24.02.2016 22:05 -0,4 C 92 % 1013,8 hPa 0,0 l/m 3,6 km/h (1 Bft) O-NO 62 0 min 0,000 mm 0,0 UV-I 0 W/m -1,5 C -0,4 C 4,8 km/h (1 Bft) 100,00 %
24.02.2016 22:06 -0,4 C 93 % 1013,8 hPa 0,0 l/m 3,5 km/h (1 Bft) O-NO 62 0 min 0,000 mm 0,0 UV-I 0 W/m -1,4 C -0,4 C 4,8 km/h (1 Bft) 100,00 %
24.02.2016 22:07 -0,4 C 93 % 1013,9 hPa 0,0 l/m 3,5 km/h (1 Bft) O-NO 62 0 min 0,000 mm 0,0 UV-I 0 W/m -1,4 C -0,4 C 4,8 km/h (1 Bft) 95,83 %
24.02.2016 22:08 -0,4 C 93 % 1013,9 hPa 0,0 l/m 4,0 km/h (1 Bft) O-NO 62 0 min 0,000 mm 0,0 UV-I 0 W/m -1,4 C -0,4 C 4,8 km/h (1 Bft) 100,00 %
24.02.2016 22:09 -0,4 C 93 % 1013,9 hPa 0,0 l/m 4,2 km/h (1 Bft) O-NO 59 0 min 0,000 mm 0,0 UV-I 0 W/m -1,4 C -0,4 C 4,8 km/h (1 Bft) 100,00 %
24.02.2016 22:10 -0,4 C 93 % 1013,8 hPa 0,0 l/m 5,1 km/h (1 Bft) NO 34 0 min 0,000 mm 0,0 UV-I 0 W/m -1,4 C -0,4 C 6,4 km/h (2 Bft) 100,00 %
24.02.2016 22:11 -0,4 C 93 % 1013,8 hPa 0,0 l/m 7,5 km/h (2 Bft) NO 38 0 min 0,000 mm 0,0 UV-I 0 W/m -1,4 C -1,6 C 8,0 km/h (2 Bft) 93,10 %
24.02.2016 22:12 -0,4 C 93 % 1013,8 hPa 0,0 l/m 6,0 km/h (2 Bft) NO 45 0 min 0,000 mm 0,0 UV-I 0 W/m -1,4 C -0,4 C 8,0 km/h (2 Bft) 100,00 %
24.02.2016 22:13 -0,5 C 93 % 1013,9 hPa 0,0 l/m 7,6 km/h (2 Bft) NO 42 0 min 0,000 mm 0,0 UV-I 0 W/m -1,5 C -1,8 C 9,7 km/h (2 Bft) 96,88 %
24.02.2016 22:14 -0,5 C 93 % 1013,9 hPa 0,0 l/m 6,8 km/h (2 Bft) NO 39 0 min 0,000 mm 0,0 UV-I 0 W/m -1,5 C -0,9 C 8,0 km/h (2 Bft) 100,00 %
24.02.2016 22:15 -0,6 C 93 % 1013,9 hPa 0,0 l/m 5,3 km/h (1 Bft) NO 45 0 min 0,000 mm 0,0 UV-I 0 W/m -1,6 C -0,6 C 6,4 km/h (2 Bft) 96,15 %
24.02.2016 22:16 -0,6 C 93 % 1013,9 hPa 0,0 l/m 4,1 km/h (1 Bft) NO 40 0 min 0,000 mm 0,0 UV-I 0 W/m -1,6 C -0,6 C 6,4 km/h (2 Bft) 100,00 %
24.02.2016 22:17 -0,6 C 93 % 1013,9 hPa 0,0 l/m 4,9 km/h (1 Bft) NO 48 0 min 0,000 mm 0,0 UV-I 0 W/m -1,6 C -0,6 C 6,4 km/h (2 Bft) 100,00 %
24.02.2016 22:18 -0,6 C 93 % 1013,8 hPa 0,0 l/m 4,1 km/h (1 Bft) NO 52 0 min 0,000 mm 0,0 UV-I 0 W/m -1,6 C -0,6 C 4,8 km/h (1 Bft) 100,00 %
24.02.2016 22:19 -0,6 C 93 % 1013,8 hPa 0,0 l/m 4,6 km/h (1 Bft) NO 53 0 min 0,000 mm 0,0 UV-I 0 W/m -1,6 C -0,6 C 6,4 km/h (2 Bft) 100,00 %
24.02.2016 22:20 -0,7 C 93 % 1013,8 hPa 0,0 l/m 5,1 km/h (1 Bft) NO 51 0 min 0,000 mm 0,0 UV-I 0 W/m -1,7 C -0,7 C 6,4 km/h (2 Bft) 100,00 %
24.02.2016 22:21 -0,7 C 93 % 1013,8 hPa 0,0 l/m 3,3 km/h (1 Bft) NO 51 0 min 0,000 mm 0,0 UV-I 0 W/m -1,7 C -0,7 C 4,8 km/h (1 Bft) 100,00 %
24.02.2016 22:22 -0,7 C 93 % 1013,8 hPa 0,0 l/m 3,7 km/h (1 Bft) NO 51 0 min 0,000 mm 0,0 UV-I 0 W/m -1,7 C -0,7 C 4,8 km/h (1 Bft) 100,00 %
24.02.2016 22:23 -0,7 C 94 % 1013,7 hPa 0,0 l/m 4,0 km/h (1 Bft) NO 51 0 min 0,000 mm 0,0 UV-I 0 W/m -1,5 C -0,7 C 4,8 km/h (1 Bft) 100,00 %
24.02.2016 22:24 -0,7 C 94 % 1013,7 hPa 0,0 l/m 3,4 km/h (1 Bft) NO 51 0 min 0,000 mm 0,0 UV-I 0 W/m -1,5 C -0,7 C 4,8 km/h (1 Bft) 100,00 %
24.02.2016 22:25 -0,7 C 94 % 1013,7 hPa 0,0 l/m 3,2 km/h (1 Bft) NO 51 0 min 0,000 mm 0,0 UV-I 0 W/m -1,5 C -0,7 C 3,2 km/h (1 Bft) 100,00 %
24.02.2016 22:26 -0,7 C 94 % 1013,7 hPa 0,0 l/m 4,4 km/h (1 Bft) NO 51 0 min 0,000 mm 0,0 UV-I 0 W/m -1,5 C -0,7 C 4,8 km/h (1 Bft) 100,00 %
24.02.2016 22:27 -0,8 C 93 % 1013,7 hPa 0,0 l/m 3,3 km/h (1 Bft) NO 51 0 min 0,000 mm 0,0 UV-I 0 W/m -1,8 C -0,8 C 4,8 km/h (1 Bft) 100,00 %
24.02.2016 22:28 -0,8 C 94 % 1013,6 hPa 0,0 l/m 3,6 km/h (1 Bft) NO 51 0 min 0,000 mm 0,0 UV-I 0 W/m -1,6 C -0,8 C 4,8 km/h (1 Bft) 100,00 %
24.02.2016 22:29 -0,8 C 94 % 1013,6 hPa 0,0 l/m 3,9 km/h (1 Bft) NO 51 0 min 0,000 mm 0,0 UV-I 0 W/m -1,6 C -0,8 C 4,8 km/h (1 Bft) 100,00 %
24.02.2016 22:30 -0,8 C 93 % 1013,5 hPa 0,0 l/m 2,7 km/h (1 Bft) NO 51 0 min 0,000 mm 0,0 UV-I 0 W/m -1,8 C -0,8 C 3,2 km/h (1 Bft) 100,00 %
24.02.2016 22:31 -0,8 C 94 % 1013,6 hPa 0,0 l/m 2,2 km/h (1 Bft) NO 51 0 min 0,000 mm 0,0 UV-I 0 W/m -1,6 C -0,8 C 3,2 km/h (1 Bft) 100,00 %
24.02.2016 22:32 -0,8 C 94 % 1013,5 hPa 0,0 l/m 1,6 km/h (1 Bft) NO 51 0 min 0,000 mm 0,0 UV-I 0 W/m -1,6 C -0,8 C 3,2 km/h (1 Bft) 100,00 %
24.02.2016 22:33 -0,8 C 94 % 1013,5 hPa 0,0 l/m 2,0 km/h (1 Bft) NO 51 0 min 0,000 mm 0,0 UV-I 0 W/m -1,6 C -0,8 C 3,2 km/h (1 Bft) 100,00 %
24.02.2016 22:34 -0,8 C 94 % 1013,5 hPa 0,0 l/m 1,6 km/h (1 Bft) NO 51 0 min 0,000 mm 0,0 UV-I 0 W/m -1,6 C -0,8 C 1,6 km/h (1 Bft) 100,00 %
24.02.2016 22:35 -0,9 C 94 % 1013,5 hPa 0,0 l/m 1,7 km/h (1 Bft) NO 51 0 min 0,000 mm 0,0 UV-I 0 W/m -1,7 C -0,9 C 3,2 km/h (1 Bft) 100,00 %
24.02.2016 22:36 -0,9 C 94 % 1013,5 hPa 0,0 l/m 1,8 km/h (1 Bft) NO 51 0 min 0,000 mm 0,0 UV-I 0 W/m -1,7 C -0,9 C 3,2 km/h (1 Bft) 100,00 %
24.02.2016 22:37 -0,9 C 94 % 1013,5 hPa 0,0 l/m 2,0 km/h (1 Bft) NO 51 0 min 0,000 mm 0,0 UV-I 0 W/m -1,7 C -0,9 C 3,2 km/h (1 Bft) 100,00 %
24.02.2016 22:38 -0,9 C 94 % 1013,5 hPa 0,0 l/m 3,0 km/h (1 Bft) NO 51 0 min 0,000 mm 0,0 UV-I 0 W/m -1,7 C -0,9 C 3,2 km/h (1 Bft) 100,00 %
24.02.2016 22:39 -0,9 C 94 % 1013,5 hPa 0,0 l/m 2,1 km/h (1 Bft) NO 51 0 min 0,000 mm 0,0 UV-I 0 W/m -1,7 C -0,9 C 3,2 km/h (1 Bft) 100,00 %
24.02.2016 22:40 -1,0 C 94 % 1013,5 hPa 0,0 l/m 2,7 km/h (1 Bft) NO 51 0 min 0,000 mm 0,0 UV-I 0 W/m -1,8 C -1,0 C 3,2 km/h (1 Bft) 100,00 %
24.02.2016 22:41 -0,9 C 94 % 1013,5 hPa 0,0 l/m 1,6 km/h (1 Bft) NO 51 0 min 0,000 mm 0,0 UV-I 0 W/m -1,7 C -0,9 C 1,6 km/h (1 Bft) 100,00 %
24.02.2016 22:42 -0,9 C 94 % 1013,5 hPa 0,0 l/m 2,7 km/h (1 Bft) NO 51 0 min 0,000 mm 0,0 UV-I 0 W/m -1,7 C -0,9 C 3,2 km/h (1 Bft) 100,00 %
24.02.2016 22:43 -0,9 C 94 % 1013,5 hPa 0,0 l/m 2,3 km/h (1 Bft) NO 51 0 min 0,000 mm 0,0 UV-I 0 W/m -1,7 C -0,9 C 3,2 km/h (1 Bft) 100,00 %
24.02.2016 22:44 -0,9 C 94 % 1013,5 hPa 0,0 l/m 2,7 km/h (1 Bft) NO 51 0 min 0,000 mm 0,0 UV-I 0 W/m -1,7 C -0,9 C 3,2 km/h (1 Bft) 100,00 %
24.02.2016 22:45 -0,8 C 94 % 1013,4 hPa 0,0 l/m 3,4 km/h (1 Bft) NO 55 0 min 0,000 mm 0,0 UV-I 0 W/m -1,6 C -0,8 C 4,8 km/h (1 Bft) 100,00 %
24.02.2016 22:46 -0,8 C 94 % 1013,4 hPa 0,0 l/m 2,8 km/h (1 Bft) NO 55 0 min 0,000 mm 0,0 UV-I 0 W/m -1,6 C -0,8 C 4,8 km/h (1 Bft) 100,00 %
24.02.2016 22:47 -0,8 C 94 % 1013,4 hPa 0,0 l/m 4,5 km/h (1 Bft) NO 55 0 min 0,000 mm 0,0 UV-I 0 W/m -1,6 C -0,8 C 4,8 km/h (1 Bft) 100,00 %
24.02.2016 22:48 -0,8 C 94 % 1013,4 hPa 0,0 l/m 4,1 km/h (1 Bft) NO 55 0 min 0,000 mm 0,0 UV-I 0 W/m -1,6 C -0,8 C 6,4 km/h (2 Bft) 95,65 %
24.02.2016 22:49 -0,8 C 94 % 1013,4 hPa 0,0 l/m 3,8 km/h (1 Bft) O-NO 63 0 min 0,000 mm 0,0 UV-I 0 W/m -1,6 C -0,8 C 4,8 km/h (1 Bft) 96,30 %
24.02.2016 22:50 -0,8 C 94 % 1013,4 hPa 0,0 l/m 4,1 km/h (1 Bft) O-NO 64 0 min 0,000 mm 0,0 UV-I 0 W/m -1,6 C -0,8 C 4,8 km/h (1 Bft) 93,33 %
24.02.2016 22:51 -0,8 C 94 % 1013,4 hPa 0,0 l/m 3,4 km/h (1 Bft) O-NO 64 0 min 0,000 mm 0,0 UV-I 0 W/m -1,6 C -0,8 C 4,8 km/h (1 Bft) 96,55 %
24.02.2016 22:52 -0,8 C 94 % 1013,4 hPa 0,0 l/m 3,7 km/h (1 Bft) O-NO 65 0 min 0,000 mm 0,0 UV-I 0 W/m -1,6 C -0,8 C 4,8 km/h (1 Bft) 100,00 %
24.02.2016 22:53 -0,9 C 94 % 1013,4 hPa 0,0 l/m 1,7 km/h (1 Bft) O-NO 65 0 min 0,000 mm 0,0 UV-I 0 W/m -1,7 C -0,9 C 3,2 km/h (1 Bft) 95,83 %
24.02.2016 22:54 -0,9 C 94 % 1013,4 hPa 0,0 l/m 1,9 km/h (1 Bft) O-NO 65 0 min 0,000 mm 0,0 UV-I 0 W/m -1,7 C -0,9 C 3,2 km/h (1 Bft) 100,00 %
24.02.2016 22:55 -0,9 C 94 % 1013,3 hPa 0,0 l/m 1,3 km/h (1 Bft) O-NO 65 0 min 0,000 mm 0,0 UV-I 0 W/m -1,7 C -0,9 C 3,2 km/h (1 Bft) 95,65 %
24.02.2016 22:56 -0,9 C 94 % 1013,3 hPa 0,0 l/m 2,6 km/h (1 Bft) O 88 0 min 0,000 mm 0,0 UV-I 0 W/m -1,7 C -0,9 C 4,8 km/h (1 Bft) 92,31 %
24.02.2016 22:57 -0,9 C 94 % 1013,3 hPa 0,0 l/m 3,0 km/h (1 Bft) O 88 0 min 0,000 mm 0,0 UV-I 0 W/m -1,7 C -0,9 C 4,8 km/h (1 Bft) 95,83 %
24.02.2016 22:58 -0,9 C 94 % 1013,4 hPa 0,0 l/m 2,9 km/h (1 Bft) O 88 0 min 0,000 mm 0,0 UV-I 0 W/m -1,7 C -0,9 C 3,2 km/h (1 Bft) 95,83 %
24.02.2016 22:59 -0,9 C 94 % 1013,3 hPa 0,0 l/m 3,4 km/h (1 Bft) O 88 0 min 0,000 mm 0,0 UV-I 0 W/m -1,7 C -0,9 C 4,8 km/h (1 Bft) 100,00 %
24.02.2016 23:00 -0,9 C 94 % 1013,3 hPa 0,0 l/m 3,1 km/h (1 Bft) O 88 0 min 0,000 mm 0,0 UV-I 0 W/m -1,7 C -0,9 C 4,8 km/h (1 Bft) 95,83 %
24.02.2016 23:01 -0,9 C 94 % 1013,3 hPa 0,0 l/m 4,5 km/h (1 Bft) O 79 0 min 0,000 mm 0,0 UV-I 0 W/m -1,7 C -0,9 C 6,4 km/h (2 Bft) 95,65 %
24.02.2016 23:02 -0,9 C 94 % 1013,3 hPa 0,0 l/m 4,2 km/h (1 Bft) O 82 0 min 0,000 mm 0,0 UV-I 0 W/m -1,7 C -0,9 C 6,4 km/h (2 Bft) 91,67 %
24.02.2016 23:03 -0,9 C 94 % 1013,3 hPa 0,0 l/m 4,0 km/h (1 Bft) O 80 0 min 0,000 mm 0,0 UV-I 0 W/m -1,7 C -0,9 C 4,8 km/h (1 Bft) 100,00 %
24.02.2016 23:04 -0,9 C 94 % 1013,3 hPa 0,0 l/m 3,2 km/h (1 Bft) O 80 0 min 0,000 mm 0,0 UV-I 0 W/m -1,7 C -0,9 C 4,8 km/h (1 Bft) 97,37 %
24.02.2016 23:05 -0,9 C 94 % 1013,3 hPa 0,0 l/m 3,6 km/h (1 Bft) O 80 0 min 0,000 mm 0,0 UV-I 0 W/m -1,7 C -0,9 C 4,8 km/h (1 Bft) 96,15 %
24.02.2016 23:06 -0,9 C 94 % 1013,3 hPa 0,0 l/m 4,2 km/h (1 Bft) O-NO 74 0 min 0,000 mm 0,0 UV-I 0 W/m -1,7 C -0,9 C 4,8 km/h (1 Bft) 100,00 %
24.02.2016 23:07 -0,8 C 94 % 1013,2 hPa 0,0 l/m 3,7 km/h (1 Bft) O-NO 75 0 min 0,000 mm 0,0 UV-I 0 W/m -1,6 C -0,8 C 4,8 km/h (1 Bft) 95,65 %
24.02.2016 23:08 -0,8 C 94 % 1013,2 hPa 0,0 l/m 5,9 km/h (2 Bft) O-NO 74 0 min 0,000 mm 0,0 UV-I 0 W/m -1,6 C -0,8 C 8,0 km/h (2 Bft) 100,00 %
24.02.2016 23:09 -0,8 C 94 % 1013,2 hPa 0,0 l/m 4,4 km/h (1 Bft) O 87 0 min 0,000 mm 0,0 UV-I 0 W/m -1,6 C -0,8 C 6,4 km/h (2 Bft) 96,30 %
24.02.2016 23:10 -0,8 C 94 % 1013,2 hPa 0,0 l/m 4,2 km/h (1 Bft) O-NO 68 0 min 0,000 mm 0,0 UV-I 0 W/m -1,6 C -0,8 C 4,8 km/h (1 Bft) 100,00 %
24.02.2016 23:11 -0,7 C 94 % 1013,2 hPa 0,0 l/m 5,8 km/h (2 Bft) O-NO 74 0 min 0,000 mm 0,0 UV-I 0 W/m -1,5 C -0,7 C 8,0 km/h (2 Bft) 96,55 %
24.02.2016 23:12 -0,7 C 95 % 1013,2 hPa 0,0 l/m 5,0 km/h (1 Bft) O-NO 69 0 min 0,000 mm 0,0 UV-I 0 W/m -1,4 C -0,7 C 6,4 km/h (2 Bft) 100,00 %
24.02.2016 23:13 -0,7 C 95 % 1013,2 hPa 0,0 l/m 5,1 km/h (1 Bft) O-NO 72 0 min 0,000 mm 0,0 UV-I 0 W/m -1,4 C -0,7 C 6,4 km/h (2 Bft) 96,30 %
24.02.2016 23:14 -0,7 C 95 % 1013,1 hPa 0,0 l/m 4,0 km/h (1 Bft) O-NO 71 0 min 0,000 mm 0,0 UV-I 0 W/m -1,4 C -0,7 C 6,4 km/h (2 Bft) 88,46 %
24.02.2016 23:15 -0,7 C 95 % 1013,1 hPa 0,0 l/m 3,7 km/h (1 Bft) O-NO 71 0 min 0,000 mm 0,0 UV-I 0 W/m -1,4 C -0,7 C 4,8 km/h (1 Bft) 100,00 %
24.02.2016 23:16 -0,7 C 94 % 1013,2 hPa 0,0 l/m 4,8 km/h (1 Bft) O-NO 69 0 min 0,000 mm 0,0 UV-I 0 W/m -1,5 C -0,7 C 6,4 km/h (2 Bft) 96,15 %
24.02.2016 23:17 -0,7 C 94 % 1013,2 hPa 0,0 l/m 3,3 km/h (1 Bft) O 80 0 min 0,000 mm 0,0 UV-I 0 W/m -1,5 C -0,7 C 4,8 km/h (1 Bft) 93,33 %
24.02.2016 23:18 -0,7 C 94 % 1013,2 hPa 0,0 l/m 4,4 km/h (1 Bft) O-NO 69 0 min 0,000 mm 0,0 UV-I 0 W/m -1,5 C -0,7 C 6,4 km/h (2 Bft) 88,46 %
24.02.2016 23:19 -0,7 C 94 % 1013,2 hPa 0,0 l/m 3,7 km/h (1 Bft) O-NO 75 0 min 0,000 mm 0,0 UV-I 0 W/m -1,5 C -0,7 C 6,4 km/h (2 Bft) 100,00 %
24.02.2016 23:20 -0,7 C 94 % 1013,1 hPa 0,0 l/m 3,3 km/h (1 Bft) O-NO 75 0 min 0,000 mm 0,0 UV-I 0 W/m -1,5 C -0,7 C 4,8 km/h (1 Bft) 92,86 %
24.02.2016 23:21 -0,7 C 94 % 1013,1 hPa 0,0 l/m 3,1 km/h (1 Bft) O-NO 75 0 min 0,000 mm 0,0 UV-I 0 W/m -1,5 C -0,7 C 4,8 km/h (1 Bft) 100,00 %
24.02.2016 23:22 -0,7 C 94 % 1013,1 hPa 0,0 l/m 2,7 km/h (1 Bft) O-NO 75 0 min 0,000 mm 0,0 UV-I 0 W/m -1,5 C -0,7 C 3,2 km/h (1 Bft) 95,65 %
24.02.2016 23:23 -0,8 C 94 % 1013,1 hPa 0,0 l/m 2,7 km/h (1 Bft) O-NO 75 0 min 0,000 mm 0,0 UV-I 0 W/m -1,6 C -0,8 C 3,2 km/h (1 Bft) 100,00 %
24.02.2016 23:24 -0,8 C 94 % 1013,1 hPa 0,0 l/m 3,9 km/h (1 Bft) O 81 0 min 0,000 mm 0,0 UV-I 0 W/m -1,6 C -0,8 C 6,4 km/h (2 Bft) 96,15 %
24.02.2016 23:25 -0,8 C 94 % 1013,0 hPa 0,0 l/m 4,3 km/h (1 Bft) O-NO 74 0 min 0,000 mm 0,0 UV-I 0 W/m -1,6 C -0,8 C 6,4 km/h (2 Bft) 100,00 %
24.02.2016 23:26 -0,8 C 94 % 1013,0 hPa 0,0 l/m 3,1 km/h (1 Bft) O-NO 69 0 min 0,000 mm 0,0 UV-I 0 W/m -1,6 C -0,8 C 4,8 km/h (1 Bft) 100,00 %
24.02.2016 23:27 -0,8 C 94 % 1013,0 hPa 0,0 l/m 4,0 km/h (1 Bft) O-NO 68 0 min 0,000 mm 0,0 UV-I 0 W/m -1,6 C -0,8 C 4,8 km/h (1 Bft) 100,00 %
24.02.2016 23:28 -0,8 C 94 % 1013,0 hPa 0,0 l/m 4,5 km/h (1 Bft) O-NO 76 0 min 0,000 mm 0,0 UV-I 0 W/m -1,6 C -0,8 C 6,4 km/h (2 Bft) 100,00 %
24.02.2016 23:29 -0,8 C 94 % 1013,0 hPa 0,0 l/m 4,5 km/h (1 Bft) O 82 0 min 0,000 mm 0,0 UV-I 0 W/m -1,6 C -0,8 C 6,4 km/h (2 Bft) 100,00 %
24.02.2016 23:30 -0,7 C 94 % 1013,0 hPa 0,0 l/m 5,6 km/h (1 Bft) O-NO 64 0 min 0,000 mm 0,0 UV-I 0 W/m -1,5 C -0,7 C 8,0 km/h (2 Bft) 100,00 %
24.02.2016 23:31 -0,8 C 94 % 1012,9 hPa 0,0 l/m 4,4 km/h (1 Bft) O-NO 76 0 min 0,000 mm 0,0 UV-I 0 W/m -1,6 C -0,8 C 6,4 km/h (2 Bft) 91,67 %
24.02.2016 23:32 -0,7 C 94 % 1013,0 hPa 0,0 l/m 4,3 km/h (1 Bft) O-NO 67 0 min 0,000 mm 0,0 UV-I 0 W/m -1,5 C -0,7 C 8,0 km/h (2 Bft) 100,00 %
24.02.2016 23:33 -0,7 C 94 % 1012,9 hPa 0,0 l/m 5,2 km/h (1 Bft) O-NO 78 0 min 0,000 mm 0,0 UV-I 0 W/m -1,5 C -0,7 C 8,0 km/h (2 Bft) 100,00 %
24.02.2016 23:34 -0,8 C 94 % 1012,9 hPa 0,0 l/m 4,6 km/h (1 Bft) O-NO 69 0 min 0,000 mm 0,0 UV-I 0 W/m -1,6 C -0,8 C 6,4 km/h (2 Bft) 100,00 %
24.02.2016 23:35 -0,8 C 94 % 1012,9 hPa 0,0 l/m 4,8 km/h (1 Bft) O-NO 75 0 min 0,000 mm 0,0 UV-I 0 W/m -1,6 C -0,8 C 6,4 km/h (2 Bft) 96,55 %
24.02.2016 23:36 -0,8 C 94 % 1012,9 hPa 0,0 l/m 4,8 km/h (1 Bft) O-NO 74 0 min 0,000 mm 0,0 UV-I 0 W/m -1,6 C -0,8 C 6,4 km/h (2 Bft) 100,00 %
24.02.2016 23:37 -0,8 C 94 % 1012,9 hPa 0,0 l/m 3,7 km/h (1 Bft) NO 53 0 min 0,000 mm 0,0 UV-I 0 W/m -1,6 C -0,8 C 4,8 km/h (1 Bft) 100,00 %
24.02.2016 23:38 -0,8 C 94 % 1012,9 hPa 0,0 l/m 4,8 km/h (1 Bft) NO 54 0 min 0,000 mm 0,0 UV-I 0 W/m -1,6 C -0,8 C 6,4 km/h (2 Bft) 100,00 %
24.02.2016 23:39 -0,8 C 94 % 1012,9 hPa 0,0 l/m 3,8 km/h (1 Bft) NO 53 0 min 0,000 mm 0,0 UV-I 0 W/m -1,6 C -0,8 C 4,8 km/h (1 Bft) 100,00 %
24.02.2016 23:40 -0,8 C 94 % 1012,9 hPa 0,0 l/m 3,2 km/h (1 Bft) NO 53 0 min 0,000 mm 0,0 UV-I 0 W/m -1,6 C -0,8 C 4,8 km/h (1 Bft) 95,83 %
24.02.2016 23:41 -0,8 C 94 % 1012,9 hPa 0,0 l/m 2,0 km/h (1 Bft) NO 53 0 min 0,000 mm 0,0 UV-I 0 W/m -1,6 C -0,8 C 3,2 km/h (1 Bft) 100,00 %
24.02.2016 23:42 -0,8 C 94 % 1012,9 hPa 0,0 l/m 1,7 km/h (1 Bft) NO 53 0 min 0,000 mm 0,0 UV-I 0 W/m -1,6 C -0,8 C 3,2 km/h (1 Bft) 100,00 %
24.02.2016 23:43 -0,8 C 94 % 1012,9 hPa 0,0 l/m 1,4 km/h (1 Bft) NO 53 0 min 0,000 mm 0,0 UV-I 0 W/m -1,6 C -0,8 C 1,6 km/h (1 Bft) 100,00 %
24.02.2016 23:44 -0,9 C 94 % 1012,9 hPa 0,0 l/m 1,7 km/h (1 Bft) NO 53 0 min 0,000 mm 0,0 UV-I 0 W/m -1,7 C -0,9 C 3,2 km/h (1 Bft) 100,00 %
24.02.2016 23:45 -0,9 C 94 % 1012,8 hPa 0,0 l/m 0,7 km/h (0 Bft) NO 53 0 min 0,000 mm 0,0 UV-I 0 W/m -1,7 C -0,9 C 1,6 km/h (1 Bft) 100,00 %
24.02.2016 23:46 -1,0 C 94 % 1012,8 hPa 0,0 l/m 0,1 km/h (0 Bft) NO 53 0 min 0,000 mm 0,0 UV-I 0 W/m -1,8 C -1,0 C 1,6 km/h (1 Bft) 100,00 %
24.02.2016 23:47 -1,1 C 94 % 1012,8 hPa 0,0 l/m 0,1 km/h (0 Bft) NO 53 0 min 0,000 mm 0,0 UV-I 0 W/m -1,9 C -1,1 C 1,6 km/h (1 Bft) 100,00 %
24.02.2016 23:48 -1,1 C 94 % 1012,8 hPa 0,0 l/m 1,2 km/h (1 Bft) NO 53 0 min 0,000 mm 0,0 UV-I 0 W/m -1,9 C -1,1 C 1,6 km/h (1 Bft) 100,00 %
24.02.2016 23:49 -1,2 C 94 % 1012,8 hPa 0,0 l/m 1,5 km/h (1 Bft) NO 53 0 min 0,000 mm 0,0 UV-I 0 W/m -2,0 C -1,2 C 1,6 km/h (1 Bft) 100,00 %
24.02.2016 23:50 -1,2 C 94 % 1012,8 hPa 0,0 l/m 0,6 km/h (0 Bft) NO 53 0 min 0,000 mm 0,0 UV-I 0 W/m -2,0 C -1,2 C 1,6 km/h (1 Bft) 100,00 %
24.02.2016 23:51 -1,3 C 94 % 1012,8 hPa 0,0 l/m 1,2 km/h (1 Bft) NO 53 0 min 0,000 mm 0,0 UV-I 0 W/m -2,1 C -1,3 C 3,2 km/h (1 Bft) 100,00 %
24.02.2016 23:52 -1,3 C 94 % 1012,8 hPa 0,0 l/m 1,0 km/h (0 Bft) NO 53 0 min 0,000 mm 0,0 UV-I 0 W/m -2,1 C -1,3 C 1,6 km/h (1 Bft) 100,00 %
24.02.2016 23:53 -1,3 C 94 % 1012,8 hPa 0,0 l/m 0,5 km/h (0 Bft) NO 53 0 min 0,000 mm 0,0 UV-I 0 W/m -2,1 C -1,3 C 1,6 km/h (1 Bft) 100,00 %
24.02.2016 23:54 -1,3 C 95 % 1012,7 hPa 0,0 l/m 0,1 km/h (0 Bft) NO 53 0 min 0,000 mm 0,0 UV-I 0 W/m -2,0 C -1,3 C 1,6 km/h (1 Bft) 100,00 %
24.02.2016 23:55 -1,3 C 95 % 1012,7 hPa 0,0 l/m 0,8 km/h (0 Bft) NO 53 0 min 0,000 mm 0,0 UV-I 0 W/m -2,0 C -1,3 C 1,6 km/h (1 Bft) 100,00 %
24.02.2016 23:56 -1,3 C 95 % 1012,8 hPa 0,0 l/m 0,8 km/h (0 Bft) NO 53 0 min 0,000 mm 0,0 UV-I 0 W/m -2,0 C -1,3 C 1,6 km/h (1 Bft) 100,00 %
24.02.2016 23:57 -1,3 C 95 % 1012,8 hPa 0,0 l/m 0,9 km/h (0 Bft) NO 53 0 min 0,000 mm 0,0 UV-I 0 W/m -2,0 C -1,3 C 1,6 km/h (1 Bft) 95,83 %
24.02.2016 23:58 -1,3 C 95 % 1012,8 hPa 0,0 l/m 1,5 km/h (1 Bft) NO 53 0 min 0,000 mm 0,0 UV-I 0 W/m -2,0 C -1,3 C 3,2 km/h (1 Bft) 100,00 %
24.02.2016 23:59 -1,3 C 95 % 1012,8 hPa 0,0 l/m 1,7 km/h (1 Bft) NO 53 0 min 0,000 mm 0,0 UV-I 0 W/m -2,0 C -1,3 C 3,2 km/h (1 Bft) 100,00 %
_ Min-Zeit 23:51 14:43 23:54 - 13:14 - - - - - - 23:51 02:39 13:14 01:13
Minimum _ -1,3 C 71 % 1012,7 hPa - 0,0 km/h (0 Bft) - - - - - - -2,1 C -8,6 C 0,0 km/h (0 Bft) 83,33 %
_ Max-Zeit 11:54 23:12 08:35 02:49 00:17 - - 16:45 15:01 11:26 11:44 11:50 11:53 00:15 00:00
Maximum _ 5,8 C 95 % 1019,1 hPa 0,2 l/m 24,1 km/h
W-SW (4 Bft)
- - 5 min 0,153 mm 1,7 UV-I 716 W/m 2,9 C 5,7 C 33,8 km/h
W-SW (5 Bft)
100,00 %
Durchschnitt _ 2,2 C 87 % 1016,7 hPa #0,6 l/m 7,7 km/h (2 Bft) W-SW - #3:44 h #0,889 mm 0,9 UV-I 174 W/m 0,1 C 0,0 C 11,3 km/h (2 Bft) 98,46 %